[[{"header":{"parameterUnit":"m.s-1","parameterCategory":1,"la1":30.6,"la2":28.766,"lo1":-90.7593,"lo2":-88.6598,"dy":0.0162,"dx":0.0183,"nx":116,"ny":114,"refTime":"2024-02-24T06:00:00:Z","depth":0,"parameterNumber":2,"parameterNumberName":"U-component_of_WINDS"},"data":[0.0,0.0,0.0,0.0,0.0,0.0,0.0,0.0,0.0,0.0,0.0,0.0,0.0,0.0,0.0,0.0,0.0,0.0,0.0,0.0,0.0,0.0,0.0,0.0,0.0,0.0,0.0,0.0,0.0,0.0,0.0,0.0,0.0,0.0,0.0,0.0,0.0,0.0,0.0,0.0,0.0,0.0,0.0,0.0,0.0,0.0,0.0,0.0,0.0,0.0,0.0,0.0,0.0,0.0,0.0,0.0,0.0,0.0,0.0,0.0,0.0,0.0,0.0,0.0,0.0,0.0,0.0,0.0,0.0,0.0,0.0,0.0,0.0,0.0,0.0,0.0,0.0,0.0,0.0,0.0,0.0,0.0,0.0,0.0,0.0,0.0,0.0,0.0,0.0,0.0,0.0,0.0,0.0,0.0,0.0,0.0,0.0,0.0,0.0,0.0,0.0,0.0,0.0,0.0,0.0,0.0,0.0,0.0,0.0,0.0,0.0,0.0,0.0,0.0,0.0,0.0,0.0,0.0,0.0,0.0,0.0,0.0,0.0,0.0,0.0,0.0,0.0,0.0,0.0,0.0,0.0,0.0,0.0,0.0,0.0,0.0,0.0,0.0,0.0,0.0,0.0,0.0,0.0,0.0,0.0,0.0,0.0,0.0,0.0,0.0,0.0,0.0,0.0,0.0,0.0,0.0,0.0,0.0,0.0,0.0,0.0,0.0,0.0,0.0,0.0,0.0,0.0,0.0,0.0,0.0,0.0,0.0,0.0,0.0,0.0,0.0,0.0,0.0,0.0,0.0,0.0,0.0,0.0,0.0,0.0,0.0,0.0,0.0,0.0,0.0,0.0,0.0,0.0,0.0,0.0,0.0,0.0,0.0,0.0,0.0,0.0,0.0,0.0,0.0,0.0,0.0,0.0,0.0,0.0,0.0,0.0,0.0,0.0,0.0,0.0,0.0,0.0,0.0,0.0,0.0,0.0,0.0,0.0,0.0,0.0,0.0,0.0,0.0,0.0,0.0,0.0,0.0,0.0,0.0,0.0,0.0,0.0,0.0,0.0,0.0,0.0,0.0,0.0,0.0,0.0,0.0,0.0,0.0,0.0,0.0,0.0,0.0,0.0,0.0,0.0,0.0,0.0,0.0,0.0,0.0,0.0,0.0,0.0,0.0,0.0,0.0,0.0,0.0,0.0,0.0,0.0,0.0,0.0,0.0,0.0,0.0,0.0,0.0,0.0,0.0,0.0,0.0,0.0,0.0,0.0,0.0,0.0,0.0,0.0,0.0,0.0,0.0,0.0,0.0,0.0,0.0,0.0,0.0,0.0,0.0,0.0,0.0,0.0,0.0,0.0,0.0,0.0,0.0,0.0,0.0,0.0,0.0,0.0,0.0,0.0,0.0,0.0,0.0,0.0,0.0,0.0,0.0,0.0,0.0,0.0,0.0,0.0,0.0,0.0,0.0,0.0,0.0,0.0,0.0,0.0,0.0,0.0,0.0,0.0,0.0,0.0,0.0,0.0,0.0,0.0,0.0,0.0,0.0,0.0,0.0,0.0,0.0,0.0,0.0,0.0,0.0,0.0,0.0,0.0,0.0,0.0,0.0,0.0,0.0,0.0,0.0,0.0,0.0,0.0,0.0,0.0,0.0,0.0,0.0,0.0,0.0,0.0,0.0,0.0,0.0,0.0,0.0,0.0,0.0,0.0,0.0,0.0,0.0,0.0,0.0,0.0,0.0,0.0,0.0,0.0,0.0,0.0,0.0,0.0,0.0,0.0,0.0,0.0,0.0,0.0,0.0,0.0,0.0,0.0,0.0,0.0,0.0,0.0,0.0,0.0,0.0,0.0,0.0,0.0,0.0,0.0,0.0,0.0,0.0,0.0,0.0,0.0,0.0,0.0,0.0,0.0,0.0,0.0,0.0,0.0,0.0,0.0,0.0,0.0,0.0,0.0,0.0,0.0,0.0,0.0,0.0,0.0,0.0,0.0,0.0,0.0,0.0,0.0,0.0,0.0,0.0,0.0,0.0,0.0,0.0,0.0,0.0,0.0,0.0,0.0,0.0,0.0,0.0,0.0,0.0,0.0,0.0,0.0,0.0,0.0,0.0,0.0,0.0,0.0,0.0,0.0,0.0,0.0,0.0,0.0,0.0,0.0,0.0,0.0,0.0,0.0,0.0,0.0,0.0,0.0,0.0,0.0,0.0,0.0,0.0,0.0,0.0,0.0,0.0,0.0,0.0,0.0,0.0,0.0,0.0,0.0,0.0,0.0,0.0,0.0,0.0,0.0,0.0,0.0,0.0,0.0,0.0,0.0,0.0,0.0,0.0,0.0,0.0,0.0,0.0,0.0,0.0,0.0,0.0,0.0,0.0,0.0,0.0,0.0,0.0,0.0,0.0,0.0,0.0,0.0,0.0,0.0,0.0,0.0,0.0,0.0,0.0,0.0,0.0,0.0,0.0,0.0,0.0,0.0,0.0,0.0,0.0,0.0,0.0,0.0,0.0,0.0,0.0,0.0,0.0,0.0,0.0,0.0,0.0,0.0,0.0,0.0,0.0,0.0,0.0,0.0,0.0,0.0,0.0,0.0,0.0,0.0,0.0,0.0,0.0,0.0,0.0,0.0,0.0,0.0,0.0,0.0,0.0,0.0,0.0,0.0,0.0,0.0,0.0,0.0,0.0,0.0,0.0,0.0,0.0,0.0,0.0,0.0,0.0,0.0,0.0,0.0,0.0,0.0,0.0,0.0,0.0,0.0,0.0,0.0,0.0,0.0,0.0,0.0,0.0,0.0,0.0,0.0,0.0,0.0,0.0,0.0,0.0,0.0,0.0,0.0,0.0,0.0,0.0,0.0,0.0,0.0,0.0,0.0,0.0,0.0,0.0,0.0,0.0,0.0,0.0,0.0,0.0,0.0,0.0,0.0,0.0,0.0,0.0,0.0,0.0,0.0,0.0,0.0,0.0,0.0,0.0,0.0,0.0,0.0,0.0,0.0,0.0,0.0,0.0,0.0,0.0,0.0,0.0,0.0,0.0,0.0,0.0,0.0,0.0,0.0,0.0,0.0,0.0,0.0,0.0,0.0,0.0,0.0,0.0,0.0,0.0,0.0,0.0,0.0,0.0,0.0,0.0,0.0,0.0,0.0,0.0,0.0,0.0,0.0,0.0,0.0,0.0,0.0,0.0,0.0,0.0,0.0,0.0,0.0,0.0,0.0,0.0,0.0,0.0,0.0,0.0,0.0,0.0,0.0,0.0,0.0,0.0,0.0,0.0,0.0,0.0,0.0,0.0,0.0,0.0,0.0,0.0,0.0,0.0,0.0,0.0,0.0,0.0,0.0,0.0,0.0,0.0,0.0,0.0,0.0,0.0,0.0,0.0,0.0,0.0,0.0,0.0,0.0,0.0,0.0,0.0,0.0,0.0,0.0,0.0,0.0,0.0,0.0,0.0,0.0,0.0,0.0,0.0,0.0,0.0,0.0,0.0,0.0,0.0,0.0,0.0,0.0,0.0,0.0,0.0,0.0,0.0,0.0,0.0,0.0,0.0,0.0,0.0,0.0,0.0,0.0,0.0,0.0,0.0,0.0,0.0,0.0,0.0,0.0,0.0,0.0,0.0,0.0,0.0,0.0,0.0,0.0,0.0,0.0,0.0,0.0,0.0,0.0,0.0,0.0,0.0,0.0,0.0,0.0,0.0,0.0,0.0,0.0,0.0,0.0,0.0,0.0,0.0,0.0,0.0,0.0,0.0,0.0,0.0,0.0,0.0,0.0,0.0,0.0,0.0,0.0,0.0,0.0,0.0,0.0,0.0,0.0,0.0,0.0,0.0,0.0,0.0,0.0,0.0,0.0,0.0,0.0,0.0,0.0,0.0,0.0,0.0,0.0,0.0,0.0,0.0,0.0,0.0,0.0,0.0,0.0,0.0,0.0,0.0,0.0,0.0,0.0,0.0,0.0,0.0,0.0,0.0,0.0,0.0,0.0,0.0,0.0,0.0,0.0,0.0,0.0,0.0,0.0,0.0,0.0,0.0,0.0,0.0,0.0,0.0,0.0,0.0,0.0,0.0,0.0,0.0,0.0,0.0,0.0,0.0,0.0,0.0,0.0,0.0,0.0,0.0,0.0,0.0,0.0,0.0,0.0,0.0,0.0,0.0,0.0,0.0,0.0,0.0,0.0,0.0,0.0,0.0,0.0,0.0,0.0,0.0,0.0,0.0,0.0,0.0,0.0,0.0,0.0,0.0,0.0,0.0,0.0,0.0,0.0,0.0,0.0,0.0,0.0,0.0,0.0,0.0,0.0,0.0,0.0,0.0,0.0,0.0,0.0,0.0,0.0,0.0,0.0,0.0,0.0,0.0,0.0,0.0,0.0,0.0,0.0,0.0,0.0,0.0,0.0,0.0,0.0,0.0,0.0,0.0,0.0,0.0,0.0,0.0,0.0,0.0,0.0,0.0,0.0,0.0,0.0,0.0,0.0,0.0,0.0,0.0,0.0,0.0,0.0,0.0,0.0,0.0,0.0,0.0,0.0,0.0,0.0,0.0,0.0,0.0,0.0,0.0,0.0,0.0,0.0,0.0,0.0,0.0,0.0,0.0,0.0,0.0,0.0,0.0,0.0,0.0,0.0,0.0,0.0,0.0,0.0,0.0,0.0,0.0,0.0,0.0,0.0,0.0,0.0,0.0,0.0,0.0,0.0,0.0,0.0,0.0,0.0,0.0,0.0,0.0,0.0,0.0,0.0,0.0,0.0,0.0,0.0,0.0,0.0,0.0,0.0,0.0,0.0,0.0,0.0,0.0,0.0,0.0,0.0,0.0,0.0,0.0,0.0,0.0,0.0,0.0,0.0,0.0,0.0,0.0,0.0,0.0,0.0,0.0,0.0,0.0,0.0,0.0,0.0,0.0,0.0,0.0,0.0,0.0,0.0,0.0,0.0,0.0,0.0,0.0,0.0,0.0,0.0,0.0,0.0,0.0,0.0,0.0,0.0,0.0,0.0,0.0,0.0,0.0,0.0,0.0,0.0,0.0,0.0,0.0,0.0,0.0,0.0,0.0,0.0,0.0,0.0,0.0,0.0,0.0,0.0,0.0,0.0,0.0,0.0,0.0,0.0,0.0,0.0,0.0,0.0,0.0,0.0,0.0,0.0,0.0,0.0,0.0,0.0,0.0,0.0,0.0,0.0,0.0,0.0,0.0,0.0,0.0,0.0,0.0,0.0,0.0,0.0,0.0,0.0,0.0,0.0,0.0,0.0,0.0,0.0,0.0,0.0,0.0,0.0,0.0,0.0,0.0,0.0,0.0,0.0,0.0,0.0,0.0,0.0,0.0,0.0,0.0,0.0,0.0,0.0,0.0,0.0,0.0,0.0,0.0,0.0,0.0,0.0,0.0,0.0,0.0,0.0,0.0,0.0,0.0,0.0,0.0,0.0,0.0,0.0,0.0,0.0,0.0,0.0,0.0,0.0,0.0,0.0,0.0,0.0,0.0,0.0,0.0,0.0,0.0,0.0,0.0,0.0,0.0,0.0,0.0,0.0,0.0,0.0,0.0,0.0,0.0,0.0,0.0,0.0,0.0,0.0,0.0,0.0,0.0,0.0,0.0,0.0,0.0,0.0,0.0,0.0,0.0,0.0,0.0,0.0,0.0,0.0,0.0,0.0,0.0,0.0,0.0,0.0,0.0,0.0,0.0,0.0,0.0,0.0,0.0,0.0,0.0,0.0,0.0,0.0,0.0,0.0,0.0,0.0,0.0,0.0,0.0,0.0,0.0,0.0,0.0,0.0,0.0,0.0,0.0,0.0,0.0,0.0,0.0,0.0,0.0,0.0,0.0,0.0,0.0,0.0,0.0,0.0,0.0,0.0,0.0,0.0,0.0,0.0,0.0,0.0,0.0,0.0,0.0,0.0,0.0,0.0,0.0,0.0,0.0,0.0,0.0,0.0,0.0,0.0,0.0,0.0,0.0,0.0,0.0,0.0,0.0,0.0,0.0,0.0,0.0,0.0,0.0,0.0,0.0,0.0,0.0,0.0,0.0,0.0,0.0,0.0,0.0,0.0,0.0,0.0,0.0,0.0,0.0,0.0,0.0,0.0,0.0,2.3547,0.0,0.0,0.0,0.0,0.0,0.0,0.0,0.0,0.0,0.0,0.0,0.0,0.0,0.0,0.0,0.0,0.0,0.0,0.0,0.0,0.0,0.0,0.0,0.0,0.0,0.0,0.0,1.5532,1.552,1.5657,1.6061,1.6352,1.6495,1.6775,1.7006,1.7128,1.7301,1.7381,1.7381,1.7541,1.7608,1.7595,1.7275,1.7128,1.7128,0.0,0.0,0.0,0.0,0.0,0.0,0.0,0.0,0.0,0.0,0.0,0.0,0.0,0.0,0.0,0.0,0.0,0.0,0.0,0.0,0.0,0.0,0.0,0.0,0.0,0.0,0.0,0.0,0.0,0.0,0.0,0.0,0.0,0.0,0.0,0.0,0.0,0.0,0.0,0.0,0.0,0.0,0.0,0.0,0.0,0.0,0.0,0.0,0.0,0.0,0.0,0.0,0.0,0.0,0.0,0.0,0.0,0.0,0.0,0.0,0.0,0.0,0.0,0.0,0.0,0.0,0.0,0.0,0.0,0.0,0.0,2.3081,0.0,0.0,0.0,0.0,0.0,0.0,0.0,0.0,0.0,0.0,0.0,0.0,0.0,0.0,0.0,0.0,0.0,0.0,0.0,0.0,0.0,0.0,0.0,1.4657,1.4745,1.5264,1.5302,1.5275,1.5324,1.5897,1.6343,1.6549,1.6976,1.7289,1.7529,1.7582,1.7608,1.7608,1.7608,1.7608,1.7608,1.7608,1.7608,1.7608,1.7608,0.0,0.0,0.0,0.0,0.0,0.0,0.0,0.0,0.0,0.0,0.0,0.0,0.0,0.0,0.0,0.0,0.0,0.0,0.0,0.0,0.0,0.0,0.0,0.0,0.0,0.0,0.0,0.0,0.0,0.0,0.0,0.0,0.0,0.0,0.0,0.0,0.0,0.0,0.0,0.0,0.0,0.0,0.0,0.0,0.0,0.0,0.0,0.0,0.0,0.0,0.0,0.0,0.0,0.0,0.0,0.0,0.0,0.0,0.0,0.0,0.0,0.0,0.0,2.1314,2.1214,2.078,2.1,2.1117,2.1116,2.1465,2.1985,2.2635,2.3168,0.0,0.0,0.0,0.0,0.0,0.0,0.0,0.0,0.0,0.0,0.0,0.0,0.0,0.0,0.0,0.0,0.0,0.0,0.0,0.0,0.0,1.4149,1.4458,1.5014,1.4841,1.4815,1.5033,1.563,1.596,1.5997,1.6777,1.7213,1.7252,1.7477,1.7608,1.7608,1.7608,1.7608,1.7608,1.7608,1.7608,1.7608,1.7608,1.7608,1.7608,0.0,0.0,0.0,0.0,0.0,0.0,0.0,0.0,0.0,0.0,0.0,0.0,0.0,0.0,0.0,0.0,0.0,0.0,0.0,0.0,0.0,0.0,0.0,0.0,0.0,0.0,0.0,0.0,0.0,0.0,0.0,0.0,0.0,0.0,0.0,0.0,0.0,0.0,0.0,0.0,0.0,1.8398,1.8425,0.0,0.0,0.0,0.0,0.0,0.0,0.0,0.0,0.0,0.0,0.0,0.0,0.0,2.1637,2.1354,2.1354,2.1298,2.1156,2.1228,2.1201,2.1115,2.0873,2.0773,2.0773,2.0587,0.0,2.2204,2.2511,0.0,0.0,0.0,0.0,0.0,0.0,0.0,0.0,0.0,0.0,0.0,0.0,0.0,0.0,0.0,0.0,0.0,0.0,0.0,0.0,0.0,1.3752,1.4138,1.4726,1.4817,1.4954,1.5256,1.5817,1.6137,1.6137,1.6828,1.7199,1.7199,1.7596,1.7929,1.8117,1.8117,1.8117,1.8117,1.8117,1.8117,1.8117,1.8117,1.7929,1.7608,1.7608,0.0,0.0,0.0,0.0,0.0,0.0,0.0,0.0,0.0,0.0,0.0,0.0,0.0,0.0,0.0,0.0,0.0,0.0,0.0,0.0,0.0,0.0,0.0,0.0,0.0,0.0,0.0,0.0,0.0,0.0,0.0,0.0,0.0,0.0,0.0,0.0,0.0,0.0,0.0,1.841,1.849,1.849,1.8749,1.8899,0.0,0.0,0.0,0.0,0.0,0.0,0.0,0.0,0.0,2.0473,2.0744,2.0802,2.0701,2.0687,2.0615,2.0414,2.0414,2.0328,2.0184,2.004,1.9953,1.9953,1.9851,2.0198,2.0845,2.1488,2.2184,2.2833,0.0,0.0,0.0,0.0,2.3508,2.3255,0.0,0.0,0.0,0.0,0.0,0.0,0.0,0.0,0.0,0.0,0.0,0.0,1.3017,1.345,1.3937,1.4439,1.4734,1.4961,1.5148,1.555,1.5788,1.5833,1.6516,1.6969,1.718,1.7793,1.8236,1.849,1.849,1.849,1.849,1.849,1.849,1.849,1.849,1.8237,1.7836,1.7836,1.7836,1.7836,0.0,0.0,0.0,0.0,0.0,0.0,0.0,0.0,0.0,0.0,0.0,0.0,0.0,0.0,0.0,0.0,0.0,0.0,0.0,0.0,0.0,0.0,0.0,0.0,0.0,0.0,0.0,0.0,0.0,0.0,0.0,0.0,0.0,0.0,0.0,0.0,0.0,1.8746,1.8746,1.8746,1.8905,1.9038,0.0,0.0,0.0,0.0,0.0,0.0,1.9707,1.9938,2.0068,2.0068,2.0068,2.0068,2.0068,2.0068,1.9965,1.9786,1.9786,1.9739,1.9586,1.9586,1.9586,1.9586,1.9586,1.9692,1.9844,2.0557,2.106,2.1388,2.1644,2.1786,2.1887,2.1887,2.1815,2.1716,0.0,0.0,0.0,0.0,0.0,0.0,0.0,0.0,0.0,0.0,0.0,1.1837,1.2382,1.3186,1.3835,1.4196,1.4466,1.4519,1.4277,1.4277,1.4386,1.4586,1.5478,1.631,1.708,1.8007,1.8477,1.849,1.849,1.849,1.849,1.849,1.849,1.849,1.849,1.8477,1.8437,1.8437,1.8437,1.8437,1.8437,0.0,0.0,0.0,0.0,0.0,0.0,0.0,0.0,0.0,0.0,0.0,0.0,0.0,0.0,0.0,0.0,0.0,0.0,0.0,0.0,0.0,0.0,0.0,0.0,0.0,0.0,0.0,0.0,0.0,0.0,0.0,0.0,0.0,0.0,0.0,0.0,0.0,0.0,1.9348,1.9361,0.0,0.0,0.0,0.0,1.9401,1.9417,1.943,1.943,1.9459,1.9459,1.9459,1.9459,1.9459,1.9459,1.9459,1.9564,1.9803,1.9803,1.992,2.0157,2.0157,2.0157,2.0157,2.0157,2.0027,1.9819,1.9844,2.0213,2.0745,2.0773,2.0974,2.126,2.126,2.1031,2.0773,0.0,0.0,0.0,0.0,0.0,0.0,0.0,0.0,0.9844,0.9954,1.0743,1.1427,1.1837,1.2654,1.3359,1.3829,1.4169,1.4423,1.4642,1.4489,1.4569,1.5003,1.5714,1.667,1.7915,1.8476,1.8865,1.908,1.908,1.908,1.908,1.908,1.908,1.908,1.908,1.908,1.9053,1.8651,1.849,1.849,1.849,1.849,0.0,0.0,0.0,0.0,0.0,0.0,0.0,0.0,0.0,0.0,0.0,0.0,0.0,0.0,0.0,0.0,0.0,0.0,0.0,0.0,0.0,0.0,0.0,0.0,0.0,0.0,0.0,0.0,0.0,0.0,0.0,0.0,0.0,0.0,0.0,0.0,0.0,1.9401,1.9401,0.0,1.9401,1.9401,1.9401,1.9401,1.9401,1.9401,1.9401,1.9575,1.9639,1.9639,1.9826,1.992,1.992,1.992,1.9943,2.005,2.005,2.0104,2.0197,2.0197,2.0197,2.0197,2.0197,2.0144,2.0067,2.005,1.9988,1.9851,1.9851,1.9938,2.004,2.004,1.9967,1.9851,0.0,0.0,0.0,0.0,0.0,0.0,0.0,0.0,0.9789,0.9789,1.0551,1.1236,1.1573,1.2391,1.3044,1.3396,1.3784,1.3997,1.3989,1.3793,1.3935,1.4474,1.5761,1.702,1.8208,1.8779,1.9172,1.9401,1.9401,1.9401,1.9401,1.9401,1.9401,1.9401,1.9401,1.9401,1.9374,1.8973,1.8784,1.8784,1.8784,1.8784,1.8799,0.0,0.0,0.0,0.0,0.0,0.0,0.0,0.0,0.0,0.0,0.0,0.0,0.0,0.0,0.0,0.0,0.0,0.0,0.0,0.0,0.0,0.0,0.0,0.0,0.0,0.0,0.0,0.0,0.0,0.0,0.0,0.0,0.0,0.0,0.0,1.9401,1.9401,1.9401,1.9401,1.9401,1.9401,1.9441,1.9535,1.9535,1.9589,1.9653,1.984,1.9947,1.9947,2.0104,2.025,2.0374,2.0374,2.0481,2.0681,2.0681,2.0735,2.0828,2.0828,2.0828,2.0828,2.0828,2.0775,2.0681,2.0681,2.0388,1.9933,1.9733,1.9653,1.9653,1.9653,1.9653,1.9653,0.0,0.0,0.0,0.0,0.0,0.0,0.0,0.9403,0.9789,0.9789,1.0551,1.1208,1.1573,1.2364,1.2891,1.2891,1.3297,1.3176,1.2246,1.2124,1.2347,1.2923,1.5528,1.7261,1.7877,1.8823,1.933,1.933,1.9372,1.9388,1.9388,1.9401,1.9401,1.9401,1.9401,1.9401,1.9401,1.9401,1.9401,1.9401,1.9401,1.9401,1.9361,0.0,0.0,0.0,0.0,0.0,0.0,0.0,0.0,0.0,0.0,0.0,0.0,0.0,0.0,0.0,0.0,0.0,0.0,0.0,0.0,0.0,0.0,0.0,0.0,0.0,0.0,0.0,0.0,0.0,0.0,0.0,0.0,0.0,1.9401,1.9401,1.9401,1.9401,1.9401,1.9415,1.9415,1.9415,1.9535,1.9786,1.9813,1.9947,2.0197,2.0224,2.0237,2.0237,2.025,2.0428,2.0739,2.0753,2.1034,2.1596,2.1596,2.1743,2.1991,2.1991,2.1991,2.1991,2.1991,2.1863,2.1596,2.1596,2.1435,2.1082,2.045,2.0224,2.021,2.021,2.0197,2.0197,0.0,0.0,0.0,0.0,0.0,0.0,0.0,0.9244,0.9568,0.9761,1.0394,1.1017,1.1537,1.211,1.2451,1.2395,1.2458,1.2346,1.2006,1.1979,1.2619,1.4084,1.5577,1.6644,1.7232,1.7935,1.8315,1.8315,1.8794,1.9026,1.9026,1.9301,1.9401,1.9401,1.9401,1.9401,1.9401,1.9401,1.9401,1.9401,1.9401,1.9401,1.9388,0.0,0.0,0.0,0.0,0.0,0.0,0.0,0.0,0.0,0.0,0.0,0.0,0.0,0.0,0.0,0.0,0.0,0.0,0.0,0.0,0.0,0.0,0.0,0.0,0.0,0.0,0.0,0.0,0.0,0.0,0.0,0.0,1.9401,1.9401,1.9401,1.9401,1.9401,1.9575,1.9679,1.9679,1.9867,1.9997,2.0077,2.0077,2.0241,2.0535,2.0748,2.0962,2.1221,2.139,2.155,2.163,2.163,2.1743,2.1903,2.1903,2.1943,2.1991,2.1991,2.1991,2.1991,2.1991,2.197,2.1903,2.1903,2.185,2.167,2.0869,2.0548,2.0535,2.0277,2.0197,2.0197,0.0,0.0,0.0,0.0,0.0,0.0,0.0,0.9189,0.9485,0.9761,1.0339,1.0913,1.1466,1.1764,1.187,1.1798,1.1693,1.1503,1.1138,1.1446,1.2303,1.3725,1.4867,1.5758,1.6397,1.7132,1.7584,1.773,1.8386,1.8829,1.908,1.9415,1.9642,1.972,1.9629,1.9575,1.9575,1.9441,1.9401,1.9401,1.9401,1.9401,1.9401,1.9401,1.9401,1.9401,1.9401,1.9401,1.9401,1.9401,0.0,0.0,0.0,0.0,0.0,0.0,0.0,0.0,0.0,0.0,0.0,0.0,0.0,0.0,0.0,0.0,0.0,0.0,0.0,0.0,0.0,0.0,0.0,0.0,1.9401,1.9441,1.9562,1.9575,1.9575,1.9575,1.98,1.9987,1.9987,2.0241,2.0468,2.0557,2.0722,2.0909,2.1248,2.139,2.155,2.1756,2.193,2.2131,2.2385,2.2385,2.2519,2.276,2.276,2.276,2.276,2.276,2.276,2.276,2.276,2.276,2.276,2.276,2.276,0.0,0.0,0.0,0.0,0.0,2.0931,2.0931,0.0,0.0,0.0,0.0,0.0,0.0,0.0,0.9161,0.9458,0.9761,1.03,1.0868,1.1341,1.14,1.1342,1.1183,1.1008,1.0665,1.0138,1.0861,1.1722,1.2664,1.3794,1.4689,1.5362,1.6231,1.6879,1.7303,1.8014,1.8652,1.9268,1.9648,1.9957,2.0197,1.996,1.9826,1.9786,1.9562,1.9428,1.9401,1.9401,1.9401,1.9401,1.9401,1.9401,1.9401,1.9401,1.9401,1.9401,1.9401,0.0,0.0,0.0,0.0,0.0,0.0,0.0,0.0,0.0,0.0,0.0,0.0,0.0,0.0,0.0,0.0,0.0,0.0,0.0,0.0,0.0,0.0,0.0,0.0,1.9441,1.9548,1.9813,1.988,1.9893,1.9853,2.0104,2.0304,2.0304,2.0628,2.0967,2.1189,2.1489,2.1783,2.2104,0.0,0.0,0.0,0.0,2.2465,2.3,2.3,2.3268,2.3803,2.3803,2.3803,2.3803,2.3803,2.3803,2.3803,2.3803,2.3803,2.3803,2.3803,2.3803,2.3696,2.2559,2.2044,2.1991,2.1991,2.1991,2.1991,0.0,0.0,0.0,0.0,0.0,0.0,0.0,0.8968,0.9189,0.9734,1.0234,1.0747,1.133,1.1454,1.1352,1.1061,1.0681,1.0499,1.065,1.1072,1.1722,1.2664,1.2925,1.3375,1.4043,1.451,1.5124,1.5954,1.7327,1.8337,1.8997,1.977,2.0144,2.0197,2.0144,1.9983,1.98,1.9733,1.9615,1.9401,1.9401,1.9401,1.9401,1.9401,1.9401,1.9401,1.9401,1.9401,1.9401,1.9401,1.9401,1.9401,1.9401,1.9401,0.0,0.0,0.0,0.0,0.0,0.0,0.0,0.0,0.0,0.0,0.0,0.0,0.0,0.0,0.0,0.0,0.0,0.0,0.0,1.9679,1.972,1.9813,2.0077,2.0361,2.0414,2.0144,2.0584,2.0935,2.0935,2.1416,2.175,2.1804,2.1903,2.2171,2.2693,2.2733,2.296,2.3442,2.3455,2.3509,2.3629,2.3629,2.3696,2.3803,0.0,0.0,2.3803,2.3803,2.3803,2.3803,2.3803,2.3803,2.3803,2.3803,2.3803,2.3736,2.3014,2.2439,2.1991,2.1991,2.1991,2.1991,0.0,0.0,0.0,0.0,0.0,0.0,0.0,0.8912,0.9099,0.9614,0.9918,1.0285,1.0891,1.0838,1.0732,1.0666,1.0288,1.0186,1.0513,1.0702,1.1148,1.1963,1.1993,1.2303,1.2934,1.3435,1.4152,1.5105,1.6489,1.7648,1.8628,1.9331,1.9825,2.0141,1.9998,1.9868,1.9743,1.9598,1.9492,1.9401,1.9401,1.9401,1.9401,1.9401,1.9401,1.9401,1.9401,1.9401,1.9401,1.9401,1.9401,1.9401,1.9401,1.9401,1.9401,0.0,0.0,0.0,0.0,0.0,0.0,0.0,0.0,0.0,0.0,0.0,0.0,0.0,0.0,1.9615,1.9615,0.0,1.984,2.0,1.9983,2.0144,2.0584,2.0802,2.0842,2.0664,2.1069,2.139,2.1537,2.1937,2.2271,2.2452,2.2565,2.2846,2.3335,2.3348,2.3496,2.379,2.3803,2.387,2.3981,2.3981,2.4062,2.4209,2.4209,2.4209,2.4209,2.4209,2.4209,2.4209,2.4209,2.4209,2.4209,2.4209,2.4115,2.3955,2.3647,2.326,2.2907,2.2907,2.2907,2.2907,0.0,0.0,0.0,0.0,0.0,0.0,0.0,0.8912,0.9071,0.9553,0.9631,0.9874,1.0436,1.0257,1.0113,1.0203,0.9943,0.9943,1.027,1.0308,1.0581,1.1178,1.1148,1.136,1.1933,1.2513,1.3285,1.4242,1.5526,1.6736,1.7926,1.8529,1.9153,1.9775,1.955,1.9448,1.9394,1.9206,1.9118,1.9098,1.9098,1.9185,1.9301,1.9301,1.933,1.9401,1.9401,1.9401,1.9401,1.9401,1.9401,1.9401,1.9401,1.9401,1.9401,1.9401,1.9401,0.0,0.0,0.0,0.0,0.0,0.0,0.0,0.0,0.0,1.9481,1.9481,1.9679,1.988,1.988,2.0037,2.0224,2.0277,2.033,2.0557,2.1122,2.1243,2.1296,2.1363,2.1577,2.1863,2.2158,2.2418,2.2712,2.3054,2.3273,2.3541,2.387,2.3884,2.391,2.3941,2.4031,2.4178,2.4369,2.4436,2.4569,2.4773,2.4773,2.4773,2.4773,2.4773,2.4773,2.4773,2.4773,2.4773,2.4773,2.4773,2.4663,2.4449,2.4396,2.4235,2.4044,2.387,2.3803,2.3803,0.0,0.0,0.0,0.0,0.0,0.0,0.0,0.0,0.9071,0.9553,0.9753,1.0026,1.0443,1.0351,1.0165,0.9883,0.9822,0.9943,1.027,1.0308,1.0459,1.0846,1.0581,1.0573,1.0936,1.1329,1.1963,1.2895,1.4489,1.5687,1.6538,1.7437,1.8162,1.8664,1.864,1.8577,1.8447,1.8423,1.8286,1.8081,1.8081,1.8402,1.8968,1.8968,1.9156,1.9401,1.9401,1.9401,1.9401,1.9401,1.9401,1.9401,1.9401,1.9401,1.9401,1.9401,1.9401,1.9401,1.9401,1.9401,1.9401,1.9401,1.9401,1.9401,0.0,0.0,1.976,1.976,1.9987,2.0157,2.0157,2.0184,2.029,2.0619,2.0842,2.1122,2.1489,2.1756,2.1991,2.2245,2.2298,2.2445,2.2773,2.3046,2.3354,2.3683,2.3736,2.3848,2.4142,2.4155,2.4275,2.4492,2.4796,2.4981,2.4983,2.5237,2.5384,2.5411,2.5411,2.5411,2.5411,2.5411,2.5411,2.5411,2.5411,2.5411,2.5411,2.5411,2.5398,2.5344,2.5077,2.4957,2.4874,2.4098,2.3803,2.3803,0.0,0.0,0.0,0.0,0.0,0.0,0.0,0.0,0.0,0.9424,0.9571,0.9733,1.0067,1.0023,0.9943,0.9822,0.9792,0.9852,1.0004,1.0004,1.0065,1.0217,1.0095,1.0186,1.049,1.0846,1.139,1.2182,1.3152,1.4116,1.5033,1.5535,1.6097,1.6697,1.6697,1.6792,1.696,1.696,1.7026,1.7103,1.7308,1.7672,1.8094,1.8256,1.8402,1.859,1.8968,1.8981,0.0,1.9026,1.9127,1.9156,1.933,1.9401,1.9401,1.9401,1.9401,1.9401,1.9401,1.9401,1.9441,0.0,1.9626,1.9666,1.9826,1.993,2.0024,2.0024,2.0281,2.0494,2.0494,2.0628,2.0842,0.0,2.1315,2.1555,2.1991,2.2164,2.2418,2.2852,2.2905,2.2993,2.3113,2.3407,2.3701,2.3995,2.4022,2.4155,2.4399,2.4623,2.477,2.489,2.5184,2.5331,2.5331,2.5451,2.5518,2.5518,2.5518,2.5518,2.5518,2.5518,2.5518,2.5518,2.5518,2.5518,2.5518,2.5518,2.5518,2.5504,2.5384,2.5331,2.5251,2.4529,2.4275,2.4275,0.0,0.0,0.0,0.0,0.0,0.0,0.0,0.0,0.0,0.0,0.941,0.9496,0.9758,0.9792,0.9792,0.9792,0.9792,0.9792,0.9792,0.9792,0.9792,0.9792,0.9792,0.9913,1.0156,1.0482,1.0906,1.139,1.1973,1.2637,1.3426,1.3642,1.4117,1.4726,1.4819,1.5042,1.5348,1.553,1.5724,1.6013,1.6349,1.6762,1.7244,1.7349,1.7467,1.7613,1.8344,1.8415,1.8211,1.8532,1.8706,1.8823,1.9156,1.933,1.9401,1.9401,1.9455,1.9522,1.9522,1.9575,1.9653,1.9867,1.992,1.9973,2.0157,2.0264,2.0361,2.0361,2.0588,2.0802,2.0802,2.1029,2.1328,2.1555,2.1716,2.197,2.2365,2.2531,2.2798,2.3238,2.3439,2.3532,2.3532,2.3768,2.4008,2.4302,2.4396,2.4543,2.4743,2.5037,2.5197,2.5197,2.5478,2.5638,2.5638,2.5718,2.5758,2.5758,2.5758,2.5758,2.5758,2.5758,2.5758,2.5758,2.5758,2.5758,2.5758,2.5758,2.5758,2.5745,2.5665,2.5638,2.5571,2.5026,2.4839,2.4839,0.0,0.0,0.0,0.0,0.0,0.0,0.0,0.0,0.0,0.0,0.0,0.0,0.0,0.9792,0.9792,0.9792,0.9792,0.9792,0.9792,0.9792,0.9792,0.9792,0.9792,0.9792,0.9822,1.0156,1.0331,1.0338,1.1005,1.1462,1.1688,1.2005,1.2476,1.2989,1.3335,1.3532,1.3711,1.4301,1.46,1.4689,1.5016,1.5709,1.6508,1.6242,1.6331,1.6655,1.7613,1.776,1.7567,1.7847,1.814,1.8473,1.8823,1.9156,1.9401,1.9401,1.9559,1.9786,1.9786,1.9987,2.0184,2.0184,2.0184,2.0197,2.0197,2.0454,2.0686,2.0686,2.0895,2.1096,2.1096,2.1368,2.1569,2.1582,2.2031,2.2392,2.2418,2.2892,2.3265,2.3292,2.3834,2.4182,0.0,2.4182,2.4315,2.4559,2.489,2.5101,2.5064,2.5344,2.5504,2.5504,2.5824,2.5984,2.5984,2.6226,2.636,2.636,2.636,2.636,2.636,2.636,2.636,2.636,2.636,2.636,2.636,2.636,2.636,2.6333,2.6091,2.5984,2.5944,2.5598,2.5491,2.5491,0.0,0.0,0.0,0.0,0.0,0.0,0.0,0.0,0.0,0.0,0.0,0.0,0.0,0.0,0.0,0.0,0.9792,0.9792,0.9792,0.9792,0.9792,0.9792,0.9792,0.9792,0.9792,0.9913,0.9974,0.9974,1.0186,1.0458,1.0753,1.0844,1.1119,1.1509,1.1877,1.215,1.2448,1.3063,1.344,1.3714,1.4043,1.449,1.4957,1.4867,1.4897,1.4986,0.0,1.561,1.6301,1.6809,1.7349,1.7918,1.8677,1.9113,1.9428,1.9599,1.9867,2.0064,2.0064,2.013,2.025,2.0481,2.0535,2.0575,2.0775,2.0895,2.0962,2.0962,2.1042,2.1162,2.1395,2.1515,2.1716,2.2071,2.2298,2.2531,2.2932,2.3158,2.3439,2.3861,2.4088,0.0,0.0,0.0,0.0,2.4917,2.5024,2.5157,2.5358,2.5651,2.585,2.585,2.6092,2.6279,2.6279,2.6333,2.6386,2.6386,2.6386,2.6386,2.6386,2.6386,2.6386,2.6386,2.6386,2.6386,2.6386,2.6386,2.6386,2.6373,2.6279,2.6279,2.6265,2.6132,2.6092,2.6039,0.0,0.0,0.0,0.0,0.0,0.0,0.0,0.0,0.0,0.0,0.0,0.0,0.0,0.0,0.0,0.0,0.0,0.9792,0.9792,0.9792,0.9792,0.9792,0.9792,0.9792,0.9792,0.9792,0.9792,0.9792,0.9792,0.9913,1.0126,1.0126,1.0247,1.0459,1.0914,1.1239,1.1511,1.2333,1.2814,1.3054,1.3384,1.3714,1.3973,1.3614,1.3555,0.0,1.3036,1.3584,1.4699,1.554,1.6496,1.7491,1.8412,1.9174,1.972,1.9907,2.016,2.0388,2.0388,2.0437,2.0557,2.0788,2.0828,2.0882,2.1069,2.1109,2.1109,2.1109,2.1189,2.1323,2.1542,2.1756,2.1991,2.2352,2.2571,2.2852,2.3238,2.3479,2.3781,2.4155,2.4289,2.4399,0.0,0.0,0.0,2.5064,2.5315,2.5516,2.5665,2.5984,2.6145,2.6145,2.6293,2.6386,2.6386,2.6386,2.6386,2.6386,2.6386,2.6386,2.6386,2.6386,2.6386,2.6386,2.6386,2.6386,2.6386,2.6386,2.6386,2.6386,2.6386,2.6386,2.6386,2.6386,2.6386,2.6333,0.0,0.0,0.0,0.0,0.0,0.0,0.0,0.0,0.0,0.0,0.0,0.0,0.0,0.0,0.0,0.0,0.0,0.0,0.9792,0.9792,0.9792,0.9792,0.9792,0.9792,0.9792,0.9792,0.9792,0.9792,0.9792,0.9792,0.9792,0.9792,0.9792,0.9822,1.0482,1.0762,1.0846,1.2083,1.2634,1.2664,1.2964,1.3294,1.3474,1.2505,1.2324,1.2483,1.1571,1.1881,1.2883,1.4142,1.569,1.7256,1.8217,1.9305,2.0224,2.0224,2.0468,2.0726,2.0726,2.0895,2.1109,2.1109,2.1109,2.1109,2.1109,2.1109,2.1109,2.1122,2.1395,2.1596,0.0,0.0,2.2418,2.2432,2.2905,2.3292,2.3319,2.3848,2.4209,0.0,0.0,0.0,0.0,0.0,0.0,2.5117,0.0,2.5998,2.6011,2.6239,2.6386,2.6386,2.6386,2.6386,2.6386,2.6386,2.6386,2.6386,2.6386,2.6386,2.6386,2.6386,2.6386,2.6386,2.6386,2.6386,2.6386,2.6386,2.6386,2.6386,2.6386,2.6386,2.6386,2.6386,2.6386,2.6386,0.0,0.0,0.0,0.0,0.0,0.0,0.0,0.0,0.0,0.0,0.0,0.0,0.0,0.0,0.0,0.0,0.0,0.0,0.9792,0.9792,0.9792,0.9792,0.9792,0.9792,0.9792,0.9792,0.9792,0.9792,0.9792,0.9792,0.9792,0.9792,0.9792,0.9822,1.0247,1.0422,1.0482,1.1299,1.1661,1.1661,1.1752,1.185,1.1842,1.136,1.1209,1.1209,1.0725,1.1446,1.2791,1.3819,1.5987,1.8446,1.943,2.0107,2.0561,2.0561,2.0762,2.1002,2.1002,2.1056,2.1109,2.1109,2.1109,2.1109,2.1109,2.1109,2.1176,2.1422,2.1529,2.1716,0.0,0.0,0.0,2.2712,2.3073,0.0,2.3621,2.3968,0.0,2.4466,0.0,2.4693,2.4943,2.5224,0.0,0.0,2.5917,2.6091,2.6305,2.6346,2.6386,2.6386,2.6386,2.6386,2.6386,2.6386,2.6386,2.6386,2.6386,2.6386,2.6386,2.6386,2.6386,2.6386,2.6386,2.6386,2.6386,2.6386,2.6386,2.6386,2.6386,2.6386,2.6386,2.6386,2.6386,2.6386,0.0,0.0,0.0,0.0,0.0,0.0,0.0,0.0,0.0,0.0,0.0,0.0,0.0,0.0,0.0,0.0,0.0,0.0,0.0,0.9792,0.9792,0.9792,0.9792,0.9792,0.9792,0.9792,0.9792,0.9792,0.9792,0.9792,0.9792,0.9792,0.9792,0.9822,1.0156,1.0308,1.0338,1.1035,1.1299,0.0,0.0,1.1299,1.1239,1.0762,1.0573,1.0543,1.0217,1.131,1.3208,1.503,0.0,1.8908,2.006,2.0628,2.0869,2.0869,0.0,2.1109,2.1109,2.1109,2.1109,2.1109,2.1109,2.1109,2.1109,2.1203,2.1381,2.1555,2.1783,0.0,2.2352,2.2525,0.0,0.0,0.0,0.0,2.379,2.4128,2.4412,0.0,2.4599,0.0,2.5088,2.5344,2.5638,0.0,2.6118,2.6252,2.6386,2.6386,2.6386,2.6386,2.6386,2.6386,2.6386,2.6386,2.6386,2.6386,2.6386,2.6386,2.6386,2.6386,2.6386,2.6386,0.0,2.6386,2.6386,2.6386,2.6386,2.6386,2.6386,2.6386,2.6386,2.6386,2.6386,2.6386,0.0,0.0,0.0,0.0,0.0,0.0,0.0,0.0,0.0,0.0,0.0,0.0,0.0,0.0,0.0,0.0,0.0,0.0,0.0,0.0,0.9792,0.9792,0.9792,0.9792,0.9792,0.9792,0.9792,0.9792,0.9792,0.9792,0.9792,0.9792,0.9792,0.9822,1.0095,1.0247,1.0277,1.0846,1.1088,1.1088,1.1088,1.1088,1.1027,0.0,1.0247,1.0224,1.0168,1.1572,1.3883,1.675,1.8207,1.8992,2.0317,2.0909,2.1109,2.1109,2.1109,2.1109,2.1109,2.1109,2.1109,2.1109,2.1109,2.1122,2.1162,2.1395,2.1609,2.1689,0.0,2.2398,2.2472,2.2686,2.2893,2.2893,0.0,2.3803,2.3803,2.4275,2.4599,2.4599,2.4639,2.4773,2.5104,2.5398,2.5692,2.6038,2.6292,2.6386,2.6386,2.6386,2.6386,2.6386,2.6386,2.6386,2.6386,2.6386,2.6386,2.6386,2.6386,2.6386,2.6386,2.6386,2.6386,2.6386,2.6386,0.0,2.6386,2.6386,2.6386,2.6386,2.6386,2.6386,2.6386,2.6386,2.6386,2.6386,0.0,0.0,0.0,0.0,0.0,0.0,0.0,0.0,0.0,0.0,0.9792,0.9792,0.0,0.0,0.0,0.0,0.0,0.0,0.0,0.0,0.0,0.9792,0.9792,0.9792,0.9792,0.9792,0.9792,0.9792,0.9792,0.9792,0.9792,0.9792,0.9792,0.9792,0.9852,0.9883,0.9883,1.0004,1.0065,1.0065,1.0065,1.0065,1.0065,0.9943,0.0,0.0,1.1441,1.2645,1.3998,1.6947,1.8425,1.9255,2.0619,2.1069,2.1109,2.1109,2.1109,2.1109,2.1109,2.1109,2.1109,2.1109,2.1109,2.1176,2.1448,2.1542,0.0,0.0,2.2352,2.2485,2.2773,2.2867,2.2893,2.2893,2.3415,2.3803,2.3803,2.4275,2.4599,0.0,2.485,2.5117,0.0,0.0,0.0,0.0,0.0,2.6386,2.6386,2.6386,2.6386,2.6386,2.6386,2.6386,2.6386,2.6386,2.6386,2.6386,2.6386,2.6386,2.6386,2.6386,2.6386,2.6386,2.6386,0.0,2.6386,2.6386,2.6386,2.6386,2.6386,2.6386,2.6386,2.6386,2.6386,2.6386,0.0,0.0,0.0,0.0,0.0,0.0,0.0,0.9792,0.9792,0.9792,0.9792,0.9792,0.9792,0.9792,0.9792,0.0,0.0,0.0,0.0,0.0,0.0,0.0,0.0,0.0,0.9792,0.9792,0.9792,0.9792,0.0,0.9792,0.9792,0.9792,0.9792,0.9792,0.9792,0.9792,0.9792,0.9792,0.9792,0.9792,0.9792,0.9792,0.9792,0.0,0.0,0.0,0.0,1.2995,1.4052,1.7012,1.8495,1.9328,2.0666,2.1109,2.1109,2.1109,2.1109,2.1109,2.1109,2.1109,2.1109,2.1109,2.1109,2.1189,2.1515,0.0,0.0,0.0,2.2539,2.2733,2.2867,2.2893,0.0,2.2893,2.3415,2.3803,2.3803,2.4275,0.0,2.4599,2.4903,2.5197,0.0,2.5785,0.0,0.0,0.0,2.6386,2.6386,2.6386,2.6386,2.6386,2.6386,2.6386,2.6386,2.6386,2.6386,2.6386,2.6386,2.6386,2.6386,2.6386,2.6386,2.6386,2.6386,0.0,2.6386,2.6386,2.6386,2.6386,2.6386,2.6386,2.6386,2.6386,2.6386,2.6386,0.0,0.0,0.0,0.0,0.0,0.0,0.0,0.9792,0.9792,0.9792,0.9792,0.9792,0.9792,0.9792,0.9792,0.0,0.0,0.0,0.0,0.0,0.0,0.0,0.0,0.0,0.0,0.0,0.0,0.9792,0.9792,0.0,0.0,0.0,0.0,0.0,0.9792,0.9792,0.9792,0.9792,0.9792,0.0,0.0,0.9792,0.0,0.0,0.0,0.0,0.0,1.3161,1.4212,1.7022,1.8495,1.9328,2.0666,2.1109,2.1109,2.1109,2.1109,2.1109,2.1109,2.1109,2.1109,2.1109,2.1162,2.1283,2.1609,2.1903,0.0,2.2458,2.2733,2.2893,2.2893,2.2893,2.2893,0.0,2.3415,2.3803,2.3803,2.4275,2.4599,0.0,2.4957,0.0,2.5491,2.5877,0.0,0.0,0.0,0.0,2.6386,2.6386,2.6386,2.6386,2.6386,2.6386,2.6386,2.6386,2.6386,2.6386,2.6386,2.6386,2.6386,2.6386,2.6386,2.6386,2.6386,0.0,0.0,2.6386,2.6386,2.6386,2.6386,2.6386,2.6386,2.6386,2.6386,2.6386,0.0,0.0,0.0,0.0,0.0,0.0,0.0,0.9792,0.9792,0.9792,0.9792,0.9792,0.9792,0.9792,0.9792,0.0,0.0,0.0,0.0,0.0,0.0,0.0,0.0,0.0,0.0,0.0,0.0,0.9792,0.9792,0.0,0.0,0.0,0.0,0.0,0.0,0.9792,0.9792,0.9792,0.0,0.0,0.0,0.0,0.0,0.0,0.0,0.0,0.0,1.3611,1.4698,1.7184,0.0,1.9328,2.0666,2.1109,2.1109,2.1109,0.0,0.0,2.1109,2.1109,2.1109,2.1109,2.1341,2.1622,2.1917,0.0,2.2458,2.28,2.288,2.2893,2.2893,2.2893,2.2893,0.0,0.0,2.3803,2.3803,2.4275,2.4599,2.4599,0.0,0.0,2.5504,2.6026,0.0,0.0,0.0,0.0,2.6386,2.6386,2.6386,2.6386,2.6386,2.6386,2.6386,2.6386,2.6386,2.6386,2.6386,2.6386,2.6386,2.6386,2.6386,2.6386,2.6386,0.0,0.0,2.6386,2.6386,2.6386,2.6386,2.6386,2.6386,2.6386,2.6386,2.6386,0.0,0.0,0.0,0.0,0.0,0.0,0.9792,0.9792,0.9792,0.9792,0.9792,0.9792,0.9792,0.9792,0.9792,0.9792,0.0,0.0,0.0,0.0,0.0,0.0,0.0,0.0,0.0,0.0,0.0,0.9792,0.9792,0.0,0.0,0.0,0.0,0.0,0.0,0.0,0.9792,0.9792,0.0,0.0,0.0,0.0,0.0,0.0,0.0,0.0,0.0,0.0,1.5313,1.7324,1.8612,0.0,2.0729,2.1109,2.1109,0.0,2.1109,2.1109,2.1109,2.1109,2.1149,2.1368,2.1502,2.1703,2.2138,0.0,2.2498,2.284,2.2893,2.2893,2.2893,2.2893,2.2893,2.2893,2.3415,2.3803,2.3803,2.4275,2.4666,2.4877,2.5264,0.0,0.0,0.0,2.6386,0.0,0.0,0.0,2.6386,2.6386,2.6386,2.6386,2.6386,2.6386,2.6386,2.6386,2.6386,2.6386,2.6386,2.6386,2.6386,2.6386,2.6386,2.6386,2.6386,0.0,0.0,2.6386,2.6386,2.6386,2.6386,2.6386,2.6386,2.6386,2.6386,2.6386,0.0,0.0,0.0,0.0,0.0,0.9792,0.9792,0.9792,0.9792,0.9792,0.9792,0.9792,0.9792,0.9792,0.9792,0.9792,0.9792,0.0,0.0,0.0,0.0,0.0,0.0,0.0,0.0,0.0,0.9792,0.9792,0.9792,0.9792,0.0,0.0,0.0,0.0,0.0,0.0,0.0,0.0,0.0,0.0,0.0,0.0,0.0,0.0,0.0,0.0,0.0,0.0,0.0,0.0,0.0,1.9763,2.0792,2.1109,2.1109,2.1109,2.1109,2.1109,2.1109,2.1109,2.1176,2.1515,2.1649,2.1836,0.0,0.0,2.2605,2.2853,2.2893,2.2893,2.2893,2.2893,2.2893,2.2893,2.3415,2.3803,2.3803,2.4275,2.4706,0.0,0.0,2.5625,0.0,2.6265,2.6386,0.0,0.0,0.0,2.6386,2.6386,2.6386,2.6386,2.6386,2.6386,2.6386,2.6386,2.6386,2.6386,2.6386,2.6386,2.6386,2.6386,2.6386,2.6386,2.6386,0.0,0.0,2.6386,2.6386,2.6386,2.6386,2.6386,2.6386,2.6386,2.6386,2.6386,0.0,0.0,0.0,0.0,0.0,0.0,0.9792,0.9792,0.9792,0.9792,0.9792,0.9792,0.9792,0.9792,0.9792,0.9792,0.9792,0.0,0.0,0.0,0.0,0.0,0.0,0.0,0.0,0.0,0.9792,0.9792,0.9792,0.9792,0.9792,0.9792,0.9792,0.9792,0.0,0.0,0.0,0.0,0.0,0.0,0.0,0.0,0.0,0.0,0.0,0.0,0.0,0.0,0.0,0.0,0.0,0.0,0.0,2.1109,2.1109,2.1109,2.1109,2.1109,2.1109,2.1109,2.1176,2.1515,2.1796,2.2058,0.0,2.2645,2.2893,2.2893,2.2893,2.2893,2.2893,2.2893,2.2893,2.2893,2.3415,2.3803,2.3803,2.4275,2.4706,0.0,0.0,2.5625,2.5971,2.6265,2.6386,0.0,0.0,0.0,2.6386,2.6386,2.6386,2.6386,2.6386,2.6386,2.6386,2.6386,2.6386,2.6386,2.6386,2.6386,2.6386,2.6386,2.6386,0.0,0.0,0.0,0.0,2.6386,2.6386,2.6386,2.6386,2.6386,2.6386,2.6386,2.6386,2.6386,0.0,0.0,0.0,0.0,0.0,0.0,0.0,0.9792,0.9792,0.9792,0.9792,0.9792,0.9792,0.9792,0.9792,0.9792,0.9792,0.0,0.0,0.0,0.0,0.0,0.0,0.0,0.0,0.0,0.9792,0.9792,0.9792,0.9792,0.9792,0.9792,0.9792,0.9792,0.9792,0.0,0.0,0.0,0.0,0.0,0.0,0.0,0.0,0.0,0.0,0.0,0.0,0.0,0.0,0.0,0.0,0.0,0.0,0.0,0.0,2.1109,2.1109,2.1109,2.1109,2.1256,2.1515,2.181,2.2071,2.2365,2.2659,2.2827,2.2893,2.2893,2.2893,2.2893,2.2893,2.2893,2.2893,2.2893,2.3415,2.3803,0.0,0.0,0.0,2.5317,2.5812,2.6146,0.0,0.0,2.6386,0.0,0.0,0.0,2.6386,2.6386,2.6386,2.6386,2.6386,2.6386,2.6386,2.6386,2.6386,2.6386,2.6386,2.6386,2.6386,2.6386,2.6386,0.0,0.0,0.0,0.0,2.6386,2.6386,2.6386,2.6386,2.6386,2.6386,2.6386,2.6386,2.6386,0.0,0.0,0.0,0.0,0.0,0.0,0.0,0.9792,0.9792,0.9792,0.9792,0.9792,0.9792,0.9792,0.9792,0.9792,0.9792,0.0,0.0,0.0,0.0,0.0,0.0,0.0,0.0,0.9792,0.9792,0.9792,0.9792,0.9792,0.9792,0.9792,0.9792,0.9792,0.9792,0.0,0.0,0.0,0.0,0.0,0.0,0.0,1.2484,0.0,0.0,0.0,0.0,0.0,0.0,0.0,0.0,0.0,0.0,0.0,0.0,0.0,2.1109,2.1109,2.1109,2.1323,2.1649,2.1943,2.2205,2.2498,2.2827,2.2893,2.2893,2.2893,2.2893,2.2893,2.2893,2.2893,2.2934,2.302,2.3482,0.0,0.0,0.0,0.0,2.5438,0.0,0.0,0.0,2.6386,2.6386,0.0,0.0,0.0,2.6386,2.6386,2.6386,2.6386,2.6386,2.6386,2.6386,2.6386,2.6386,2.6386,2.6386,2.6386,2.6386,2.6386,2.6386,0.0,0.0,0.0,0.0,2.6386,2.6386,2.6386,2.6386,2.6386,2.6386,2.6386,2.6386,2.6386,0.0,0.0,0.0,0.0,0.0,0.0,0.0,0.9792,0.9792,0.9792,0.9792,0.9792,0.9792,0.9792,0.9792,0.9792,0.0,0.0,0.0,0.0,0.0,0.0,0.0,0.0,0.0,0.9792,0.9792,0.9792,0.9792,0.9792,0.9792,0.9792,0.9792,0.9792,0.9792,0.9792,0.0,0.0,0.0,0.0,1.1125,1.2134,0.0,0.0,0.0,0.0,0.0,0.0,0.0,0.0,0.0,0.0,0.0,0.0,0.0,0.0,0.0,0.0,0.0,2.1368,2.1676,2.1957,2.2218,2.2525,2.284,2.2893,0.0,2.2893,2.2893,2.2893,2.2893,2.2893,2.3,2.3273,2.3581,0.0,0.0,2.4452,0.0,0.0,2.6026,0.0,2.6386,2.6386,2.6386,0.0,0.0,0.0,2.6386,2.6386,2.6386,2.6386,2.6386,2.6386,2.6386,2.6386,2.6386,2.6386,2.6386,2.6386,2.6386,2.6386,2.6386,0.0,0.0,0.0,0.0,2.6386,2.6386,2.6386,2.6386,2.6386,2.6386,2.6386,2.6386,2.6386,0.0,0.0,0.0,0.0,0.0,0.0,0.0,0.0,0.0,0.0,0.9792,0.9792,0.9792,0.9792,0.9792,0.0,0.0,0.0,0.0,0.0,0.0,0.0,0.0,0.0,0.0,0.9792,0.9792,0.9792,0.9792,0.9792,0.9792,0.9792,0.9792,0.9792,0.9792,0.9792,0.0,0.0,0.0,0.0,1.1218,1.2445,0.0,0.0,0.0,0.0,1.7647,1.8451,0.0,0.0,0.0,0.0,0.0,0.0,0.0,0.0,2.1109,2.1109,2.1109,0.0,2.193,2.1964,2.2378,2.2813,0.0,2.2893,2.2893,2.2893,2.2893,2.2893,2.2893,2.2893,2.3,2.3273,0.0,2.391,2.4168,0.0,0.0,2.5491,2.6026,2.6386,2.6386,2.6386,2.6386,0.0,0.0,2.6386,2.6386,2.6386,2.6386,2.6386,2.6386,2.6386,2.6386,2.6386,2.6386,2.6386,2.6386,2.6386,2.6386,2.6386,2.6386,0.0,0.0,0.0,2.6386,2.6386,2.6386,2.6386,2.6386,2.6386,2.6386,2.6386,2.6386,2.6386,0.0,0.0,0.0,0.0,0.0,0.0,0.0,0.0,0.0,0.0,0.0,0.0,0.0,0.0,0.0,0.0,0.0,0.0,0.0,0.0,0.0,0.0,0.0,0.9792,0.9792,0.9792,0.9792,0.9792,0.9792,0.9792,0.9792,0.9792,0.9792,0.9792,0.9792,0.9792,0.0,0.0,0.0,0.0,1.1705,0.0,0.0,0.0,0.0,0.0,1.8334,1.8976,0.0,1.9966,2.0507,2.1109,0.0,0.0,0.0,0.0,2.1109,2.1109,2.1109,2.1537,2.1991,2.1991,2.2465,2.2893,2.2893,2.2893,2.2893,2.2893,2.2893,2.2893,2.2893,2.3014,2.318,0.0,2.3781,0.0,0.0,0.0,2.5558,2.5705,2.6119,2.6386,0.0,0.0,0.0,0.0,0.0,2.6386,2.6386,2.6386,2.6386,2.6386,2.6386,2.6386,2.6386,2.6386,2.6386,2.6386,2.6386,2.6386,2.6386,2.6386,2.6386,0.0,0.0,0.0,2.6386,2.6386,2.6386,2.6386,2.6386,2.6386,2.6386,2.6386,2.6386,2.6386,0.0,0.0,0.0,0.0,0.0,0.0,0.0,0.0,0.0,0.0,0.0,0.0,0.0,0.0,0.0,0.0,0.0,0.0,0.0,0.0,0.0,0.0,0.0,0.9792,0.9792,0.9792,0.9792,0.9792,0.9792,0.9792,0.9792,0.9792,0.9792,0.9792,0.9792,0.9792,0.0,0.0,0.0,0.0,1.2467,0.0,0.0,0.0,0.0,0.0,0.0,0.0,0.0,2.0412,2.0824,2.1109,2.1109,0.0,0.0,0.0,0.0,0.0,2.1109,2.1537,2.1991,2.1991,2.2465,2.2893,2.2893,2.2893,2.2893,2.2893,2.2893,2.2893,2.2893,2.3113,0.0,0.0,0.0,0.0,2.4997,2.5331,2.5625,2.5957,2.6252,0.0,2.6386,2.6386,0.0,0.0,0.0,2.6386,2.6386,2.6386,2.6386,2.6386,2.6386,2.6386,2.6386,2.6386,2.6386,2.6386,2.6386,2.6386,2.6386,2.6386,2.6386,2.6386,0.0,0.0,2.6386,2.6386,2.6386,2.6386,2.6386,2.6386,2.6386,2.6386,2.6386,2.6386,0.0,0.0,0.0,0.0,0.0,0.0,0.0,0.0,0.0,0.0,0.0,0.0,0.0,0.0,0.0,0.0,0.0,0.0,0.0,0.0,0.0,0.9792,0.9792,0.9792,0.9792,0.9792,0.9792,0.9792,0.9792,0.9792,0.9792,0.9792,0.9792,0.9792,0.9792,0.9792,0.9829,0.0,0.0,1.1596,1.3305,0.0,0.0,0.0,0.0,0.0,0.0,0.0,0.0,2.057,2.0824,2.1109,2.1109,0.0,0.0,0.0,0.0,0.0,2.1109,2.1537,2.1991,2.1991,2.2465,2.2893,2.2893,2.2893,2.2893,2.2893,2.2893,2.2893,2.2893,2.3113,2.342,0.0,0.0,2.4653,0.0,0.0,2.5625,2.5957,0.0,2.6386,2.6386,2.6386,0.0,0.0,0.0,2.6386,2.6386,2.6386,2.6386,2.6386,2.6386,2.6386,2.6386,2.6386,2.6386,2.6386,2.6386,2.6386,2.6386,2.6386,2.6386,2.6386,0.0,2.6386,2.6386,2.6386,2.6386,2.6386,2.6386,2.6386,2.6386,2.6386,2.6386,2.6386,0.0,0.0,0.0,0.0,0.0,0.0,0.0,0.0,0.0,0.0,0.0,0.0,0.0,0.0,0.0,0.0,0.0,0.0,0.0,0.0,0.0,0.9792,0.9792,0.9792,0.9792,0.9792,0.9792,0.9792,0.9792,0.9792,0.9792,0.9974,1.0186,1.0331,1.0156,1.0236,1.0535,1.0762,1.1455,1.2558,0.0,0.0,0.0,0.0,0.0,0.0,0.0,0.0,0.0,0.0,2.0982,2.1109,2.1109,0.0,0.0,0.0,0.0,0.0,2.1109,2.1537,2.1991,2.1991,2.2465,2.2893,2.2893,2.2893,2.2893,2.2893,2.2893,2.2947,2.3086,0.0,2.3714,2.4168,0.0,2.4759,2.5251,2.5424,2.5678,0.0,0.0,2.6386,2.6386,2.6386,0.0,0.0,0.0,0.0,2.6386,2.6386,2.6386,2.6386,2.6386,2.6386,2.6386,2.6386,2.6386,2.6386,2.6386,2.6386,2.6386,2.6386,2.6386,2.6386,0.0,2.6386,2.6386,2.6386,2.6386,2.6386,2.6386,2.6386,2.6386,2.6386,2.6386,2.6386,0.0,0.0,0.0,0.0,0.0,0.0,0.0,0.0,0.0,0.0,0.0,0.0,0.0,0.0,0.0,0.0,0.0,0.0,0.0,0.0,0.9792,0.9792,0.9792,0.9792,0.9792,0.9792,0.9792,0.9792,0.9792,0.9852,0.9913,1.0277,1.0543,1.0793,1.0587,1.0766,1.1232,1.1378,1.2123,1.3377,0.0,0.0,0.0,0.0,0.0,0.0,0.0,0.0,0.0,0.0,0.0,0.0,0.0,0.0,0.0,2.1109,2.1109,2.1109,2.1109,2.1537,2.1991,2.1991,2.2465,2.2893,2.2893,2.2893,2.2893,2.2893,2.2893,2.2987,2.3238,2.3621,0.0,2.4519,2.4653,2.4879,2.5438,2.5571,2.5812,0.0,0.0,2.6386,2.6386,0.0,0.0,0.0,0.0,0.0,2.6386,2.6386,2.6386,2.6386,2.6386,2.6386,2.6386,2.6386,2.6386,2.6386,2.6386,2.6386,2.6386,2.6386,2.6386,2.6386,2.6386,2.6386,2.6386,2.6386,2.6386,2.6386,2.6386,2.6386,2.6386,2.6386,2.6386,2.6386,0.0,0.0,0.0,0.0,0.0,0.0,0.0,0.0,0.0,0.0,0.0,0.0,0.0,0.0,0.0,0.0,0.0,0.0,0.0,0.0,0.9792,0.9792,0.9792,0.9792,0.9792,0.9792,0.9792,0.9792,0.9792,0.9974,1.0277,1.0611,1.0785,1.08,1.0987,1.1248,1.1588,1.2226,1.2925,1.3781,1.5313,0.0,0.0,0.0,0.0,0.0,0.0,0.0,0.0,0.0,0.0,0.0,0.0,0.0,2.1109,2.1109,2.1109,2.1109,2.1109,2.1537,2.1991,2.1991,2.2465,2.2893,2.2893,2.2893,2.2893,2.2893,0.0,0.0,0.0,2.3794,2.4275,2.4546,2.4863,2.5157,2.5464,0.0,2.6078,0.0,0.0,0.0,0.0,0.0,0.0,0.0,0.0,0.0,2.6386,2.6386,2.6386,2.6386,2.6386,2.6386,2.6386,2.6386,2.6386,2.6386,2.6386,2.6386,2.6386,2.6386,2.6386,2.6386,2.6386,2.6386,2.6386,2.6386,2.6386,2.6386,2.6386,2.6386,2.6386,2.6386,2.6386,2.6386,0.0,0.0,0.0,0.0,0.0,0.0,0.0,0.0,0.0,0.0,0.0,0.0,0.0,0.0,0.0,0.0,0.0,0.0,0.0,0.9792,0.9792,0.9792,0.9792,0.9792,0.9792,0.9792,0.9913,1.0126,1.0513,1.0906,1.1239,1.1541,1.1847,1.2145,1.2065,1.2345,1.2853,1.3157,1.3729,1.4568,1.5814,1.6785,0.0,0.0,0.0,0.0,0.0,0.0,0.0,0.0,2.1109,2.1109,2.1109,2.1109,2.1109,2.1109,2.1109,2.1149,2.1336,2.1716,2.2031,2.2205,2.2599,2.2893,2.2893,2.2893,2.2893,2.2893,2.302,0.0,0.0,0.0,2.4479,2.4586,2.489,2.5184,2.5478,2.581,2.6105,2.636,0.0,0.0,0.0,0.0,0.0,0.0,0.0,0.0,2.6386,2.6386,2.6386,2.6386,2.6386,2.6386,2.6386,2.6386,2.6386,2.6386,2.6386,2.6386,2.6386,2.6386,2.6386,2.6386,2.6386,2.6386,2.6386,2.6386,2.6386,2.6386,2.6386,2.6386,2.6386,2.6386,2.6386,2.6386,0.0,0.0,0.0,0.0,0.0,0.0,0.0,0.0,0.0,0.0,0.0,0.0,0.0,0.0,0.0,0.0,0.0,0.0,0.9792,0.9792,0.9792,0.9792,0.9792,0.9852,0.9943,0.9974,1.0065,1.0308,1.1088,1.1631,1.1933,1.2302,1.2638,1.2992,1.2928,1.3221,1.3763,1.3858,1.4289,1.4964,1.5941,1.6753,0.0,0.0,0.0,0.0,0.0,0.0,0.0,0.0,2.1109,2.1109,2.1109,2.1109,2.1109,2.1109,2.1176,2.1296,2.1529,2.1863,2.2164,2.2331,2.2645,2.2893,2.2893,2.2893,2.292,2.3027,2.3327,2.3728,2.4128,0.0,0.0,0.0,2.5024,2.5317,2.5611,2.5944,2.6198,2.636,0.0,0.0,0.0,0.0,0.0,0.0,0.0,0.0,0.0,2.6386,2.6386,2.6386,2.6386,2.6386,2.6386,2.6386,2.6386,2.6386,2.6386,2.6386,2.6386,2.6386,2.6386,2.6386,2.6386,2.6386,2.6386,2.6386,2.6386,2.6386,2.6386,2.6386,2.6386,2.6386,2.6386,2.6386,0.0,0.0,0.0,0.0,0.0,0.0,0.0,0.0,0.0,0.0,0.0,0.0,0.0,0.0,0.0,0.0,0.0,0.0,0.9792,0.9792,0.9792,0.9792,0.9792,0.9974,1.0308,1.0308,1.0308,1.0308,1.1337,1.1941,1.2212,1.2773,1.3023,1.304,1.3427,1.3795,1.4134,1.4326,1.4604,1.4964,1.5714,1.6429,1.7163,0.0,0.0,0.0,0.0,0.0,0.0,0.0,2.1109,2.1109,2.1109,2.1109,2.1109,2.1122,2.1323,2.1582,2.1628,2.201,2.2385,2.2385,2.2645,2.2893,2.2893,2.2893,2.2987,2.326,2.3794,2.4209,2.4209,2.4399,0.0,2.5037,2.5331,2.5611,2.5957,2.6238,2.6386,2.6386,2.6386,0.0,0.0,0.0,0.0,0.0,0.0,0.0,0.0,2.6386,2.6386,2.6386,2.6386,2.6386,2.6386,2.6386,2.6386,2.6386,2.6386,2.6386,2.6386,2.6386,2.6386,2.6386,2.6386,2.6386,2.6386,2.6386,2.6386,2.6386,2.6386,2.6386,2.6386,2.6386,2.6386,2.6386,0.0,0.0,0.0,0.0,0.0,0.0,0.0,0.0,0.0,0.0,0.0,0.0,0.0,0.0,0.0,0.0,0.0,0.0,0.9792,0.9792,0.9913,1.0156,1.0156,1.0429,1.0997,1.1239,1.136,1.136,1.2333,1.2915,1.3118,1.3518,1.3856,1.4133,1.4253,1.4447,1.4684,1.474,1.4964,1.5365,1.6071,1.6753,1.7497,0.0,0.0,0.0,0.0,0.0,0.0,0.0,0.0,0.0,2.1395,2.1448,2.1502,2.167,2.179,2.193,2.2111,2.2285,2.2472,2.2672,2.2827,2.2893,2.2893,2.2893,2.3041,2.3527,2.3941,2.4262,2.4439,2.4546,0.0,2.5037,2.5331,2.5611,2.5957,2.6238,2.6386,2.6386,2.6386,0.0,0.0,0.0,0.0,0.0,0.0,0.0,0.0,2.6386,2.6386,2.6386,2.6386,2.6386,2.6386,2.6386,2.6386,2.6386,2.6386,2.6386,2.6386,2.6386,2.6386,2.6386,2.6386,2.6386,2.6386,2.6386,2.6386,2.6386,2.6386,2.6386,2.6386,2.6386,2.6386,2.6386,0.0,0.0,0.0,0.0,0.0,0.0,0.0,0.0,0.0,0.0,1.0004,1.0065,0.0,0.0,0.0,0.0,0.0,0.0,0.0,0.9913,1.0156,1.0482,1.0634,1.0997,1.1631,1.2189,1.2474,1.2474,1.2777,1.3113,1.3514,1.3865,1.4235,1.4606,1.4682,1.4883,1.5137,1.5137,1.5365,1.5756,1.6429,1.7012,1.7658,0.0,0.0,0.0,0.0,0.0,0.0,0.0,0.0,0.0,2.1703,2.1756,2.1796,2.1937,2.2071,2.2191,2.2378,2.2498,2.2632,2.2853,2.2893,2.2934,2.302,2.3174,2.3388,0.0,2.4168,2.4422,2.4572,2.4599,0.0,2.5184,2.5398,2.5651,2.6105,2.6319,2.6386,2.6386,2.6386,0.0,0.0,0.0,0.0,0.0,0.0,0.0,0.0,2.6386,2.6386,2.6386,2.6386,2.6386,2.6386,2.6386,2.6386,2.6386,2.6386,2.6386,2.6386,2.6386,2.6386,2.6386,2.6386,2.6386,2.6386,2.6386,2.6386,2.6386,2.6386,2.6386,2.6386,2.6386,2.6386,2.6386,0.0,0.0,0.9792,0.9792,0.0,0.0,0.0,0.0,0.0,0.0,1.0308,1.0422,0.0,0.0,0.0,0.0,0.0,0.0,0.0,0.0,1.0459,1.0815,1.1239,1.173,1.232,1.3079,1.3523,1.3542,1.2956,1.2996,1.3609,1.4006,1.4382,1.4699,1.492,1.5202,1.5561,1.5561,1.5756,1.6104,1.6775,1.7249,1.7724,1.914,0.0,0.0,0.0,0.0,0.0,0.0,0.0,0.0,2.2017,2.2031,2.2031,2.2058,2.2258,2.2458,2.2458,2.2659,2.2893,2.2893,2.2893,2.2987,2.3287,2.3581,2.3884,2.4142,0.0,2.4599,2.4599,2.4599,2.4786,2.5411,2.5518,2.5718,0.0,2.6386,2.6386,2.6386,2.6386,0.0,0.0,0.0,0.0,0.0,0.0,0.0,0.0,2.6386,2.6386,2.6386,2.6386,2.6386,2.6386,2.6386,2.6386,2.6386,2.6386,2.6386,2.6386,2.6386,2.6386,2.6386,2.6386,2.6386,2.6386,2.6386,2.6386,2.6386,2.6386,2.6386,2.6386,2.6386,2.6386,2.6386,0.0,0.0,0.9792,0.9792,0.0,0.0,0.0,0.0,0.0,0.0,0.0,0.0,0.0,0.0,0.0,0.0,0.0,0.0,0.0,0.0,1.0581,1.1186,1.2212,1.2915,1.3197,1.3404,1.3587,1.3742,1.3836,1.4075,1.437,1.4709,1.5035,1.5339,1.5629,1.5811,1.5876,1.5876,1.6071,1.6461,1.7109,1.7705,1.8363,1.9776,2.0466,0.0,0.0,0.0,0.0,0.0,0.0,0.0,2.2258,2.2325,2.2378,2.2639,2.276,2.28,2.28,2.2853,2.2893,2.2893,2.2893,2.3041,2.3589,2.3763,2.3884,2.4142,2.4399,2.4599,2.4599,2.4599,2.4786,2.5411,2.5518,2.5718,2.6306,2.6386,2.6386,2.6386,0.0,0.0,0.0,0.0,0.0,0.0,0.0,0.0,2.6386,2.6386,2.6386,2.6386,2.6386,2.6386,2.6386,2.6386,2.6386,0.0,2.6386,2.6386,2.6386,2.6386,2.6386,2.6386,2.6386,2.6386,2.6386,2.6386,2.6386,2.6386,2.6386,2.6386,2.6386,2.6386,2.6386,2.6386,0.0,0.0,0.0,0.0,0.0,0.0,0.0,0.0,0.0,0.0,0.0,0.0,0.0,0.0,0.0,0.0,0.0,0.0,0.0,0.0,1.1187,1.2065,1.2895,1.3512,1.3868,1.397,1.4072,1.4174,1.4658,1.4811,1.4661,1.4884,1.5281,1.5756,1.5909,1.6169,1.6494,1.6494,1.6753,1.7282,1.7955,1.8405,1.8827,2.0174,2.0773,2.1012,2.1872,0.0,0.0,0.0,0.0,0.0,0.0,0.0,2.2659,2.2853,2.2893,2.2893,2.2893,2.2893,2.2893,2.2893,2.2893,2.3054,2.3669,2.3803,2.3888,2.4329,2.4492,2.4599,2.4599,2.4599,2.4786,2.5411,2.5518,2.5718,2.6306,2.6386,2.6386,2.6386,0.0,0.0,0.0,0.0,0.0,0.0,0.0,2.6386,2.6386,2.6386,2.6386,2.6386,2.6386,2.6386,2.6386,2.6386,2.6386,2.6386,2.6386,2.6386,2.6386,2.6386,2.6386,2.6386,2.6386,2.6386,2.6386,2.6386,2.6386,2.6386,2.6386,2.6386,2.6386,2.6386,2.6386,2.6413,0.0,0.0,0.0,0.0,0.0,0.0,0.0,0.0,0.0,0.0,0.0,0.0,0.0,0.0,0.0,0.0,0.0,0.0,0.0,0.0,0.0,1.2903,1.3221,1.366,1.4238,1.4416,1.4551,1.4653,1.5213,1.531,1.4933,1.5171,1.5551,1.6104,1.6266,1.6623,1.7109,1.7217,1.7552,1.8125,1.8813,1.9107,1.9276,0.0,0.0,0.0,2.2136,2.2498,2.2539,2.2813,0.0,0.0,0.0,0.0,2.2893,2.2893,2.2893,2.2893,2.2893,2.2893,2.2893,2.2893,2.2934,2.3121,2.3683,2.3843,2.3995,2.4492,2.4599,2.4599,2.4599,2.4599,2.4786,2.5411,2.5518,2.5718,2.6306,2.6386,2.6386,2.6386,0.0,0.0,0.0,0.0,0.0,0.0,0.0,2.6386,2.6386,2.6386,2.6386,2.6386,2.6386,2.6386,2.6386,2.6386,2.6386,2.6386,2.6386,2.6386,2.6386,2.6386,2.6386,2.6386,2.6386,2.6386,2.6386,2.6386,2.6386,2.6386,2.6386,2.6386,2.6386,2.6386,2.6347,2.6308,0.0,0.0,0.0,0.0,0.0,0.0,0.0,0.0,0.0,0.0,1.0368,1.052,0.0,1.0581,1.0482,1.0762,1.0482,1.0429,1.0702,0.0,0.0,1.2798,1.2821,1.3221,1.4102,1.4139,1.4392,1.4861,1.529,0.0,0.0,0.0,0.0,1.6461,1.7324,1.7626,1.7487,1.7991,1.8245,1.8399,1.9082,1.9484,0.0,0.0,0.0,0.0,0.0,0.0,2.284,2.288,2.2893,0.0,0.0,0.0,2.2893,2.2893,2.2893,2.2893,2.2893,2.2893,2.2893,2.2893,2.306,2.3354,2.3723,2.3968,2.4235,0.0,2.4599,2.4599,2.4599,2.4599,2.4786,2.5411,2.5518,2.5718,2.6306,2.6386,2.6386,2.6386,0.0,0.0,0.0,0.0,0.0,0.0,2.6386,2.6386,2.6386,2.6386,2.6386,2.6386,2.6386,2.6386,2.6386,2.6386,2.6386,2.6386,2.6386,2.6386,2.6386,2.6386,2.6386,2.6386,2.6386,2.6386,2.6386,2.6386,2.6386,2.6386,2.6386,2.6386,2.6386,2.6386,2.6188,2.5911,0.0,0.0,0.0,0.0,0.0,0.0,0.0,0.0,0.0,0.0,0.0,1.0422,1.0762,1.049,1.0422,1.0762,1.0783,1.1087,1.1859,1.2094,1.2538,1.3207,1.3048,1.3366,1.4239,1.428,1.4586,1.5234,0.0,0.0,0.0,1.698,1.7206,0.0,0.0,0.0,1.862,1.8704,1.9041,1.9525,1.9788,2.0091,0.0,0.0,0.0,0.0,0.0,0.0,0.0,0.0,0.0,2.2893,2.2893,0.0,0.0,0.0,2.2893,2.2893,2.2893,2.2893,2.2893,2.2893,2.31,2.3407,2.3701,2.3995,2.4289,2.4532,2.4599,2.4599,2.4599,2.4599,2.4786,2.5411,2.5518,2.5718,2.6306,2.6386,2.6386,2.6386,2.6386,0.0,0.0,0.0,0.0,0.0,2.6386,2.6386,2.6386,2.6386,2.6386,2.6386,2.6386,2.6386,2.6386,2.6386,2.6386,2.6386,2.6386,2.6386,2.6386,2.6386,2.6386,2.6386,2.6386,2.6386,2.6386,2.6386,2.6386,2.6386,2.6149,2.607,2.599,2.5502,2.5224,2.5088,0.0,0.0,0.0,0.0,0.0,0.0,0.0,0.0,0.0,0.0,0.0,1.0277,1.052,0.0,0.0,0.0,1.104,1.1611,1.2661,1.2638,1.2857,1.3373,1.3091,1.3345,1.4235,1.4375,1.4768,1.5495,0.0,0.0,1.6504,1.7109,1.7433,0.0,1.7791,1.8446,0.0,0.0,0.0,0.0,0.0,0.0,0.0,0.0,0.0,0.0,0.0,0.0,0.0,0.0,0.0,0.0,0.0,0.0,0.0,0.0,0.0,2.2893,2.2893,2.2893,2.2893,2.2893,2.3153,2.35,2.375,2.4048,2.4382,0.0,2.4599,2.4599,2.4599,2.4599,2.4786,2.5411,2.5518,2.5718,2.6306,2.6386,2.6386,2.6386,2.6386,0.0,0.0,0.0,0.0,0.0,2.6386,2.6386,2.6386,2.6386,2.6386,2.6386,2.6386,2.6386,2.6386,2.6386,2.6386,2.6386,2.6307,2.6268,2.6228,2.6109,2.607,2.607,2.6188,2.6268,2.6228,2.603,2.5911,2.5872,2.5462,2.5224,2.5065,2.4427,2.3984,2.3743,0.0,0.0,0.0,0.0,0.0,0.0,0.0,0.0,0.0,0.0,0.0,0.9822,0.9852,0.9951,1.0318,1.1031,1.1212,1.167,1.254,1.2258,1.2272,1.2816,1.2528,0.0,1.3908,1.4235,1.4768,0.0,0.0,0.0,1.6504,1.685,1.7326,1.7906,1.8607,1.898,1.908,0.0,0.0,0.0,0.0,0.0,0.0,0.0,0.0,0.0,0.0,0.0,0.0,0.0,0.0,0.0,0.0,0.0,0.0,0.0,0.0,0.0,2.2893,2.2893,2.2893,2.2893,2.3348,2.379,2.3803,2.4209,2.4586,2.4599,2.4599,2.4599,2.4599,2.4599,2.4786,2.5411,2.5518,2.5718,2.6306,2.6386,2.6386,2.6386,2.6386,2.6386,0.0,0.0,0.0,0.0,2.6386,2.6386,2.6386,2.6386,2.6386,2.6386,2.6386,2.6386,2.6386,2.6386,2.6386,2.6386,2.603,2.5832,2.5832,2.5368,2.517,2.5209,2.5634,2.5832,2.5753,2.4945,2.4587,2.4547,2.4096,2.3656,2.3336,2.3296,2.2601,2.1681,0.0,0.0,0.0,0.0,0.0,0.0,0.0,0.0,0.0,0.0,0.0,0.0,0.0,1.0168,1.0384,1.0857,1.167,1.229,1.2694,1.2841,1.2964,1.3169,1.2807,1.2931,1.3564,1.3916,0.0,0.0,0.0,1.6381,1.6746,1.6844,1.7191,1.7783,1.8127,1.887,1.9834,1.964,0.0,0.0,0.0,0.0,0.0,0.0,0.0,0.0,0.0,0.0,0.0,0.0,0.0,0.0,0.0,0.0,0.0,0.0,0.0,2.2893,2.2893,2.2893,2.2893,2.2893,2.3348,2.3803,2.3803,2.4222,2.4599,2.4599,2.4599,2.4599,2.4599,2.4599,2.4786,2.5411,2.5518,2.5718,2.6306,2.6386,2.6386,2.6386,2.6386,2.6386,0.0,0.0,0.0,0.0,0.0,2.6386,2.6386,2.6386,2.6386,2.6386,2.6386,2.6386,2.6386,2.6386,2.6268,2.603,2.5541,2.5224,2.4945,2.4467,2.4268,2.4228,2.3856,2.4016,2.4455,2.3896,2.3496,2.3135,2.2413,2.205,2.1768,2.0667,2.0079,1.9763,0.0,0.0,0.0,0.0,0.0,0.9886,0.0,0.0,0.0,0.0,0.0,0.0,0.0,0.0,1.0532,1.0902,1.178,1.2384,1.247,1.2708,1.2873,1.2873,1.2708,1.2807,1.3202,1.3654,0.0,0.0,0.0,0.0,0.0,1.6676,1.6977,1.7467,1.7545,1.8395,0.0,0.0,0.0,2.0492,0.0,0.0,2.0943,0.0,0.0,0.0,0.0,0.0,0.0,0.0,0.0,0.0,0.0,0.0,0.0,0.0,0.0,0.0,2.2893,2.2893,2.2893,2.2893,2.3348,2.3803,2.3803,2.4222,2.4599,2.4599,2.4599,2.4599,2.4599,2.4599,2.4759,2.5291,2.5451,2.5678,2.6172,2.6333,2.6386,2.6386,2.6386,2.6386,2.6386,0.0,0.0,0.0,0.0,0.0,2.6386,2.6386,2.6386,2.6386,2.6268,2.6188,2.6188,2.5911,2.5634,2.5343,2.4574,2.4016,2.3616,2.3015,2.2654,2.2441,2.1757,2.2079,2.3095,2.224,2.1596,2.1111,2.0221,1.9815,1.9551,1.8434,1.7971,1.7834,0.0,0.9805,0.9852,1.0001,1.0028,1.0076,1.0256,0.0,0.0,0.0,0.0,0.0,0.0,0.0,0.0,1.1134,1.1545,1.1776,1.1776,1.1776,1.181,1.181,1.2114,1.2444,1.2782,0.0,0.0,0.0,0.0,0.0,0.0,0.0,1.6704,1.696,1.696,1.7548,1.8581,0.0,1.9413,2.0075,0.0,2.0527,2.1207,0.0,0.0,0.0,2.2756,2.2893,0.0,0.0,0.0,0.0,0.0,0.0,0.0,0.0,0.0,0.0,0.0,0.0,0.0,2.2893,2.3348,2.3803,2.3803,2.4222,2.4599,2.4599,2.4599,2.4599,2.4599,2.4599,2.4693,2.5024,2.5304,2.5611,2.5957,2.6238,2.6373,2.6386,2.6386,2.6386,2.6386,0.0,0.0,0.0,2.6386,2.6386,2.6386,2.6386,2.6386,2.6386,2.599,2.5753,2.5753,2.4905,2.4427,2.4387,2.3055,2.2211,2.1768,2.0931,2.0272,1.9815,1.9409,2.018,2.1607,1.9947,1.8971,1.8441,1.7583,1.7018,1.6674,1.6768,1.6405,1.5876,1.0154,1.0154,1.0168,1.0209,1.0215,1.0229,1.0308,0.0,0.0,0.0,0.0,0.0,0.0,0.0,1.071,1.0817,1.1148,1.138,1.138,1.1644,1.181,1.181,1.1876,1.2035,1.2224,0.0,0.0,0.0,0.0,0.0,0.0,0.0,0.0,0.0,1.6129,1.6621,1.7708,1.8296,0.0,0.0,2.0005,2.0214,0.0,0.0,0.0,0.0,0.0,2.2893,0.0,0.0,2.2893,2.2893,0.0,0.0,0.0,0.0,0.0,0.0,2.2893,0.0,0.0,0.0,0.0,0.0,2.3803,2.4222,2.4599,2.4599,2.4599,2.4599,2.4599,2.4599,2.4626,2.4706,2.501,2.5422,2.5917,2.6065,2.6198,2.636,2.6386,2.6386,2.6386,2.6386,0.0,0.0,2.6386,2.6386,2.6386,2.6109,2.599,2.599,2.5263,2.4706,2.4375,2.3816,2.3055,2.2091,2.1445,2.0556,1.95,1.8981,1.8441,1.7983,1.7583,1.7501,1.7656,1.7787,1.7419,1.6681,1.6114,1.5867,1.5685,1.5192,1.4979,1.485,1.0315,1.0315,1.0329,1.0358,1.0371,1.0392,0.0,0.0,0.0,0.0,0.0,0.0,0.0,0.0,0.0,1.0684,1.0883,1.0982,1.0982,1.1245,1.1421,1.1421,1.1646,1.1794,0.0,0.0,0.0,0.0,0.0,0.0,0.0,0.0,0.0,0.0,1.5709,1.631,0.0,0.0,0.0,0.0,2.0214,0.0,0.0,2.1691,2.2001,0.0,0.0,0.0,2.2893,2.2893,2.2893,0.0,0.0,0.0,0.0,0.0,0.0,0.0,0.0,0.0,0.0,0.0,0.0,0.0,2.3803,2.4222,2.4599,2.4599,2.4599,2.4599,2.4599,2.4599,2.4599,2.4599,2.4746,2.5104,2.573,2.5917,2.6105,2.636,2.6386,2.6386,2.6386,2.6386,2.6386,2.6386,2.6386,2.6386,2.6386,2.603,2.5713,2.5502,2.4295,2.3456,2.3015,2.1838,2.0869,2.011,1.9338,1.8441,1.7501,1.71,1.6648,1.6188,1.5991,1.562,1.5249,1.5744,1.5661,1.5167,1.4721,1.46,1.4597,1.4245,1.4195,1.4305,0.0,1.0331,1.0371,1.0493,1.0514,1.0561,0.0,0.0,0.0,0.0,0.0,0.0,0.0,0.0,0.0,0.0,1.0725,1.0772,1.0772,1.086,0.0,0.0,0.0,0.0,0.0,0.0,0.0,0.0,0.0,0.0,0.0,0.0,0.0,0.0,1.5461,1.6346,1.7791,0.0,0.0,2.0144,2.0527,2.1081,0.0,0.0,2.2242,0.0,2.2756,2.2893,2.2893,2.2893,2.2893,0.0,0.0,0.0,0.0,0.0,2.2893,0.0,0.0,0.0,0.0,0.0,0.0,0.0,2.3843,2.4249,2.4599,2.4599,2.4599,2.4599,2.4599,2.4599,2.4599,2.4599,2.4599,2.4786,2.5384,2.5757,2.6051,2.6306,2.6373,2.6386,2.6386,2.6386,2.6386,2.6386,2.6386,2.6386,2.6386,2.5911,2.5422,2.4985,2.3175,2.201,2.1526,1.946,1.8318,1.8237,1.71,1.6279,1.5785,1.5422,1.501,1.4548,1.4548,1.4349,1.4025,1.4025,1.4025,1.3983,1.3569,1.3492,1.3605,1.3747,1.3939,1.4139,1.0636,1.0636,1.0643,1.067,1.0677,0.0,0.0,0.0,0.0,0.0,0.0,0.0,0.0,0.0,0.0,0.0,1.1009,1.1111,1.1111,1.1138,0.0,0.0,0.0,0.0,0.0,0.0,0.0,0.0,0.0,0.0,0.0,0.0,0.0,0.0,1.4581,1.5532,1.6981,0.0,0.0,2.0144,2.0527,0.0,2.0977,2.1656,2.1897,2.2001,2.2654,2.2893,2.2893,0.0,2.2893,2.2893,0.0,0.0,0.0,0.0,0.0,0.0,0.0,0.0,0.0,0.0,0.0,0.0,2.4062,2.4382,2.4599,2.4599,2.4599,2.4599,2.4599,2.4599,2.4599,2.4599,2.4599,2.4719,2.5117,2.5411,2.5705,2.6051,2.6292,2.6386,2.6386,2.6386,2.6386,2.6386,2.6386,2.6386,2.6386,2.5343,2.4547,2.4056,2.1677,2.0018,1.9256,1.7796,1.6731,1.6032,1.5752,1.5257,1.448,1.4397,1.4108,1.3645,1.3645,1.3611,1.3528,1.3528,1.3528,1.3528,1.3445,1.3492,1.3605,1.3747,1.3939,1.4139,1.0684,1.0684,1.0684,1.0684,0.0,0.0,0.0,0.0,0.0,0.0,0.0,0.0,0.0,0.0,0.0,0.0,0.0,0.0,0.0,0.0,0.0,0.0,0.0,0.0,0.0,0.0,0.0,0.0,0.0,0.0,0.0,0.0,0.0,0.0,0.0,0.0,0.0,0.0,1.8457,1.9901,2.0457,0.0,2.1323,2.1829,2.216,2.2358,2.2913,2.3228,2.3348,2.3348,2.3348,0.0,0.0,2.3348,2.3348,0.0,2.3348,2.3348,0.0,0.0,0.0,2.3514,0.0,0.0,0.0,2.4422,2.4599,2.4599,2.4599,2.4599,2.4599,2.4599,2.4599,2.4599,2.4599,2.4653,2.4836,2.5104,2.5464,2.5944,2.6131,2.6265,2.6373,2.6386,2.6307,2.6109,2.6109,2.599,2.5753,2.4719,2.3828,2.3175,2.0626,1.8839,1.7951,1.6279,1.5175,1.4769,1.4514,1.4183,1.3735,1.3735,1.3611,1.3403,1.3403,1.3403,1.3403,1.3403,1.3403,1.341,1.3485,1.3565,1.3707,1.3899,1.4055,1.4197,1.0698,1.0684,1.0684,1.0684,0.0,0.0,0.0,0.0,0.0,0.0,0.0,0.0,0.0,0.0,0.0,0.0,0.0,0.0,0.0,0.0,0.0,0.0,0.0,1.1584,0.0,0.0,0.0,0.0,0.0,0.0,0.0,0.0,0.0,0.0,0.0,0.0,0.0,0.0,0.0,1.9516,0.0,2.0995,2.1606,2.2073,2.2449,2.2832,2.3231,2.3567,2.3803,2.3803,0.0,2.3803,2.3803,2.3803,0.0,0.0,0.0,0.0,0.0,0.0,0.0,0.0,0.0,2.4222,0.0,0.0,0.0,2.4599,2.4599,0.0,0.0,0.0,0.0,0.0,0.0,0.0,0.0,2.4836,0.0,2.5837,2.5957,2.6118,2.636,2.6347,2.6109,2.5713,2.5581,2.5356,2.4878,2.396,2.3027,2.2171,1.9622,1.7828,1.6927,1.4968,1.3983,1.3942,1.3569,1.3403,1.3403,1.3403,1.3403,1.3403,1.3403,1.3403,1.3403,1.3403,1.3417,1.3458,1.3538,1.3673,1.3815,1.4014,1.417,1.4299,1.0772,1.0684,1.0684,1.0684,0.0,0.0,0.0,0.0,0.0,0.0,0.0,0.0,0.0,0.0,0.0,0.0,0.0,0.0,1.1565,0.0,0.0,0.0,0.0,0.0,1.1584,0.0,0.0,0.0,0.0,0.0,0.0,0.0,0.0,0.0,1.3082,0.0,0.0,0.0,1.7817,0.0,1.9944,2.0471,0.0,2.1697,2.2273,2.2716,2.3465,2.3777,2.3803,0.0,2.3803,2.3803,0.0,2.3803,0.0,0.0,0.0,0.0,0.0,0.0,0.0,0.0,2.4182,0.0,0.0,0.0,2.4599,2.4599,0.0,0.0,0.0,0.0,0.0,0.0,0.0,0.0,2.4599,2.4626,2.4866,2.5491,2.5837,2.6118,2.636,2.607,2.5673,2.5224,2.4866,2.4427,2.3976,2.2774,2.1728,2.085,1.8278,1.6484,1.5628,1.4183,1.3486,1.3486,1.3445,1.3403,1.3403,1.3403,1.3403,1.3403,1.3403,1.3403,1.3403,1.3403,1.3485,1.3565,1.3578,1.3673,1.3815,1.4014,1.417,1.4299,1.1036,1.0975,1.0975,1.0975,0.0,0.0,0.0,0.0,0.0,0.0,0.0,0.0,0.0,0.0,0.0,0.0,0.0,1.1584,0.0,0.0,0.0,0.0,0.0,0.0,0.0,0.0,0.0,0.0,1.1584,0.0,0.0,0.0,0.0,0.0,1.276,0.0,1.4914,0.0,1.6991,0.0,0.0,0.0,0.0,2.1834,2.2857,2.3602,2.41,2.4275,2.4275,0.0,2.4275,0.0,0.0,0.0,0.0,0.0,0.0,0.0,0.0,0.0,0.0,0.0,0.0,0.0,0.0,0.0,2.4599,0.0,0.0,0.0,0.0,0.0,0.0,0.0,2.4599,0.0,0.0,0.0,2.4759,0.0,0.0,0.0,2.6346,2.603,2.5382,2.4415,2.3736,2.2935,2.201,2.096,2.011,1.951,1.7419,1.5991,1.5422,1.4059,1.3403,1.3403,1.3403,1.3403,1.3403,1.3403,1.3403,1.3403,1.3403,1.3403,1.3403,1.3403,1.3492,1.3599,1.368,1.3802,1.3994,1.415,1.4245,1.4299,1.1322,0.0,0.0,0.0,0.0,0.0,0.0,0.0,0.0,0.0,0.0,0.0,1.1606,1.1584,0.0,0.0,0.0,1.1584,0.0,0.0,1.1584,0.0,0.0,0.0,0.0,0.0,0.0,0.0,0.0,0.0,0.0,0.0,0.0,0.0,0.0,1.3317,1.4347,0.0,0.0,1.7183,1.8458,1.9671,2.0826,2.2262,2.344,2.4356,2.4519,2.4599,2.4599,2.4599,2.4599,0.0,2.4599,0.0,0.0,0.0,0.0,0.0,2.4599,0.0,0.0,0.0,0.0,0.0,0.0,0.0,0.0,0.0,0.0,0.0,0.0,0.0,0.0,0.0,0.0,2.4599,0.0,2.4599,0.0,0.0,0.0,0.0,0.0,2.578,2.4945,2.3736,2.2482,2.1273,2.016,1.9134,1.84,1.7951,1.6435,1.5456,1.5051,1.3935,1.3403,1.3403,1.3403,1.3403,1.3403,1.3403,1.3403,1.3403,1.3403,1.3403,1.3403,1.3444,1.3511,1.366,1.3802,1.4,1.4193,1.4258,1.4299,1.4299,1.1606,1.1369,0.0,0.0,0.0,0.0,0.0,0.0,0.0,0.0,0.0,0.0,0.0,0.0,0.0,0.0,0.0,1.1584,1.1584,0.0,1.1584,0.0,0.0,0.0,0.0,0.0,0.0,0.0,0.0,0.0,0.0,0.0,0.0,0.0,0.0,1.2866,1.3334,1.4715,1.5803,1.6693,1.8456,2.036,2.2235,0.0,2.387,2.4586,2.4599,0.0,0.0,2.4599,2.4599,0.0,0.0,0.0,0.0,0.0,0.0,0.0,0.0,0.0,0.0,2.4599,0.0,0.0,0.0,0.0,2.4599,0.0,0.0,0.0,0.0,0.0,0.0,0.0,0.0,0.0,0.0,0.0,0.0,0.0,0.0,0.0,0.0,2.511,2.4175,2.3296,2.1233,1.9612,1.8818,1.751,1.6566,1.6106,1.5208,1.4555,1.4149,1.3652,1.3403,1.3403,1.3403,1.3403,1.3403,1.3403,1.3403,1.3403,1.3403,1.3403,1.341,1.3559,1.366,1.3808,1.4007,1.4156,1.4292,1.4299,1.4299,1.4299,1.1584,0.0,0.0,0.0,0.0,0.0,0.0,1.1584,0.0,0.0,0.0,0.0,0.0,0.0,1.1719,0.0,0.0,1.1948,1.1948,1.1948,0.0,0.0,0.0,1.1948,0.0,0.0,0.0,0.0,0.0,0.0,0.0,0.0,0.0,0.0,0.0,1.2751,0.0,0.0,0.0,0.0,0.0,1.9535,2.1049,0.0,0.0,2.423,2.4488,2.4599,0.0,2.4599,2.4599,2.4599,2.4599,2.4599,2.4599,2.4599,2.4599,0.0,0.0,0.0,2.4599,2.4599,0.0,0.0,0.0,0.0,0.0,0.0,0.0,0.0,0.0,0.0,0.0,0.0,0.0,0.0,0.0,0.0,0.0,0.0,0.0,0.0,0.0,0.0,0.0,2.2453,2.0586,1.889,1.7469,1.6402,1.562,1.5167,1.4597,1.4232,1.4108,1.3611,1.3403,1.3403,1.3403,1.3403,1.3403,1.3403,1.3403,1.3403,1.3403,1.3403,1.341,1.3524,1.3666,1.3815,1.4014,1.4163,1.4299,1.4299,1.4299,1.4299,1.1775,0.0,0.0,0.0,0.0,0.0,0.0,0.0,0.0,0.0,1.1775,0.0,1.1775,0.0,1.1911,0.0,1.2043,1.2098,1.2098,1.2098,0.0,1.2098,1.2098,0.0,0.0,0.0,0.0,0.0,0.0,1.2098,1.2098,1.2159,0.0,0.0,0.0,1.265,1.281,1.3466,1.4091,0.0,0.0,1.8601,0.0,0.0,2.3091,2.3919,0.0,2.4719,2.4719,2.4869,2.4906,2.4906,2.4906,2.4906,2.4906,2.4906,2.4906,2.4893,2.4786,2.4796,0.0,2.4626,2.4599,0.0,2.4599,0.0,0.0,0.0,0.0,0.0,0.0,0.0,0.0,0.0,0.0,0.0,0.0,2.4599,0.0,0.0,0.0,0.0,0.0,0.0,2.3776,2.201,2.015,1.8278,0.0,0.0,1.4721,1.4259,1.3983,1.3859,1.3859,1.3569,1.3403,1.3403,1.3403,1.3403,1.3403,1.3403,1.3403,1.3403,1.3403,1.3431,1.3492,1.3599,1.3747,1.3939,1.4095,1.4211,1.4299,1.4299,1.4299,1.4299,1.2098,1.2098,0.0,0.0,1.1719,0.0,0.0,0.0,1.2098,0.0,1.2098,1.2098,1.2098,1.2104,1.2111,1.2111,1.2118,0.0,1.2118,1.2118,0.0,0.0,1.2118,1.2118,1.2118,0.0,0.0,0.0,0.0,0.0,1.2125,1.223,1.2298,0.0,1.2447,0.0,1.2554,1.2947,1.346,1.4201,1.6349,1.7694,1.8602,2.0341,2.202,2.3609,2.4508,2.4892,2.4969,2.5365,2.5518,2.5518,2.5518,2.5518,2.5518,2.5518,2.5518,2.5451,2.5184,2.5104,2.5037,2.4706,0.0,0.0,0.0,0.0,2.4639,0.0,0.0,0.0,0.0,0.0,0.0,0.0,0.0,0.0,0.0,0.0,0.0,0.0,0.0,0.0,0.0,2.4656,2.3776,2.201,1.9866,1.7869,0.0,0.0,1.3901,1.3403,1.3403,1.3403,1.3403,1.3403,1.3403,1.3403,1.3403,1.3403,1.3403,1.3403,1.3403,1.3403,1.3403,1.3485,1.3599,1.3741,1.3933,1.4132,1.4238,1.4299,1.4299,1.4299,1.4299,1.4299,1.2098,1.2098,1.2077,0.0,1.2016,1.2006,0.0,0.0,0.0,0.0,1.2098,1.2098,1.2098,1.22,1.223,1.223,1.2325,0.0,0.0,0.0,0.0,1.2386,1.2386,1.2386,1.2386,1.2386,0.0,1.2386,0.0,0.0,1.2386,1.2427,1.2447,1.2454,0.0,1.2828,1.3194,1.3379,1.3728,1.4256,1.5626,1.6504,0.0,0.0,2.0338,2.2094,2.3798,2.4623,2.4969,2.5365,2.5518,2.5518,2.5518,2.5518,2.5518,2.5518,2.5518,2.5491,2.5424,2.5398,2.5384,2.5304,2.5291,2.5291,0.0,0.0,0.0,0.0,0.0,0.0,0.0,0.0,0.0,0.0,0.0,0.0,0.0,0.0,0.0,2.4943,0.0,0.0,2.447,2.4459,2.3656,2.1618,1.9988,0.0,0.0,0.0,0.0,1.3397,1.3403,1.3403,1.3403,1.3403,1.3403,1.3403,1.3403,1.3403,1.3403,1.3403,1.3403,1.3403,1.3403,1.3485,1.3599,1.3741,1.3933,1.4132,1.4238,1.4299,1.4299,1.4299,1.4299,1.4299,1.225,1.225,0.0,1.225,0.0,0.0,1.2207,0.0,0.0,1.2345,1.2352,0.0,1.2486,1.2574,1.2622,1.2622,1.2696,0.0,0.0,0.0,0.0,1.2705,1.2705,1.2705,1.2705,1.2705,0.0,1.2705,0.0,0.0,1.2705,1.2705,1.2705,1.2705,0.0,1.3065,1.3508,1.3865,1.4018,1.4106,1.496,0.0,0.0,1.7497,1.9175,2.0939,2.2609,2.3852,2.4815,2.5205,2.5322,2.5361,2.5581,2.562,2.5659,2.5853,2.5776,2.5594,2.5462,2.5113,2.4817,2.4688,2.4662,2.4662,2.4662,2.4969,2.525,0.0,0.0,0.0,0.0,0.0,0.0,0.0,0.0,0.0,0.0,0.0,0.0,0.0,2.4942,0.0,2.4184,2.4508,2.3868,2.1728,2.0302,0.0,0.0,0.0,0.0,1.3438,1.3403,1.3403,1.3403,1.3403,1.3403,1.3403,1.3403,1.3403,1.3403,1.3403,1.3403,1.3403,1.3471,1.3545,1.3693,1.3878,1.4034,1.4183,1.4265,1.4299,1.4299,1.4299,1.4299,1.4299,1.2501,0.0,0.0,0.0,0.0,0.0,0.0,1.2467,0.0,1.2672,0.0,1.2813,1.2989,1.3003,1.3003,1.3003,0.0,1.3003,1.3003,1.3003,1.3003,1.3003,1.3003,1.3003,1.3003,1.3003,0.0,0.0,0.0,0.0,1.3003,1.3003,1.3003,1.3003,1.3023,0.0,0.0,1.4452,1.439,1.3949,1.4496,1.4927,1.5422,1.6607,1.8164,1.9876,2.1041,2.2705,2.4372,2.4811,2.4931,2.501,2.5475,2.5634,2.5713,2.6109,2.5951,2.5529,2.5204,2.45,2.381,2.3538,2.3438,2.3489,2.3528,2.4148,2.4701,2.4804,2.5086,2.5341,0.0,0.0,0.0,0.0,0.0,0.0,0.0,0.0,0.0,0.0,0.0,0.0,2.4041,2.4621,2.412,2.1889,0.0,0.0,0.0,0.0,0.0,1.3438,1.3403,1.3403,1.3403,0.0,1.3403,1.3403,1.3403,1.3403,1.3403,1.3403,1.341,1.3437,1.3531,1.368,1.3835,1.4014,1.4163,1.4299,1.4299,1.4299,1.4299,1.4299,1.4299,1.4299,0.0,0.0,0.0,0.0,0.0,1.2725,1.2867,1.2752,1.2659,1.2686,1.284,1.2969,1.2996,1.3003,1.3003,1.3003,1.3003,0.0,0.0,0.0,0.0,1.3003,1.3003,1.3003,1.3003,1.3003,1.3003,0.0,0.0,0.0,0.0,0.0,0.0,1.3009,1.3125,0.0,1.4549,1.5409,0.0,1.4552,1.4664,1.4754,1.4878,1.5505,1.6813,1.8409,1.9062,2.1052,2.348,2.3908,2.4028,2.4096,2.4587,2.4746,2.4826,2.5209,2.5037,2.4614,2.4194,2.3704,2.3253,2.2807,2.2676,2.2795,2.3194,2.3405,2.3683,2.4398,2.442,2.4374,2.4777,0.0,0.0,0.0,0.0,0.0,0.0,0.0,0.0,0.0,0.0,0.0,0.0,0.0,0.0,0.0,0.0,0.0,0.0,0.0,0.0,0.0,1.3403,0.0,0.0,0.0,1.3403,1.3403,1.3403,1.3403,1.3403,1.3403,1.3471,1.3593,1.3572,1.3783,1.4034,1.4105,1.4163,1.4299,1.4299,1.4299,1.4299,1.4299,1.4299,1.4299,0.0,0.0,0.0,0.0,0.0,0.0,0.0,1.2963,0.0,1.2963,1.3024,1.3139,1.318,1.3193,1.3193,1.3193,1.3193,1.3193,1.3193,1.3193,1.3193,1.3193,1.3193,0.0,1.3193,1.3193,1.3193,1.3193,0.0,0.0,0.0,0.0,0.0,1.3234,1.3548,1.3947,0.0,0.0,0.0,1.439,1.439,1.439,1.4431,1.4886,1.5826,1.7018,1.751,1.8727,2.0312,2.1394,2.1797,2.1918,2.2562,2.2975,2.3296,2.3908,2.3788,2.3376,2.2935,2.1999,2.1071,2.0586,2.0464,2.0545,2.0748,2.1526,2.2292,2.2694,2.3189,2.3583,2.3544,2.2973,0.0,0.0,0.0,0.0,0.0,0.0,0.0,0.0,0.0,0.0,0.0,0.0,0.0,0.0,0.0,0.0,0.0,0.0,0.0,0.0,0.0,0.0,0.0,0.0,0.0,1.3403,1.3403,1.3403,1.3403,1.3403,1.3485,1.3592,1.3666,1.3865,1.4125,1.42,1.4231,1.4299,1.4299,1.4299,1.4299,1.4299,1.4299,1.4299,0.0,1.2779,0.0,0.0,1.305,0.0,1.3091,1.3193,1.3248,1.3214,1.32,1.3268,1.339,1.3403,1.3403,1.3403,1.3403,1.3403,1.3403,1.3403,1.3403,1.3403,1.3403,1.3403,1.3403,1.3403,1.3403,0.0,0.0,0.0,0.0,0.0,0.0,0.0,0.0,0.0,0.0,0.0,1.4473,1.4108,1.4108,1.4108,1.4149,1.4431,1.5043,1.5785,1.6155,1.6484,1.6968,1.835,1.9033,1.949,2.0393,2.092,2.1365,2.224,2.2171,2.1717,2.1192,1.9978,1.8727,1.8196,1.8033,1.8073,1.8155,1.9256,2.0312,2.0596,2.1636,2.2401,2.1999,2.1453,0.0,0.0,0.0,0.0,0.0,0.0,0.0,0.0,0.0,0.0,0.0,0.0,0.0,0.0,0.0,0.0,0.0,0.0,0.0,0.0,0.0,1.3403,1.3403,0.0,1.3403,1.3403,1.3403,1.3403,1.3403,1.3437,1.3532,1.3639,1.3781,1.398,1.4129,1.4251,1.4299,1.4299,1.4299,1.4299,1.4299,1.4299,1.4299,1.4299,0.0,0.0,0.0,0.0,0.0,0.0,1.3342,1.337,1.3329,1.3234,1.3295,1.3383,1.3397,1.3403,1.3403,1.3403,1.3403,1.3403,1.3403,1.3403,1.3403,1.3403,1.3403,1.3403,1.3403,1.3403,1.3403,0.0,0.0,0.0,0.0,0.0,0.0,0.0,0.0,0.0,0.0,1.4514,1.4473,1.4108,1.4108,1.4108,1.4108,1.4149,1.4431,1.4837,1.4878,1.4919,1.4961,1.5118,1.6229,1.7705,1.8563,1.8849,1.9093,1.9937,1.9937,1.9409,1.8595,1.7942,1.7296,1.6435,1.6229,1.6353,1.6772,1.7018,1.7469,1.8604,1.9572,2.0221,2.014,1.9795,1.9349,0.0,0.0,0.0,0.0,0.0,0.0,0.0,0.0,0.0,0.0,1.7264,0.0,0.0,1.627,0.0,0.0,0.0,0.0,1.3403,0.0,1.3403,1.3403,1.3403,1.3403,1.3403,1.3403,1.3403,1.3403,1.3546,1.3646,1.3788,1.398,1.4136,1.4278,1.4292,1.4299,1.4299,1.4299,1.4299,1.4299,1.4299,1.4299,1.4299,0.0,0.0,0.0,0.0,0.0,0.0,0.0,1.3403,1.3376,1.3315,1.3363,1.3403,1.3403,1.3403,1.3403,1.3403,1.3403,1.3403,1.3403,1.3403,1.3403,1.3403,1.3403,1.3403,1.3403,1.3403,1.3403,0.0,0.0,0.0,0.0,0.0,0.0,0.0,0.0,1.3694,1.3694,1.3852,1.3811,1.3694,1.3694,1.3694,1.3694,1.3694,1.3776,1.3935,1.3935,1.3935,1.3935,1.3935,1.4713,1.5859,1.6484,1.6845,1.7173,1.7787,1.7869,1.7583,1.6968,1.627,1.562,1.501,1.4844,1.4927,1.5092,1.5546,1.6081,1.6566,1.7378,1.7992,1.7992,1.7624,1.7173,0.0,0.0,0.0,0.0,0.0,0.0,0.0,0.0,0.0,0.0,0.0,0.0,0.0,0.0,0.0,0.0,0.0,0.0,1.3403,0.0,1.3403,1.3403,1.3403,1.3403,1.3403,1.3403,1.3403,1.3403,1.3559,1.3756,1.3987,1.4143,1.4245,1.4299,1.4299,1.4299,1.4299,1.4299,1.4299,1.4299,1.4299,1.4299,1.4299,1.322,0.0,1.3275,0.0,1.3403,1.3403,1.3403,1.3403,1.3403,1.3403,1.3403,1.3403,1.3403,1.3403,1.3403,1.3403,1.3403,1.3403,1.3403,1.3403,1.3403,1.3403,1.3403,0.0,1.3403,1.3403,1.3403,1.3403,1.3403,0.0,0.0,0.0,0.0,0.0,1.3403,1.3403,1.3403,1.3403,1.3403,1.3403,1.3403,1.3403,1.3403,1.3403,1.3403,1.3403,1.3403,1.3403,1.3403,1.3403,1.3811,1.439,1.4886,1.5216,1.5538,1.5991,1.6114,1.5991,1.5579,1.5002,1.4431,1.3983,1.3901,1.3901,1.3901,1.4356,1.4844,1.4968,1.5587,1.6114,1.6114,1.5826,1.5538,1.5257,0.0,0.0,0.0,0.0,0.0,0.0,0.0,1.4679,1.4341,1.4638,0.0,0.0,0.0,0.0,0.0,0.0,0.0,0.0,0.0,0.0,0.0,1.3403,1.3403,1.3403,1.3403,1.3424,1.3478,1.3668,1.3899,1.4143,1.4251,1.4299,1.4299,1.4299,1.4299,1.4299,1.4299,1.4299,1.4299,1.4299,1.4299,1.4299,1.3397,1.3397,1.3397,1.3403,1.3403,1.3403,1.3403,1.3403,1.3403,1.3403,1.3403,1.3403,1.3403,1.3403,1.3403,1.3403,1.3403,1.3403,1.3403,1.3403,1.3403,0.0,0.0,1.3403,1.3403,1.3403,1.3403,1.3403,0.0,0.0,1.3403,0.0,1.3403,1.3403,1.3403,1.3403,1.3403,1.3403,1.3403,1.3403,1.3403,1.3403,1.3403,1.3403,1.3403,1.3403,1.3403,1.3403,1.3403,1.3403,1.3403,1.3486,1.3983,1.4108,1.419,1.4589,1.4713,1.4631,1.4232,1.4108,1.3983,1.3528,1.3403,1.3403,1.3403,1.3403,1.3569,1.4025,1.4431,1.4713,1.4713,1.4713,1.4713,1.4713,0.0,0.0,0.0,0.0,0.0,0.0,1.3403,1.3403,1.3403,1.3403,0.0,0.0,0.0,0.0,0.0,0.0,0.0,1.3403,1.3403,0.0,1.3403,1.3403,1.3403,1.3403,1.3403,1.3478,1.3592,1.3933,1.415,1.4299,1.4299,1.4299,1.4299,1.4299,1.4299,1.4299,1.4299,1.4299,1.4299,1.4299,1.4299,1.4299,1.3403,1.3403,1.3403,1.3403,1.3403,1.3403,1.3403,1.3403,1.3437,1.3504,1.3559,1.3551,1.3646,1.3519,1.3403,0.0,1.3403,1.3403,0.0,1.3403,1.3403,1.3403,1.3403,1.3403,1.3403,1.3403,1.3403,1.3403,0.0,0.0,0.0,1.3403,1.3403,1.3403,1.3403,1.3403,1.3403,1.3403,1.3403,1.3403,1.3403,1.3403,1.3403,1.3403,1.3403,1.3403,1.3403,1.3403,1.3403,1.3403,1.3403,1.3445,1.3569,1.3611,1.3652,1.3769,1.3811,1.3769,1.3652,1.3611,1.3611,1.3445,1.3403,1.3403,1.3403,1.3403,1.3445,1.3611,1.3728,1.3811,1.3811,1.3811,1.3811,1.3811,1.3687,0.0,0.0,0.0,0.0,0.0,1.3403,1.3403,0.0,1.3403,0.0,0.0,0.0,0.0,0.0,0.0,0.0,0.0,1.3403,0.0,1.3403,1.3403,1.3403,1.3403,1.3403,1.3532,1.3741,1.398,1.4156,1.4299,1.4299,1.4299,1.4299,1.4299,1.4299,1.4299,1.4299,1.4299,1.4299,1.4299,1.4299,1.4299,1.3403,1.3403,1.3403,1.3403,1.3451,1.3485,1.3485,1.3532,1.36,1.3653,1.3666,1.37,1.3788,1.3632,0.0,1.3566,1.3566,1.3566,1.3566,1.3566,1.3539,1.3492,1.3485,1.3458,1.3403,0.0,0.0,1.3403,1.3403,1.3403,1.3403,1.3403,1.3403,1.3403,1.3403,1.3403,1.3403,1.3403,1.3403,1.3403,1.3403,1.3403,1.3403,1.3403,1.3403,1.3403,1.3403,1.3403,1.3403,1.3403,1.3403,1.3403,1.3403,1.3403,1.3403,1.3403,1.3403,1.3403,1.3403,1.3403,1.3403,1.3403,1.3403,1.3403,1.3403,1.3403,1.3403,1.3403,1.3403,1.3403,1.3403,1.3403,1.3403,1.3403,1.3403,1.3403,1.3403,0.0,0.0,0.0,0.0,0.0,0.0,1.3403,1.3403,0.0,0.0,0.0,0.0,0.0,0.0,1.3403,1.3403,0.0,1.3403,1.3403,1.3403,1.3403,1.3512,1.3695,1.3933,1.4089,1.4211,1.4299,1.4299,1.4299,1.4299,1.4299,1.4299,1.4299,1.4299,1.4299,1.4299,1.4299,1.4299,1.4299,1.3417,1.3417,0.0,0.0,1.3546,0.0,1.3599,1.3714,1.3802,1.3815,1.3815,1.3815,1.3829,1.3829,1.3829,1.3829,0.0,0.0,0.0,1.3795,1.3741,1.3605,1.3599,1.358,1.3437,1.3424,1.341,1.3403,1.3403,1.3403,1.3403,1.3403,1.3403,1.3403,1.3403,1.3403,1.3403,1.3403,1.3403,1.3403,1.3403,1.3403,1.3403,1.3403,1.3403,1.3403,1.3403,1.3403,1.3403,1.3403,1.3403,1.3403,1.3403,1.3403,1.3403,1.3403,1.3403,1.3403,1.3403,1.3403,1.3403,1.3403,1.3403,1.3403,1.3403,1.3403,1.3403,1.3403,1.3403,1.3403,1.3403,1.3403,1.3403,1.3403,1.3403,1.3403,1.3403,0.0,0.0,0.0,0.0,0.0,0.0,1.3403,1.3403,0.0,0.0,0.0,0.0,0.0,1.3403,1.3403,1.3403,1.3403,1.3403,1.3403,1.3403,1.3417,1.366,1.3926,1.4119,1.4231,1.4299,1.4299,1.4299,1.4299,1.4299,1.4299,1.4299,1.4299,1.4299,1.4299,1.4299,1.4299,1.4299,1.4299,0.0,0.0,1.3565,1.3673,1.3727,1.3747,1.3747,1.3774,1.3842,1.4,1.4014,1.4061,1.4177,1.419,1.419,1.419,1.393,1.3795,1.3795,1.3795,1.3781,1.3747,1.3747,1.3734,1.3693,1.3592,1.3519,1.3403,1.3403,1.3403,1.3403,1.3403,1.3403,1.3403,1.3403,1.3403,1.3403,1.3403,1.3403,1.3403,1.3403,1.3403,1.3403,1.3403,1.3403,1.3403,1.3403,1.3403,1.3403,1.3403,1.3403,1.3403,1.3403,1.3403,1.3403,1.3403,1.3403,1.3403,1.3403,1.3403,1.3403,1.3403,1.3403,1.3403,1.3403,1.3403,1.3403,1.3403,1.3403,1.3403,1.3403,1.3403,1.3403,1.3403,1.3403,1.3403,1.3403,1.3403,0.0,0.0,1.3403,1.3403,1.3403,1.3403,1.3403,0.0,0.0,0.0,0.0,1.3403,1.3403,1.3403,1.3403,1.3403,1.3403,1.3403,1.3458,1.3531,1.3714,1.3926,1.4119,1.4231,1.4299,1.4299,1.4299,1.4299,1.4299,1.4299,1.4299,1.4299,1.4299,1.4299,1.4299,1.4299,1.4299,1.4299,1.3666,1.3687,1.3707,1.3781,1.3899,1.3946,1.3946,1.4007,1.4082,1.4163,1.4177,1.4204,1.4292,1.4299,1.4299,1.4299,1.4143,1.4048,1.4048,1.4048,1.4021,1.3946,1.3946,1.3869,1.3802,1.372,1.3646,1.3558,1.3558,1.3566,1.3505,1.3505,1.3464,1.3403,1.3403,1.3403,1.3403,1.3403,1.3403,1.3403,1.3403,1.3403,1.3403,1.3403,1.3403,1.3403,1.3403,1.3403,1.3403,1.3403,1.3403,1.3403,1.3403,1.3403,1.3403,1.3403,1.3403,1.3403,1.3403,1.3403,1.3403,1.3403,1.3403,1.3403,1.3403,1.3403,1.3403,1.3403,1.3403,1.3403,1.3403,1.3403,1.3403,1.3403,1.3403,1.3403,1.3403,1.3403,0.0,1.3403,1.3403,1.3403,1.3403,1.3403,1.3403,1.3403,0.0,0.0,1.3403,1.3403,1.3403,1.3403,1.3403,1.3403,1.3403,1.3471,1.358,1.3687,1.3878,1.4027,1.4177,1.4265,1.4299,1.4299,1.4299,1.4299,1.4299,1.4299,1.4299,1.4299,1.4299,1.4299,1.4299,1.4299,1.4299,1.4299,1.3829,1.3835,1.3842,1.3862,1.4021,1.4153,1.4153,1.4217,1.4299,1.4299,1.4299,1.4299,1.4299,1.4299,1.4299,1.4299,1.4299,1.4299,1.4299,1.4299,1.4245,1.4159,1.4153,1.4048,1.3869,1.3842,1.3822,1.3795,1.3795,1.3734,1.3619,1.3619,1.3551,1.3464,1.3464,1.3464,1.3464,1.3464,1.3464,1.3464,1.3464,1.3464,1.3464,1.3464,1.3464,1.3464,1.3464,1.3451,1.3437,1.3437,1.3417,1.3403,1.3403,1.3403,1.3403,1.3403,1.3403,1.3403,1.3403,1.3403,1.3403,1.3403,1.3403,1.3403,1.3403,1.3403,1.3403,1.3403,1.3403,1.3403,1.3403,1.3403,1.3403,1.3403,1.3403,1.3403,1.3403,0.0,1.3403,1.3403,1.3403,1.3403,1.3403,1.3403,1.3403,1.3403,1.3403,1.3403,1.3403,1.3403,1.3403,1.3403,1.3403,1.341,1.3437,1.3524,1.3666,1.3835,1.4007,1.415,1.4299,1.4299,1.4299,1.4299,1.4299,1.4299,1.4299,1.4299,1.4299,1.4299,1.4299,1.4299,1.4299,1.4299,1.4299,1.4299,1.4007,1.4034,1.4075,1.4204,1.4251,1.4265,1.4265,1.4285,1.4299,1.4299,1.4299,1.4299,1.4299,1.4299,1.4299,1.4299,1.4299,1.4299,1.4299,1.4299,1.4292,1.4265,1.4265,1.4251,1.4231,1.4102,1.3973,1.3795,1.3795,1.3788,1.3761,1.3761,1.3754,1.3727,1.3727,1.3727,1.3727,1.3727,1.3727,1.3727,1.3727,1.3727,1.3727,1.3727,1.3727,1.3727,1.3727,1.3653,1.3551,1.3551,1.3505,1.3403,1.3403,1.3403,1.3403,1.3403,1.3403,1.3403,1.3403,1.3403,1.3403,1.3403,1.3403,1.3403,1.3403,1.3403,1.3403,1.3403,1.3403,1.3403,1.3403,1.3403,1.3403,1.3403,1.3403,1.3403,1.3403,0.0,1.3403,1.3403,1.3403,1.3403,1.3403,1.3403,1.3403,1.3403,1.3403,1.3403,1.3403,1.3403,1.3403,1.3403,1.3403,1.3464,1.3551,1.3572,1.3763,1.4034,1.4105,1.415,1.4299,1.4299,1.4299,1.4299,1.4299,1.4299,1.4299,1.4299,1.4299,1.4299,1.4299,1.4299,1.4299,1.4299,1.4299,1.4299,1.4183,1.4197,1.4217,1.4285,1.4299,1.4299,1.4299,1.4299,1.4299,1.4299,1.4299,1.4299,1.4299,1.4299,1.4299,1.4299,1.4299,1.4299,1.4299,1.4299,1.4299,1.4299,1.4299,1.4299,1.4299,1.4231,1.4156,1.4089,1.4089,1.4048,1.3966,1.3966,1.3919,1.3795,1.3795,1.3795,1.3795,1.3795,1.3795,1.3795,1.3795,1.3795,1.3795,1.3795,1.3795,1.3795,1.3795,1.3754,1.37,1.37,1.3653,1.3641,1.3641,1.3587,1.3526,1.3526,1.3464,1.3403,1.3403,1.3403,1.3403,1.3403,1.3403,1.3403,1.3403,1.3403,1.3403,1.3403,1.3403,1.3403,1.3403,1.3403,1.3403,1.3403,1.3403,0.0,0.0,1.3403,1.3403,1.3403,1.3403,1.3403,1.3403,1.3403,1.3403,1.3403,1.3403,1.3403,1.3403,1.3403,1.3403,1.3403,1.3403,1.3471,1.3585,1.366,1.3851,1.4119,1.4156,1.4231,1.4299,1.4299,1.4299,1.4299,1.4299,1.4299,1.4299,1.4299,1.4299,1.4299,1.4299,1.4299,1.4299,1.4299,1.4299,1.4299,1.4299,1.4299,1.4299,1.4299,1.4299,1.4299,1.4299,1.4299,1.4299,1.4299,1.4299,1.4299,1.4299,1.4299,1.4299,1.4299,1.4299,1.4299,1.4299,1.4299,1.4299,1.4299,1.4299,1.4299,1.4299,1.4299,1.4299,1.4299,1.4299,1.4238,1.4166,1.4166,1.4061,1.3903,1.3903,1.3903,1.3903,1.3903,1.3903,1.3903,1.3903,1.3903,1.3903,1.3903,1.3903,1.3903,1.3903,1.3883,1.3849,1.3849,1.3829,1.3795,1.3795,1.3727,1.3639,1.3639,1.3531,1.3444,1.341,1.3403,1.3403,1.3403,1.3403,1.3403,1.3403,1.3403,1.3403,1.3403,1.3403,1.3403,1.3403,1.3403,1.3403,1.3403,0.0,0.0,0.0,1.3403,1.3403,1.3403,1.3403,1.3403,1.3403,1.3403,1.3403,1.3403,1.3403,1.3403,1.3403,1.3403,1.3417,1.3451,1.3451,1.3526,1.3632,1.3781,1.3973,1.4173,1.4245,1.4299,1.4299,1.4299,1.4299,1.4299,1.4299,1.4299,1.4299,1.4299,1.4299,1.4299,1.4299,1.4299,1.4299,1.4299,1.4299,1.4299,1.4299,1.4299,1.4299,1.4299,1.4299,1.4299,1.4299,1.4299,1.4299,1.4299,1.4299,1.4299,1.4299,1.4299,1.4299,1.4299,1.4299,1.4299,1.4299,1.4299,1.4299,1.4299,1.4299,1.4299,1.4299,1.4299,1.4299,1.4299,1.4299,1.4292,1.4285,1.4285,1.4278,1.4265,1.4265,1.4265,1.4265,1.4265,1.4265,1.4265,1.4265,1.4265,1.4265,1.4265,1.4265,1.4265,1.4265,1.4177,1.4098,1.4098,1.396,1.3795,1.3795,1.3788,1.3781,1.3781,1.368,1.3538,1.3437,1.3403,1.3403,1.3403,1.3403,1.3403,1.3403,1.3403,1.3403,1.3403,1.3403,1.3403,1.3403,1.3403,1.3403,1.3403,0.0,0.0,1.3403,1.3403,1.3403,1.3403,1.3403,1.3403,1.3403,1.3403,1.3403,1.3403,1.3403,1.3403,1.3403,1.3403,1.3464,1.3565,1.3572,1.3639,1.3781,1.398,1.4129,1.4285,1.4292,1.4299,1.4299,1.4299,1.4299,1.4299,1.4299,1.4299,1.4299,1.4299,1.4299,1.4299,1.4299,1.4299,1.4299,1.4299,1.4299,1.4299,1.4299,1.4299,1.4299,1.4299,1.4299,1.4299,1.4299,1.4373,1.4428,1.4428,1.4516,1.4525,1.4525,1.4525,1.4525,1.4525,1.4525,1.4529,1.4434,1.4428,1.4394,1.4306,1.4299,1.4299,1.4299,1.4299,1.4299,1.4299,1.4299,1.4299,1.4299,1.4299,1.4299,1.4299,1.4299,1.4299,1.4299,1.4299,1.4299,1.4299,1.4299,1.4299,1.4299,1.4299,1.4299,1.4299,1.4299,1.4265,1.4211,1.4211,1.4177,1.4122,1.4122,1.4061,1.3966,1.3829,1.3761,1.3707,1.3646,1.3539,1.3403,1.3403,1.3403,1.3403,1.3403,1.3403,1.3403,1.3403,1.3403,1.3403,1.3403,1.3403,1.3403,1.3403,0.0,1.3403,1.3403,1.3403,1.3403,1.3403,1.3403,1.3403,1.3403,1.3403,1.3403,1.3403,1.3403,1.3403,1.3403,1.3492,1.3566,1.3585,1.381,1.3933,1.398,1.4041,1.415,1.4299,1.4299,1.4299,1.4299,1.4299,1.4299,1.4299,1.4299,1.4299,1.4299,1.4299,1.4299,1.4299,1.4299,1.4299,1.4299,1.4299,1.4299,1.4299,1.4299,1.4333,1.4367,1.4367,1.4407,1.4441,1.4441,1.4523,1.4539,1.4539,1.4626,1.4694,1.4694,1.4694,1.4694,1.4694,1.4694,1.4654,1.459,1.4539,1.4496,1.4306,1.4299,1.4299,1.4299,1.4299,1.4299,1.4299,1.4299,1.4299,1.4299,1.4299,1.4299,1.4299,1.4299,1.4299,1.4299,1.4299,1.4299,1.4299,1.4299,1.4299,1.4299,1.4299,1.4299,1.4299,1.4299,1.4299,1.4299,1.4299,1.4299,1.4299,1.4299,1.4231,1.4116,1.396,1.3869,1.3862,1.3808,1.3653,1.3526,1.3485,1.3437,1.3403,1.3403,1.3403,1.3403,1.3403,1.3403,1.3403,1.3403,1.3403,1.3403,1.3403,1.3403,1.3403,1.3403,1.3403,1.3403,1.3403,1.3403,1.3403,1.3403,1.3403,1.3403,1.3403,1.3403,1.3424,1.3471,1.3531,1.3632,1.3763,1.3966,1.4139,1.4143,1.4143,1.4197,1.4299,1.4299,1.4299,1.4299,1.4299,1.4299,1.4299,1.4299,1.4299,1.4299,1.4299,1.4299,1.4299,1.4299,1.4299,1.4299,1.4299,1.4299,1.4299,1.4306,1.4414,1.4516,1.4516,1.4593,1.4694,1.4694,1.4694,1.4694,1.4694,1.4694,1.4694,1.4694,1.4694,1.4694,1.4694,1.4694,1.4694,1.4694,1.4694,1.4566,1.4319,1.4299,1.4299,1.4299,1.4299,1.4299,1.4299,1.4299,1.4299,1.4299,1.4299,1.4299,1.4299,1.4299,1.4299,1.4299,1.4299,1.4299,1.4299,1.4299,1.4299,1.4299,1.4299,1.4299,1.4299,1.4299,1.4299,1.4299,1.4299,1.4299,1.4299,1.4299,1.4299,1.4272,1.4159,1.4119,1.4041,1.3842,1.3802,1.3768,1.3626,1.3512,1.3403,1.3403,1.3403,1.3403,1.3403,1.3403,1.3403,1.3403,1.3403,1.3403,1.3403,1.3403,1.3403,1.3403,1.3403,1.3403,1.3403,1.3403,1.3403,1.3403,1.3403,1.3403,1.3403,1.3403,1.3471,1.3578,1.3592,1.377,1.4105,1.4119,1.4193,1.4299,1.4299,1.4299,1.4299,1.4299,1.4299,1.4299,1.4299,1.4299,1.4299,1.4299,1.4299,1.4299,1.4299,1.4299,1.4299,1.4299,1.4299,1.4299,1.4299,1.4299,1.4299,1.4539,1.4599,1.4626,1.4626,1.4667,1.4694,1.4694,1.4835,1.4903,1.4903,1.4991,1.5052,1.5052,1.5052,1.5052,1.5052,1.5052,1.5004,1.4909,1.4801,1.4654,1.4566,1.4509,1.4448,1.4448,1.4353,1.4299,1.4299,1.4299,1.4299,1.4299,1.4299,1.4299,1.4299,1.4299,1.4299,1.4299,1.4299,1.4299,1.4299,1.4299,1.4299,1.4299,1.4299,1.4299,1.4299,1.4299,1.4299,1.4299,1.4299,1.4299,1.4299,1.4299,1.4299,1.4292,1.4245,1.4231,1.4224,1.4177,1.4082,1.3966,1.3774,1.3626,1.3559,1.3559,1.3478,1.3403,1.3403,1.3403,1.3403,1.3403,1.3403,1.3403,1.3403,1.3403,1.3403,1.3403,1.3403,1.3403,1.3403,1.3403,1.3403,1.3403,1.3403,1.3403,1.3403,1.3498,1.3538,1.3585,1.3824,1.398,1.4112,1.4177,1.4251,1.4299,1.4299,1.4299,1.4299,1.4299,1.4299,1.4299,1.4299,1.4299,1.4299,1.4299,1.4299,1.4299,1.4299,1.4299,1.4299,1.4299,1.4299,1.4299,1.4299,1.4299,1.4299,1.4674,1.4741,1.4828,1.4828,1.4875,1.4916,1.4916,1.4997,1.5098,1.5098,1.5126,1.5181,1.5181,1.5181,1.5181,1.5181,1.5181,1.5194,1.5059,1.4964,1.4916,1.4916,1.4774,1.4665,1.4559,1.4516,1.4475,1.4475,1.4414,1.438,1.438,1.4326,1.4299,1.4299,1.4299,1.4299,1.4299,1.4299,1.4299,1.4299,1.4299,1.4299,1.4299,1.4299,1.4299,1.4299,1.4299,1.4299,1.4299,1.4299,1.4299,1.4299,1.4299,1.4299,1.4299,1.4299,1.4299,1.4299,1.4299,1.4231,1.4143,1.4048,1.3822,1.3666,1.3666,1.3599,1.3559,1.3505,1.3492,1.3471,1.341,1.3403,1.3403,1.3403,1.3403,1.3403,1.3403,1.3403,1.3403,1.3403,1.3403,1.3403,1.3403,1.3403,1.3424,1.3485,1.3585,1.37,1.3804,1.3973,1.4102,1.4156,1.4251,1.4299,1.4299,1.4299,1.4299,1.4299,1.4299,1.4299,1.4299,1.4299,1.4299,1.4299,1.4299,1.4299,1.4299,1.4299,1.4299,1.4299,1.4299,1.4299,1.4299,1.4299,1.4299,1.4299,1.4728,1.4896,1.5037,1.5037,1.5146,1.5181,1.5181,1.5181,1.5181,1.5181,1.5181,1.5181,1.5181,1.5181,1.5181,1.5181,1.5181,1.5181,1.5181,1.5181,1.5181,1.5181,1.5059,1.4923,1.4735,1.4708,1.4694,1.4694,1.4604,1.4529,1.4529,1.4401,1.434,1.434,1.4326,1.4319,1.4319,1.4306,1.4299,1.4299,1.4299,1.4299,1.4299,1.4299,1.4299,1.4299,1.4299,1.4299,1.4299,1.4299,1.4299,1.4299,1.4299,1.4299,1.4299,1.4299,1.4299,1.4299,1.4299,1.4299,1.4299,1.4299,1.4089,1.3835,1.3822,1.3808,1.3761,1.3632,1.3605,1.3565,1.3464,1.3437,1.3437,1.3437,1.3431,1.3424,1.3424,1.341,1.3403,1.3417,1.3424,1.3424,1.3437,1.3437,1.3498,1.3599,1.3741,1.3926,1.4105,1.4125,1.4156,1.4292,1.4299,1.4299,1.4299,1.4299,1.4299,1.4299,1.4299,1.4299,1.4299,1.4299,1.4299,1.4299,1.4299,1.4299,1.4299,1.4299,1.4299,1.4299,1.4299,1.4299,1.4299,1.4299,1.4299,1.4299,1.5065,1.5113,1.514,1.514,1.516,1.5181,1.5181,1.5181,1.5181,1.5181,1.5181,1.5181,1.5181,1.5181,1.5181,1.5181,1.5181,1.5181,1.5181,1.5181,1.5181,1.5181,1.5153,1.512,1.5086,1.4809,1.4694,1.4694,1.466,1.4647,1.4647,1.4613,1.4599,1.4593,1.4516,1.4468,1.4462,1.4346,1.4299,1.4299,1.4299,1.4299,1.4299,1.4299,1.4299,1.4299,1.4299,1.4299,1.4299,1.4299,1.4299,1.4299,1.4299,1.4299,1.4299,1.4299,1.4299,1.4299,1.4299,1.4299,1.4299,1.4299,1.4251,1.417,1.4048,1.3926,1.3788,1.3761,1.3754,1.3741,1.3707,1.37,1.37,1.37,1.3612,1.358,1.358,1.3478,1.3444,1.3524,1.358,1.3585,1.3693,1.37,1.372,1.3747,1.3933,1.4034,1.4112,1.4183,1.4265,1.4299,1.4299,1.4299,1.4299,1.4299,1.4299,1.4299,1.4299,1.4299,1.4299,1.4299,1.4299,1.4299,1.4299,1.4299,1.4299,1.4299,1.4299,1.4299,1.4299,1.4299,1.4299,1.4299,1.4299,1.4299,1.5167,1.5181,1.5181,1.5181,1.5181,1.5181,1.5181,1.5181,1.5181,1.5181,1.5181,1.5181,1.5181,1.5181,1.5181,1.5181,1.5181,1.5181,1.5181,1.5181,1.5181,1.5181,1.5181,1.5181,1.5181,1.5031,1.495,1.495,1.4882,1.4848,1.4848,1.4728,1.4694,1.4687,1.4613,1.4618,1.4572,1.4543,1.4468,1.4401,1.4401,1.436,1.4299,1.4299,1.4299,1.4299,1.4299,1.4299,1.4299,1.4299,1.4299,1.4299,1.4299,1.4299,1.4299,1.4299,1.4299,1.4299,1.4299,1.4299,1.4299,1.4299,1.4299,1.4278,1.4197,1.4116,1.4041,1.3966,1.3953,1.3926,1.3815,1.3795,1.3795,1.3795,1.3734,1.3687,1.3687,1.3619,1.3641,1.368,1.3687,1.3714,1.3788,1.3905,1.3953,1.3953,1.4095,1.4183,1.4183,1.4258,1.4299,1.4299,1.4299,1.4299,1.4299,1.4299,1.4299,1.4299,1.4299,1.4299,1.4299,1.4299,1.4299,1.4299,1.4299,1.4299,1.4299,1.4299,1.4299,1.4299,1.4299,1.4299,1.4299,1.4299,1.4299,1.4299,1.5181,1.5181,1.5181,1.5181,1.5181,1.5181,1.5181,1.5181,1.5181,1.5181,1.5181,1.5181,1.5181,1.5181,1.5181,1.5181,1.5181,1.5181,1.5181,1.5181,1.5181,1.5181,1.5181,1.5181,1.5181,1.5181,1.5181,1.5181,1.5112,1.5011,1.5051,1.4875,1.4769,1.4769,1.4741,1.4735,1.4735,1.4708,1.462,1.455,1.455,1.4482,1.4373,1.4373,1.436,1.434,1.434,1.4319,1.4299,1.4299,1.4299,1.4299,1.4299,1.4299,1.4299,1.4299,1.4299,1.4299,1.4299,1.4299,1.4299,1.4299,1.4299,1.4299,1.4299,1.4299,1.4265,1.418,1.4109,1.4068,1.3903,1.3876,1.3876,1.3876,1.3856,1.3835,1.3835,1.3815,1.3808,1.3835,1.3862,1.3876,1.3876,1.4034,1.4109,1.4109,1.4231,1.4299,1.4299,1.4299,1.4299,1.4299,1.4299,1.4299,1.4299,1.4299,1.4299,1.4299,1.4299,1.4299,1.4299,1.4299,1.4299,1.4299,1.4299,1.4299,1.4299,1.4299,1.4299,1.4299,1.4299,1.4299,1.4299,1.4299,1.4299,1.4299,1.5181,1.5181,1.5181,1.5181,1.5181,1.5181,1.5181,1.5181,1.5181,1.5181,1.5181,1.5181,1.5181,1.5181,1.5181,1.5181,1.5181,1.5181,1.5181,1.5181,1.5181,1.5181,1.5181,1.5181,1.5181,1.5181,1.5181,1.5181,1.516,1.5153,1.5153,1.5133,1.512,1.512,1.4991,1.4936,1.493,1.4748,1.4681,1.466,1.466,1.4654,1.4633,1.4633,1.4552,1.4482,1.4482,1.4407,1.4299,1.4299,1.4299,1.4299,1.4299,1.4299,1.4299,1.4299,1.4299,1.4299,1.4299,1.4299,1.4299,1.4299,1.4299,1.4299,1.4299,1.4299,1.4292,1.4272,1.4272,1.4265,1.4245,1.4238,1.4238,1.4238,1.4129,1.4041,1.4041,1.3926,1.3849,1.4021,1.4156,1.4238,1.4238,1.4258,1.4272,1.4272,1.4285,1.4299,1.4299,1.4299,1.4299,1.4299,1.4299,1.4299,1.4299,1.4299,1.4299,1.4299,1.4299,1.4299,1.4299,1.4299,1.4299,1.4299,1.4299,1.4299,1.4299,1.4299,1.4299,1.4299,1.4299,1.4299,1.4299,1.4299,1.4299,1.4299,1.5181,1.5181,1.5181,1.5181,1.5181,1.5181,1.5181,1.5181,1.5181,1.5181,1.5181,1.5181,1.5181,1.5181,1.5181,1.5181,1.5181,1.5181,1.5181,1.5181,1.5181,1.5181,1.5181,1.5181,1.5181,1.5181,1.5181,1.5181,1.5181,1.5181,1.5181,1.5181,1.5181,1.5181,1.512,1.5086,1.5132,1.5018,1.4943,1.4869,1.4869,1.4814,1.4694,1.4694,1.4654,1.4593,1.4593,1.4543,1.4421,1.4421,1.4367,1.4299,1.4299,1.4299,1.4299,1.4299,1.4299,1.4299,1.4299,1.4299,1.4299,1.4299,1.4299,1.4299,1.4299,1.4299,1.4299,1.4299,1.4299,1.4299,1.4299,1.4299,1.4299,1.4299,1.4245,1.4197,1.4197,1.4143,1.4122,1.419,1.4258,1.4299,1.4299,1.4299,1.4299,1.4299,1.4299,1.4299,1.4299,1.4299,1.4299,1.4299,1.4299,1.4299,1.4299,1.4299,1.4299,1.4299,1.4299,1.4299,1.4299,1.4299,1.4299,1.4299,1.4299,1.4299,1.4299,1.4299,1.4299,1.4299,1.4299,1.4299,1.4299,1.4299,1.4299,1.4299]},{"header":{"parameterUnit":"m.s-1","parameterCategory":1,"la1":30.6,"la2":28.766,"lo1":-90.7593,"lo2":-88.6598,"dy":0.0162,"dx":0.0183,"nx":116,"ny":114,"refTime":"2024-02-24T06:00:00:Z","depth":0,"parameterNumber":3,"parameterNumberName":"V-component_of_WINDS"},"data":[0.0,0.0,0.0,0.0,0.0,0.0,0.0,0.0,0.0,0.0,0.0,0.0,0.0,0.0,0.0,0.0,0.0,0.0,0.0,0.0,0.0,0.0,0.0,0.0,0.0,0.0,0.0,0.0,0.0,0.0,0.0,0.0,0.0,0.0,0.0,0.0,0.0,0.0,0.0,0.0,0.0,0.0,0.0,0.0,0.0,0.0,0.0,0.0,0.0,0.0,0.0,0.0,0.0,0.0,0.0,0.0,0.0,0.0,0.0,0.0,0.0,0.0,0.0,0.0,0.0,0.0,0.0,0.0,0.0,0.0,0.0,0.0,0.0,0.0,0.0,0.0,0.0,0.0,0.0,0.0,0.0,0.0,0.0,0.0,0.0,0.0,0.0,0.0,0.0,0.0,0.0,0.0,0.0,0.0,0.0,0.0,0.0,0.0,0.0,0.0,0.0,0.0,0.0,0.0,0.0,0.0,0.0,0.0,0.0,0.0,0.0,0.0,0.0,0.0,0.0,0.0,0.0,0.0,0.0,0.0,0.0,0.0,0.0,0.0,0.0,0.0,0.0,0.0,0.0,0.0,0.0,0.0,0.0,0.0,0.0,0.0,0.0,0.0,0.0,0.0,0.0,0.0,0.0,0.0,0.0,0.0,0.0,0.0,0.0,0.0,0.0,0.0,0.0,0.0,0.0,0.0,0.0,0.0,0.0,0.0,0.0,0.0,0.0,0.0,0.0,0.0,0.0,0.0,0.0,0.0,0.0,0.0,0.0,0.0,0.0,0.0,0.0,0.0,0.0,0.0,0.0,0.0,0.0,0.0,0.0,0.0,0.0,0.0,0.0,0.0,0.0,0.0,0.0,0.0,0.0,0.0,0.0,0.0,0.0,0.0,0.0,0.0,0.0,0.0,0.0,0.0,0.0,0.0,0.0,0.0,0.0,0.0,0.0,0.0,0.0,0.0,0.0,0.0,0.0,0.0,0.0,0.0,0.0,0.0,0.0,0.0,0.0,0.0,0.0,0.0,0.0,0.0,0.0,0.0,0.0,0.0,0.0,0.0,0.0,0.0,0.0,0.0,0.0,0.0,0.0,0.0,0.0,0.0,0.0,0.0,0.0,0.0,0.0,0.0,0.0,0.0,0.0,0.0,0.0,0.0,0.0,0.0,0.0,0.0,0.0,0.0,0.0,0.0,0.0,0.0,0.0,0.0,0.0,0.0,0.0,0.0,0.0,0.0,0.0,0.0,0.0,0.0,0.0,0.0,0.0,0.0,0.0,0.0,0.0,0.0,0.0,0.0,0.0,0.0,0.0,0.0,0.0,0.0,0.0,0.0,0.0,0.0,0.0,0.0,0.0,0.0,0.0,0.0,0.0,0.0,0.0,0.0,0.0,0.0,0.0,0.0,0.0,0.0,0.0,0.0,0.0,0.0,0.0,0.0,0.0,0.0,0.0,0.0,0.0,0.0,0.0,0.0,0.0,0.0,0.0,0.0,0.0,0.0,0.0,0.0,0.0,0.0,0.0,0.0,0.0,0.0,0.0,0.0,0.0,0.0,0.0,0.0,0.0,0.0,0.0,0.0,0.0,0.0,0.0,0.0,0.0,0.0,0.0,0.0,0.0,0.0,0.0,0.0,0.0,0.0,0.0,0.0,0.0,0.0,0.0,0.0,0.0,0.0,0.0,0.0,0.0,0.0,0.0,0.0,0.0,0.0,0.0,0.0,0.0,0.0,0.0,0.0,0.0,0.0,0.0,0.0,0.0,0.0,0.0,0.0,0.0,0.0,0.0,0.0,0.0,0.0,0.0,0.0,0.0,0.0,0.0,0.0,0.0,0.0,0.0,0.0,0.0,0.0,0.0,0.0,0.0,0.0,0.0,0.0,0.0,0.0,0.0,0.0,0.0,0.0,0.0,0.0,0.0,0.0,0.0,0.0,0.0,0.0,0.0,0.0,0.0,0.0,0.0,0.0,0.0,0.0,0.0,0.0,0.0,0.0,0.0,0.0,0.0,0.0,0.0,0.0,0.0,0.0,0.0,0.0,0.0,0.0,0.0,0.0,0.0,0.0,0.0,0.0,0.0,0.0,0.0,0.0,0.0,0.0,0.0,0.0,0.0,0.0,0.0,0.0,0.0,0.0,0.0,0.0,0.0,0.0,0.0,0.0,0.0,0.0,0.0,0.0,0.0,0.0,0.0,0.0,0.0,0.0,0.0,0.0,0.0,0.0,0.0,0.0,0.0,0.0,0.0,0.0,0.0,0.0,0.0,0.0,0.0,0.0,0.0,0.0,0.0,0.0,0.0,0.0,0.0,0.0,0.0,0.0,0.0,0.0,0.0,0.0,0.0,0.0,0.0,0.0,0.0,0.0,0.0,0.0,0.0,0.0,0.0,0.0,0.0,0.0,0.0,0.0,0.0,0.0,0.0,0.0,0.0,0.0,0.0,0.0,0.0,0.0,0.0,0.0,0.0,0.0,0.0,0.0,0.0,0.0,0.0,0.0,0.0,0.0,0.0,0.0,0.0,0.0,0.0,0.0,0.0,0.0,0.0,0.0,0.0,0.0,0.0,0.0,0.0,0.0,0.0,0.0,0.0,0.0,0.0,0.0,0.0,0.0,0.0,0.0,0.0,0.0,0.0,0.0,0.0,0.0,0.0,0.0,0.0,0.0,0.0,0.0,0.0,0.0,0.0,0.0,0.0,0.0,0.0,0.0,0.0,0.0,0.0,0.0,0.0,0.0,0.0,0.0,0.0,0.0,0.0,0.0,0.0,0.0,0.0,0.0,0.0,0.0,0.0,0.0,0.0,0.0,0.0,0.0,0.0,0.0,0.0,0.0,0.0,0.0,0.0,0.0,0.0,0.0,0.0,0.0,0.0,0.0,0.0,0.0,0.0,0.0,0.0,0.0,0.0,0.0,0.0,0.0,0.0,0.0,0.0,0.0,0.0,0.0,0.0,0.0,0.0,0.0,0.0,0.0,0.0,0.0,0.0,0.0,0.0,0.0,0.0,0.0,0.0,0.0,0.0,0.0,0.0,0.0,0.0,0.0,0.0,0.0,0.0,0.0,0.0,0.0,0.0,0.0,0.0,0.0,0.0,0.0,0.0,0.0,0.0,0.0,0.0,0.0,0.0,0.0,0.0,0.0,0.0,0.0,0.0,0.0,0.0,0.0,0.0,0.0,0.0,0.0,0.0,0.0,0.0,0.0,0.0,0.0,0.0,0.0,0.0,0.0,0.0,0.0,0.0,0.0,0.0,0.0,0.0,0.0,0.0,0.0,0.0,0.0,0.0,0.0,0.0,0.0,0.0,0.0,0.0,0.0,0.0,0.0,0.0,0.0,0.0,0.0,0.0,0.0,0.0,0.0,0.0,0.0,0.0,0.0,0.0,0.0,0.0,0.0,0.0,0.0,0.0,0.0,0.0,0.0,0.0,0.0,0.0,0.0,0.0,0.0,0.0,0.0,0.0,0.0,0.0,0.0,0.0,0.0,0.0,0.0,0.0,0.0,0.0,0.0,0.0,0.0,0.0,0.0,0.0,0.0,0.0,0.0,0.0,0.0,0.0,0.0,0.0,0.0,0.0,0.0,0.0,0.0,0.0,0.0,0.0,0.0,0.0,0.0,0.0,0.0,0.0,0.0,0.0,0.0,0.0,0.0,0.0,0.0,0.0,0.0,0.0,0.0,0.0,0.0,0.0,0.0,0.0,0.0,0.0,0.0,0.0,0.0,0.0,0.0,0.0,0.0,0.0,0.0,0.0,0.0,0.0,0.0,0.0,0.0,0.0,0.0,0.0,0.0,0.0,0.0,0.0,0.0,0.0,0.0,0.0,0.0,0.0,0.0,0.0,0.0,0.0,0.0,0.0,0.0,0.0,0.0,0.0,0.0,0.0,0.0,0.0,0.0,0.0,0.0,0.0,0.0,0.0,0.0,0.0,0.0,0.0,0.0,0.0,0.0,0.0,0.0,0.0,0.0,0.0,0.0,0.0,0.0,0.0,0.0,0.0,0.0,0.0,0.0,0.0,0.0,0.0,0.0,0.0,0.0,0.0,0.0,0.0,0.0,0.0,0.0,0.0,0.0,0.0,0.0,0.0,0.0,0.0,0.0,0.0,0.0,0.0,0.0,0.0,0.0,0.0,0.0,0.0,0.0,0.0,0.0,0.0,0.0,0.0,0.0,0.0,0.0,0.0,0.0,0.0,0.0,0.0,0.0,0.0,0.0,0.0,0.0,0.0,0.0,0.0,0.0,0.0,0.0,0.0,0.0,0.0,0.0,0.0,0.0,0.0,0.0,0.0,0.0,0.0,0.0,0.0,0.0,0.0,0.0,0.0,0.0,0.0,0.0,0.0,0.0,0.0,0.0,0.0,0.0,0.0,0.0,0.0,0.0,0.0,0.0,0.0,0.0,0.0,0.0,0.0,0.0,0.0,0.0,0.0,0.0,0.0,0.0,0.0,0.0,0.0,0.0,0.0,0.0,0.0,0.0,0.0,0.0,0.0,0.0,0.0,0.0,0.0,0.0,0.0,0.0,0.0,0.0,0.0,0.0,0.0,0.0,0.0,0.0,0.0,0.0,0.0,0.0,0.0,0.0,0.0,0.0,0.0,0.0,0.0,0.0,0.0,0.0,0.0,0.0,0.0,0.0,0.0,0.0,0.0,0.0,0.0,0.0,0.0,0.0,0.0,0.0,0.0,0.0,0.0,0.0,0.0,0.0,0.0,0.0,0.0,0.0,0.0,0.0,0.0,0.0,0.0,0.0,0.0,0.0,0.0,0.0,0.0,0.0,0.0,0.0,0.0,0.0,0.0,0.0,0.0,0.0,0.0,0.0,0.0,0.0,0.0,0.0,0.0,0.0,0.0,0.0,0.0,0.0,0.0,0.0,0.0,0.0,0.0,0.0,0.0,0.0,0.0,0.0,0.0,0.0,0.0,0.0,0.0,0.0,0.0,0.0,0.0,0.0,0.0,0.0,0.0,0.0,0.0,0.0,0.0,0.0,0.0,0.0,0.0,0.0,0.0,0.0,0.0,0.0,0.0,0.0,0.0,0.0,0.0,0.0,0.0,0.0,0.0,0.0,0.0,0.0,0.0,0.0,0.0,0.0,0.0,0.0,0.0,0.0,0.0,0.0,0.0,0.0,0.0,0.0,0.0,0.0,0.0,0.0,0.0,0.0,0.0,0.0,0.0,0.0,0.0,0.0,0.0,0.0,0.0,0.0,0.0,0.0,0.0,0.0,0.0,0.0,0.0,0.0,0.0,0.0,0.0,0.0,0.0,0.0,0.0,0.0,0.0,0.0,0.0,0.0,0.0,0.0,0.0,0.0,0.0,0.0,0.0,0.0,0.0,0.0,0.0,0.0,0.0,0.0,0.0,0.0,0.0,0.0,0.0,0.0,0.0,0.0,0.0,0.0,0.0,0.0,0.0,0.0,0.0,0.0,0.0,0.0,0.0,0.0,0.0,0.0,0.0,0.0,0.0,0.0,0.0,0.0,0.0,0.0,0.0,0.0,0.0,0.0,0.0,0.0,0.0,0.0,0.0,0.0,0.0,0.0,0.0,0.0,0.0,0.0,0.0,0.0,0.0,0.0,0.0,0.0,0.0,0.0,0.0,0.0,0.0,0.0,0.0,0.0,0.0,0.0,0.0,0.0,0.0,0.0,0.0,0.0,0.0,0.0,0.0,0.0,0.0,0.0,0.0,0.0,0.0,0.0,0.0,0.0,0.0,0.0,0.0,0.0,0.0,0.0,0.0,0.0,0.0,0.0,0.0,0.0,0.0,0.0,0.0,0.0,0.0,0.0,0.0,0.0,0.0,0.0,0.0,0.0,0.0,0.0,0.0,0.0,0.0,0.0,0.0,0.0,0.0,0.0,0.0,0.0,0.0,0.0,0.0,0.0,0.0,0.0,0.0,0.0,0.0,0.0,0.0,0.0,0.0,0.0,0.0,0.0,0.0,0.0,0.0,0.0,0.0,0.0,0.0,0.0,0.0,0.0,0.0,0.0,0.0,0.0,0.0,0.0,0.0,0.0,0.0,0.0,0.0,0.0,0.0,0.0,0.0,0.0,0.0,0.0,0.0,0.0,0.0,0.0,0.0,0.0,4.8013,0.0,0.0,0.0,0.0,0.0,0.0,0.0,0.0,0.0,0.0,0.0,0.0,0.0,0.0,0.0,0.0,0.0,0.0,0.0,0.0,0.0,0.0,0.0,0.0,0.0,0.0,0.0,4.5591,4.5801,4.6208,4.6152,4.6257,4.6662,4.6562,4.6645,4.7058,4.7452,4.7672,4.7672,4.8113,4.8296,4.826,4.7462,4.7058,4.7058,0.0,0.0,0.0,0.0,0.0,0.0,0.0,0.0,0.0,0.0,0.0,0.0,0.0,0.0,0.0,0.0,0.0,0.0,0.0,0.0,0.0,0.0,0.0,0.0,0.0,0.0,0.0,0.0,0.0,0.0,0.0,0.0,0.0,0.0,0.0,0.0,0.0,0.0,0.0,0.0,0.0,0.0,0.0,0.0,0.0,0.0,0.0,0.0,0.0,0.0,0.0,0.0,0.0,0.0,0.0,0.0,0.0,0.0,0.0,0.0,0.0,0.0,0.0,0.0,0.0,0.0,0.0,0.0,0.0,0.0,0.0,4.8801,0.0,0.0,0.0,0.0,0.0,0.0,0.0,0.0,0.0,0.0,0.0,0.0,0.0,0.0,0.0,0.0,0.0,0.0,0.0,0.0,0.0,0.0,0.0,4.6576,4.6589,4.6545,4.6574,4.6665,4.6814,4.6663,4.6881,4.7554,4.7445,4.7664,4.8325,4.8306,4.8296,4.8296,4.8296,4.8296,4.8296,4.8296,4.8296,4.8296,4.8296,0.0,0.0,0.0,0.0,0.0,0.0,0.0,0.0,0.0,0.0,0.0,0.0,0.0,0.0,0.0,0.0,0.0,0.0,0.0,0.0,0.0,0.0,0.0,0.0,0.0,0.0,0.0,0.0,0.0,0.0,0.0,0.0,0.0,0.0,0.0,0.0,0.0,0.0,0.0,0.0,0.0,0.0,0.0,0.0,0.0,0.0,0.0,0.0,0.0,0.0,0.0,0.0,0.0,0.0,0.0,0.0,0.0,0.0,0.0,0.0,0.0,0.0,0.0,5.0829,5.1294,5.1513,5.2141,5.2431,5.2347,5.0723,4.9818,4.9525,4.9192,0.0,0.0,0.0,0.0,0.0,0.0,0.0,0.0,0.0,0.0,0.0,0.0,0.0,0.0,0.0,0.0,0.0,0.0,0.0,0.0,0.0,4.6733,4.6925,4.7529,4.7705,4.8082,4.8791,4.8644,4.8578,4.8689,4.8467,4.8356,4.8466,4.8344,4.8296,4.8296,4.8296,4.8296,4.8296,4.8296,4.8296,4.8296,4.8296,4.8296,4.8296,0.0,0.0,0.0,0.0,0.0,0.0,0.0,0.0,0.0,0.0,0.0,0.0,0.0,0.0,0.0,0.0,0.0,0.0,0.0,0.0,0.0,0.0,0.0,0.0,0.0,0.0,0.0,0.0,0.0,0.0,0.0,0.0,0.0,0.0,0.0,0.0,0.0,0.0,0.0,0.0,0.0,5.0462,5.0452,0.0,0.0,0.0,0.0,0.0,0.0,0.0,0.0,0.0,0.0,0.0,0.0,0.0,5.1837,5.1954,5.1954,5.1978,5.2036,5.2132,5.2228,5.2263,5.2486,5.2568,5.2568,5.2431,0.0,5.1682,5.1464,0.0,0.0,0.0,0.0,0.0,0.0,0.0,0.0,0.0,0.0,0.0,0.0,0.0,0.0,0.0,0.0,0.0,0.0,0.0,0.0,0.0,4.8356,4.8407,4.864,4.8653,4.8816,4.9131,4.8953,4.8849,4.8849,4.8615,4.8485,4.8485,4.8841,4.926,4.9691,4.9691,4.9691,4.9691,4.9691,4.9691,4.9691,4.9691,4.9177,4.8296,4.8296,0.0,0.0,0.0,0.0,0.0,0.0,0.0,0.0,0.0,0.0,0.0,0.0,0.0,0.0,0.0,0.0,0.0,0.0,0.0,0.0,0.0,0.0,0.0,0.0,0.0,0.0,0.0,0.0,0.0,0.0,0.0,0.0,0.0,0.0,0.0,0.0,0.0,0.0,0.0,5.0582,5.0802,5.0802,5.1165,5.1401,0.0,0.0,0.0,0.0,0.0,0.0,0.0,0.0,0.0,5.214,5.2411,5.2556,5.2638,5.2602,5.2672,5.275,5.275,5.2783,5.2839,5.2893,5.2926,5.2926,5.3006,5.2875,5.2581,5.228,5.1946,5.1663,0.0,0.0,0.0,0.0,5.136,5.1475,0.0,0.0,0.0,0.0,0.0,0.0,0.0,0.0,0.0,0.0,0.0,0.0,4.9771,4.9656,4.9521,4.9337,4.9249,4.9222,4.9164,4.9039,4.9045,4.9277,4.9093,4.9021,4.9196,4.9642,5.0188,5.0802,5.0802,5.0802,5.0802,5.0802,5.0802,5.0802,5.0802,5.0105,4.892,4.892,4.892,4.892,0.0,0.0,0.0,0.0,0.0,0.0,0.0,0.0,0.0,0.0,0.0,0.0,0.0,0.0,0.0,0.0,0.0,0.0,0.0,0.0,0.0,0.0,0.0,0.0,0.0,0.0,0.0,0.0,0.0,0.0,0.0,0.0,0.0,0.0,0.0,0.0,0.0,5.1416,5.1416,5.1416,5.194,5.2307,0.0,0.0,0.0,0.0,0.0,0.0,5.306,5.2974,5.2883,5.2883,5.2883,5.2883,5.2883,5.2883,5.3047,5.3364,5.3364,5.3506,5.3812,5.3812,5.3812,5.3812,5.3812,5.3648,5.3342,5.2778,5.2454,5.2278,5.2173,5.2114,5.2114,5.2114,5.2102,5.2185,0.0,0.0,0.0,0.0,0.0,0.0,0.0,0.0,0.0,0.0,0.0,5.0025,4.9893,4.9646,4.9469,4.9407,4.9329,4.9313,4.9384,4.9384,4.9759,5.0555,5.033,5.0477,5.1046,5.0851,5.0765,5.0802,5.0802,5.0802,5.0802,5.0802,5.0802,5.0802,5.0802,5.0765,5.0655,5.0655,5.0655,5.0655,5.0655,0.0,0.0,0.0,0.0,0.0,0.0,0.0,0.0,0.0,0.0,0.0,0.0,0.0,0.0,0.0,0.0,0.0,0.0,0.0,0.0,0.0,0.0,0.0,0.0,0.0,0.0,0.0,0.0,0.0,0.0,0.0,0.0,0.0,0.0,0.0,0.0,0.0,0.0,5.3067,5.3104,0.0,0.0,0.0,0.0,5.3214,5.3167,5.3203,5.3203,5.3193,5.3193,5.3193,5.3193,5.3193,5.3193,5.3193,5.357,5.4315,5.4315,5.473,5.5475,5.5475,5.5475,5.5475,5.5475,5.5023,5.4268,5.3342,5.2828,5.2579,5.2568,5.2488,5.2373,5.2373,5.2465,5.2568,0.0,0.0,0.0,0.0,0.0,0.0,0.0,0.0,5.0495,5.0473,5.0271,5.012,5.0025,4.9824,4.964,4.9552,4.9415,4.9585,5.0132,5.0217,5.06,5.1369,5.1197,5.1305,5.1753,5.1638,5.183,5.2333,5.2333,5.2333,5.2333,5.2333,5.2333,5.2333,5.2333,5.2333,5.226,5.1242,5.0802,5.0802,5.0802,5.0802,0.0,0.0,0.0,0.0,0.0,0.0,0.0,0.0,0.0,0.0,0.0,0.0,0.0,0.0,0.0,0.0,0.0,0.0,0.0,0.0,0.0,0.0,0.0,0.0,0.0,0.0,0.0,0.0,0.0,0.0,0.0,0.0,0.0,0.0,0.0,0.0,0.0,5.3214,5.3214,0.0,5.3214,5.3214,5.3214,5.3214,5.3214,5.3214,5.3214,5.3691,5.3959,5.3959,5.4473,5.473,5.473,5.473,5.4887,5.5181,5.5181,5.5328,5.5585,5.5585,5.5585,5.5585,5.5585,5.5438,5.5133,5.4807,5.3997,5.3006,5.3006,5.2974,5.2893,5.2893,5.2963,5.3006,0.0,0.0,0.0,0.0,0.0,0.0,0.0,0.0,5.0505,5.0505,5.0312,5.0163,5.0127,4.9931,4.9764,4.967,4.9808,5.0154,5.0764,5.1141,5.1669,5.2413,5.2367,5.2382,5.2602,5.2484,5.2674,5.3214,5.3214,5.3214,5.3214,5.3214,5.3214,5.3214,5.3214,5.3214,5.3141,5.204,5.161,5.161,5.161,5.161,5.1563,0.0,0.0,0.0,0.0,0.0,0.0,0.0,0.0,0.0,0.0,0.0,0.0,0.0,0.0,0.0,0.0,0.0,0.0,0.0,0.0,0.0,0.0,0.0,0.0,0.0,0.0,0.0,0.0,0.0,0.0,0.0,0.0,0.0,0.0,0.0,5.3214,5.3214,5.3214,5.3214,5.3214,5.3214,5.3324,5.3581,5.3581,5.3728,5.3995,5.4509,5.4803,5.4803,5.5328,5.5732,5.5978,5.5978,5.6271,5.6822,5.6822,5.6969,5.7226,5.7226,5.7226,5.7226,5.7226,5.7079,5.6822,5.6822,5.6014,5.4766,5.4216,5.3995,5.3995,5.3995,5.3995,5.3995,0.0,0.0,0.0,0.0,0.0,0.0,0.0,5.0579,5.0505,5.0505,5.0312,5.0169,5.0127,4.9937,4.9844,4.9844,5.0505,5.1062,5.1253,5.2124,5.2954,5.3701,5.382,5.3823,5.3622,5.3339,5.3198,5.3198,5.3225,5.3177,5.3177,5.3214,5.3214,5.3214,5.3214,5.3214,5.3214,5.3214,5.3214,5.3214,5.3214,5.3214,5.3104,0.0,0.0,0.0,0.0,0.0,0.0,0.0,0.0,0.0,0.0,0.0,0.0,0.0,0.0,0.0,0.0,0.0,0.0,0.0,0.0,0.0,0.0,0.0,0.0,0.0,0.0,0.0,0.0,0.0,0.0,0.0,0.0,0.0,5.3214,5.3214,5.3214,5.3214,5.3214,5.3251,5.3251,5.3251,5.3581,5.4363,5.4436,5.4803,5.5585,5.5658,5.5695,5.5695,5.5732,5.6124,5.6884,5.6921,5.7691,5.9233,5.9233,5.9636,6.0419,6.0419,6.0419,6.0419,6.0419,5.9967,5.9233,5.9233,5.8792,5.7923,5.6282,5.5658,5.5622,5.5622,5.5585,5.5585,0.0,0.0,0.0,0.0,0.0,0.0,0.0,5.0648,5.0548,5.0511,5.0384,5.0212,5.0095,5.0562,5.0882,5.0895,5.1643,5.2433,5.3193,5.3479,5.3854,5.4337,5.4213,5.4017,5.3833,5.3602,5.3474,5.3474,5.3349,5.3266,5.3266,5.3209,5.3214,5.3214,5.3214,5.3214,5.3214,5.3214,5.3214,5.3214,5.3214,5.3214,5.3177,0.0,0.0,0.0,0.0,0.0,0.0,0.0,0.0,0.0,0.0,0.0,0.0,0.0,0.0,0.0,0.0,0.0,0.0,0.0,0.0,0.0,0.0,0.0,0.0,0.0,0.0,0.0,0.0,0.0,0.0,0.0,0.0,5.3214,5.3214,5.3214,5.3214,5.3214,5.3691,5.4069,5.4069,5.4583,5.5034,5.5254,5.5254,5.5611,5.6418,5.7005,5.7593,5.8205,5.8767,5.9208,5.9428,5.9428,5.9636,6.0077,6.0077,6.0187,6.0419,6.0419,6.0419,6.0419,6.0419,6.026,6.0077,6.0077,5.993,5.9538,5.7336,5.6455,5.6418,5.5805,5.5585,5.5585,0.0,0.0,0.0,0.0,0.0,0.0,0.0,5.0658,5.0563,5.0511,5.0396,5.0394,5.0672,5.1085,5.1541,5.1878,5.2743,5.3544,5.414,5.4434,5.4648,5.4791,5.4533,5.4282,5.4052,5.3823,5.3719,5.367,5.3491,5.3543,5.3786,5.3708,5.3875,5.4179,5.3838,5.3691,5.3691,5.3324,5.3214,5.3214,5.3214,5.3214,5.3214,5.3214,5.3214,5.3214,5.3214,5.3214,5.3214,5.3214,0.0,0.0,0.0,0.0,0.0,0.0,0.0,0.0,0.0,0.0,0.0,0.0,0.0,0.0,0.0,0.0,0.0,0.0,0.0,0.0,0.0,0.0,0.0,0.0,5.3214,5.3324,5.3654,5.3691,5.3691,5.3691,5.4399,5.4913,5.4913,5.5611,5.6235,5.6576,5.6932,5.7446,5.8279,5.8767,5.9208,5.9673,6.015,6.0701,6.1398,6.1398,6.1765,6.2426,6.2426,6.2426,6.2426,6.2426,6.2426,6.2426,6.2426,6.2426,6.2426,6.2426,6.2426,0.0,0.0,0.0,0.0,0.0,5.7604,5.7604,0.0,0.0,0.0,0.0,0.0,0.0,0.0,5.0663,5.0568,5.0511,5.0483,5.0724,5.142,5.1687,5.21,5.2893,5.3807,5.4394,5.4534,5.5072,5.5295,5.5127,5.4814,5.4581,5.4355,5.4143,5.3944,5.3851,5.3741,5.3978,5.4507,5.4537,5.4924,5.5585,5.484,5.4473,5.4363,5.3654,5.3287,5.3214,5.3214,5.3214,5.3214,5.3214,5.3214,5.3214,5.3214,5.3214,5.3214,5.3214,0.0,0.0,0.0,0.0,0.0,0.0,0.0,0.0,0.0,0.0,0.0,0.0,0.0,0.0,0.0,0.0,0.0,0.0,0.0,0.0,0.0,0.0,0.0,0.0,5.3324,5.3618,5.4436,5.462,5.4656,5.4546,5.5328,5.5879,5.5879,5.6675,5.7508,5.8217,5.8939,5.9747,6.0627,0.0,0.0,0.0,0.0,6.1618,6.3086,6.3086,6.382,6.5288,6.5288,6.5288,6.5288,6.5288,6.5288,6.5288,6.5288,6.5288,6.5288,6.5288,6.5288,6.4995,6.1875,6.0566,6.0419,6.0419,6.0419,6.0419,0.0,0.0,0.0,0.0,0.0,0.0,0.0,5.0697,5.0658,5.0516,5.1015,5.1388,5.1503,5.2755,5.3696,5.3916,5.4789,5.5301,5.5272,5.5349,5.5295,5.5127,5.5026,5.4918,5.4791,5.4629,5.4422,5.4184,5.454,5.4704,5.4685,5.5158,5.5438,5.5585,5.5438,5.4997,5.4399,5.4216,5.3801,5.3214,5.3214,5.3214,5.3214,5.3214,5.3214,5.3214,5.3214,5.3214,5.3214,5.3214,5.3214,5.3214,5.3214,5.3214,0.0,0.0,0.0,0.0,0.0,0.0,0.0,0.0,0.0,0.0,0.0,0.0,0.0,0.0,0.0,0.0,0.0,0.0,0.0,5.4069,5.4179,5.4436,5.5254,5.5941,5.6088,5.5438,5.665,5.7519,5.7519,5.8841,5.9758,5.9905,6.0077,6.0811,6.2242,6.2352,6.2976,6.4297,6.4334,6.4481,6.4811,6.4811,6.4995,6.5288,0.0,0.0,6.5288,6.5288,6.5288,6.5288,6.5288,6.5288,6.5288,6.5288,6.5288,6.5105,6.3123,6.1545,6.0419,6.0419,6.0419,6.0419,0.0,0.0,0.0,0.0,0.0,0.0,0.0,5.0707,5.0793,5.1095,5.1475,5.2,5.2794,5.3722,5.442,5.4871,5.5341,5.5638,5.5537,5.5541,5.5413,5.5243,5.5236,5.5208,5.5064,5.4903,5.4723,5.4468,5.5003,5.534,5.5471,5.614,5.6671,5.6974,5.6569,5.5911,5.5084,5.468,5.4012,5.3214,5.3214,5.3214,5.3214,5.3214,5.3214,5.3214,5.3214,5.3214,5.3214,5.3214,5.3214,5.3214,5.3214,5.3214,5.3214,0.0,0.0,0.0,0.0,0.0,0.0,0.0,0.0,0.0,0.0,0.0,0.0,0.0,0.0,5.3801,5.3801,0.0,5.4509,5.495,5.4997,5.5438,5.665,5.7152,5.7262,5.687,5.7886,5.8767,5.9171,6.0272,6.119,6.1582,6.1998,6.2768,6.4004,6.404,6.4444,6.5251,6.5288,6.5472,6.5888,6.5888,6.6109,6.6512,6.6512,6.6512,6.6512,6.6512,6.6512,6.6512,6.6512,6.6512,6.6512,6.6512,6.6256,6.5815,6.4971,6.3906,6.2829,6.2829,6.2829,6.2829,0.0,0.0,0.0,0.0,0.0,0.0,0.0,5.0707,5.0957,5.1703,5.1966,5.2636,5.416,5.4512,5.4897,5.5555,5.5682,5.5682,5.5582,5.5615,5.5564,5.5407,5.5413,5.537,5.5249,5.5161,5.494,5.47,5.5283,5.5827,5.6317,5.7026,5.7767,5.8465,5.7799,5.6884,5.5829,5.5191,5.427,5.3282,5.3282,5.3251,5.3209,5.3209,5.3198,5.3214,5.3214,5.3214,5.3214,5.3214,5.3214,5.3214,5.3214,5.3214,5.3214,5.3214,5.3214,0.0,0.0,0.0,0.0,0.0,0.0,0.0,0.0,0.0,5.3434,5.3434,5.4069,5.462,5.462,5.5144,5.5658,5.5805,5.5952,5.6576,5.8033,5.8364,5.851,5.8694,5.9281,5.9967,6.0774,6.1594,6.2401,6.3233,6.3943,6.4677,6.5472,6.5508,6.5582,6.5778,6.5912,6.6316,6.6953,6.7136,6.7504,6.8178,6.8178,6.8178,6.8178,6.8178,6.8178,6.8178,6.8178,6.8178,6.8178,6.8178,6.776,6.7173,6.7026,6.6586,6.5949,6.5472,6.5288,6.5288,0.0,0.0,0.0,0.0,0.0,0.0,0.0,0.0,5.0957,5.1703,5.246,5.3284,5.4198,5.5011,5.5522,5.5692,5.5703,5.5682,5.5582,5.5615,5.5587,5.5473,5.5564,5.5526,5.5455,5.5376,5.5243,5.5033,5.5523,5.609,5.674,5.7369,5.8045,5.8747,5.8673,5.7709,5.6149,5.6075,5.505,5.3553,5.3553,5.3444,5.3287,5.3287,5.3261,5.3214,5.3214,5.3214,5.3214,5.3214,5.3214,5.3214,5.3214,5.3214,5.3214,5.3214,5.3214,5.3214,5.3214,5.3214,5.3214,5.3214,5.3214,5.3214,0.0,0.0,5.4289,5.4289,5.4913,5.5475,5.5475,5.5548,5.5842,5.6554,5.7262,5.8033,5.8939,5.9673,6.0419,6.1117,6.1263,6.1667,6.2462,6.3319,6.4163,6.4958,6.5105,6.5521,6.6329,6.6366,6.6696,6.7407,6.8128,6.8518,6.8641,6.9339,6.9743,6.9816,6.9816,6.9816,6.9816,6.9816,6.9816,6.9816,6.9816,6.9816,6.9816,6.9816,6.9779,6.9633,6.8898,6.8568,6.8224,6.6096,6.5288,6.5288,0.0,0.0,0.0,0.0,0.0,0.0,0.0,0.0,0.0,5.2441,5.2931,5.3656,5.4984,5.5429,5.5682,5.5703,5.5708,5.5698,5.5671,5.5671,5.566,5.5632,5.5654,5.5638,5.5581,5.5473,5.5364,5.5235,5.5855,5.6224,5.6349,5.7104,5.7557,5.7752,5.7752,5.7032,5.58,5.58,5.5044,5.3833,5.3767,5.369,5.359,5.3494,5.3444,5.342,5.3287,5.3324,0.0,5.3266,5.3272,5.3261,5.3198,5.3214,5.3214,5.3214,5.3214,5.3214,5.3214,5.3214,5.3324,0.0,5.3922,5.4032,5.4473,5.4851,5.5108,5.5108,5.5721,5.6308,5.6308,5.6675,5.7262,0.0,5.8462,5.9123,6.0419,6.0896,6.1594,6.2891,6.3038,6.3172,6.3503,6.431,6.5118,6.5925,6.5999,6.6366,6.715,6.765,6.8054,6.8385,6.9192,6.9596,6.9596,6.9926,7.011,7.011,7.011,7.011,7.011,7.011,7.011,7.011,7.011,7.011,7.011,7.011,7.011,7.0073,6.9743,6.9596,6.9376,6.7393,6.6696,6.6696,0.0,0.0,0.0,0.0,0.0,0.0,0.0,0.0,0.0,0.0,5.3197,5.3857,5.5516,5.5708,5.5708,5.5708,5.5708,5.5708,5.5708,5.5708,5.5708,5.5708,5.5708,5.5687,5.5643,5.5543,5.5461,5.5364,5.588,5.6134,5.6192,5.6823,5.7149,5.7197,5.7173,5.663,5.5697,5.5647,5.5064,5.4167,5.4107,5.3981,5.387,5.3795,5.3757,5.3709,5.3464,5.3481,5.3551,5.344,5.338,5.3339,5.3261,5.3198,5.3214,5.3214,5.3361,5.3544,5.3544,5.3691,5.3995,5.4583,5.473,5.4876,5.5475,5.5768,5.5941,5.5941,5.6565,5.7152,5.7152,5.7776,5.8499,5.9123,5.9563,6.026,6.1447,6.201,6.2744,6.3956,6.4506,6.4763,6.4763,6.5301,6.5962,6.6769,6.7026,6.743,6.7981,6.8788,6.9229,6.9229,7.0,7.044,7.044,7.066,7.077,7.077,7.077,7.077,7.077,7.077,7.077,7.077,7.077,7.077,7.077,7.077,7.077,7.0734,7.0513,7.044,7.0257,6.8875,6.8361,6.8361,0.0,0.0,0.0,0.0,0.0,0.0,0.0,0.0,0.0,0.0,0.0,0.0,0.0,5.5708,5.5708,5.5708,5.5708,5.5708,5.5708,5.5708,5.5708,5.5708,5.5708,5.5708,5.5703,5.5643,5.5571,5.561,5.5482,5.5868,5.6658,5.6632,5.701,5.7696,5.7617,5.705,5.6163,5.6056,5.5454,5.4581,5.4492,5.4337,5.41,5.418,5.4154,5.4055,5.3709,5.3661,5.3765,5.3632,5.3534,5.3461,5.3339,5.3261,5.3214,5.3214,5.3739,5.4363,5.4363,5.4913,5.5548,5.5548,5.5548,5.5585,5.5585,5.6198,5.6737,5.6737,5.7409,5.796,5.796,5.8609,5.9159,5.9196,6.0529,6.152,6.1594,6.3001,6.4029,6.4103,6.5485,6.6439,0.0,6.6439,6.6806,6.759,6.8385,6.8848,6.8862,6.9633,7.0073,7.0073,7.083,7.127,7.127,7.2055,7.2422,7.2422,7.2422,7.2422,7.2422,7.2422,7.2422,7.2422,7.2422,7.2422,7.2422,7.2422,7.2422,7.2349,7.1564,7.127,7.116,7.033,7.0036,7.0036,0.0,0.0,0.0,0.0,0.0,0.0,0.0,0.0,0.0,0.0,0.0,0.0,0.0,0.0,0.0,0.0,5.5708,5.5708,5.5708,5.5708,5.5708,5.5708,5.5708,5.5708,5.5708,5.5687,5.5676,5.5676,5.5638,5.5746,5.5969,5.5951,5.6056,5.6256,5.618,5.5962,5.5576,5.5475,5.5184,5.4875,5.4791,5.4675,5.4509,5.4533,5.4525,5.45,0.0,5.4325,5.4163,5.3925,5.3795,5.3649,5.339,5.3235,5.3287,5.3849,5.4583,5.5218,5.5218,5.5401,5.5732,5.6271,5.6418,5.6528,5.7079,5.7409,5.7593,5.7593,5.7813,5.8143,5.8682,5.9013,5.9563,6.0639,6.1263,6.201,6.3111,6.3735,6.4506,6.5558,6.6182,0.0,0.0,0.0,0.0,6.8458,6.8752,6.9119,6.9669,7.0477,7.0903,7.0903,7.1688,7.2078,7.2078,7.2349,7.2496,7.2496,7.2496,7.2496,7.2496,7.2496,7.2496,7.2496,7.2496,7.2496,7.2496,7.2496,7.2496,7.2459,7.2202,7.2078,7.2041,7.1798,7.1688,7.1541,0.0,0.0,0.0,0.0,0.0,0.0,0.0,0.0,0.0,0.0,0.0,0.0,0.0,0.0,0.0,0.0,0.0,5.5708,5.5708,5.5708,5.5708,5.5708,5.5708,5.5708,5.5708,5.5708,5.5708,5.5708,5.5708,5.5687,5.5649,5.5649,5.5626,5.5587,5.5499,5.5395,5.5339,5.5202,5.5092,5.5035,5.4956,5.4875,5.4769,5.4859,5.4874,0.0,5.4959,5.4867,5.4619,5.4305,5.4063,5.3831,5.3853,5.396,5.4179,5.4693,5.539,5.6014,5.6014,5.6246,5.6576,5.7116,5.7226,5.7373,5.7886,5.7997,5.7997,5.7997,5.8217,5.8584,5.9086,5.9673,6.0419,6.141,6.212,6.2891,6.3956,6.4617,6.5338,6.6366,6.6733,6.715,0.0,0.0,0.0,6.8862,6.9435,6.9986,7.0513,7.127,7.1711,7.1711,7.2239,7.2496,7.2496,7.2496,7.2496,7.2496,7.2496,7.2496,7.2496,7.2496,7.2496,7.2496,7.2496,7.2496,7.2496,7.2496,7.2496,7.2496,7.2496,7.2496,7.2496,7.2496,7.2496,7.2349,0.0,0.0,0.0,0.0,0.0,0.0,0.0,0.0,0.0,0.0,0.0,0.0,0.0,0.0,0.0,0.0,0.0,0.0,5.5708,5.5708,5.5708,5.5708,5.5708,5.5708,5.5708,5.5708,5.5708,5.5708,5.5708,5.5708,5.5708,5.5708,5.5708,5.5703,5.5543,5.5529,5.5473,5.5217,5.5133,5.5127,5.5057,5.4978,5.4934,5.5123,5.5163,5.5168,5.5326,5.5301,5.5116,5.4806,5.4383,5.4112,5.4744,5.5281,5.5658,5.5658,5.6235,5.6847,5.6847,5.7409,5.7997,5.7997,5.7997,5.7997,5.7997,5.7997,5.7997,5.8033,5.8682,5.9233,0.0,0.0,6.1594,6.163,6.3038,6.4103,6.4176,6.5521,6.6512,0.0,0.0,0.0,0.0,0.0,0.0,6.9009,0.0,7.1307,7.1344,7.2092,7.2496,7.2496,7.2496,7.2496,7.2496,7.2496,7.2496,7.2496,7.2496,7.2496,7.2496,7.2496,7.2496,7.2496,7.2496,7.2496,7.2496,7.2496,7.2496,7.2496,7.2496,7.2496,7.2496,7.2496,7.2496,7.2496,0.0,0.0,0.0,0.0,0.0,0.0,0.0,0.0,0.0,0.0,0.0,0.0,0.0,0.0,0.0,0.0,0.0,0.0,5.5708,5.5708,5.5708,5.5708,5.5708,5.5708,5.5708,5.5708,5.5708,5.5708,5.5708,5.5708,5.5708,5.5708,5.5708,5.5703,5.5626,5.5554,5.5543,5.5382,5.5307,5.5307,5.5288,5.5307,5.5269,5.537,5.5401,5.5401,5.5497,5.5791,5.6099,5.5815,5.5639,5.5532,5.5444,5.5908,5.6492,5.6492,5.7042,5.7703,5.7703,5.785,5.7997,5.7997,5.7997,5.7997,5.7997,5.7997,5.818,5.8756,5.9049,5.9563,0.0,0.0,0.0,6.2401,6.3392,0.0,6.4897,6.5852,0.0,6.7333,0.0,6.7958,6.8531,6.9302,0.0,0.0,7.1087,7.1564,7.2151,7.2386,7.2496,7.2496,7.2496,7.2496,7.2496,7.2496,7.2496,7.2496,7.2496,7.2496,7.2496,7.2496,7.2496,7.2496,7.2496,7.2496,7.2496,7.2496,7.2496,7.2496,7.2496,7.2496,7.2496,7.2496,7.2496,7.2496,0.0,0.0,0.0,0.0,0.0,0.0,0.0,0.0,0.0,0.0,0.0,0.0,0.0,0.0,0.0,0.0,0.0,0.0,0.0,5.5708,5.5708,5.5708,5.5708,5.5708,5.5708,5.5708,5.5708,5.5708,5.5708,5.5708,5.5708,5.5708,5.5708,5.5703,5.5643,5.5615,5.561,5.5476,5.5382,0.0,0.0,5.5382,5.5395,5.5529,5.5526,5.5531,5.5632,5.6217,5.6925,5.6835,0.0,5.6613,5.6257,5.6675,5.7336,5.7336,0.0,5.7997,5.7997,5.7997,5.7997,5.7997,5.7997,5.7997,5.7997,5.8253,5.8646,5.9123,5.9747,0.0,6.141,6.1887,0.0,0.0,0.0,0.0,6.5251,6.6292,6.7187,0.0,6.77,0.0,6.8811,6.9633,7.044,0.0,7.1637,7.2004,7.2496,7.2496,7.2496,7.2496,7.2496,7.2496,7.2496,7.2496,7.2496,7.2496,7.2496,7.2496,7.2496,7.2496,7.2496,7.2496,0.0,7.2496,7.2496,7.2496,7.2496,7.2496,7.2496,7.2496,7.2496,7.2496,7.2496,7.2496,0.0,0.0,0.0,0.0,0.0,0.0,0.0,0.0,0.0,0.0,0.0,0.0,0.0,0.0,0.0,0.0,0.0,0.0,0.0,0.0,5.5708,5.5708,5.5708,5.5708,5.5708,5.5708,5.5708,5.5708,5.5708,5.5708,5.5708,5.5708,5.5708,5.5703,5.5654,5.5626,5.5621,5.5473,5.5425,5.5425,5.5425,5.5425,5.5437,0.0,5.5626,5.567,5.5879,5.6722,5.7689,5.7818,5.7744,5.7491,5.7078,5.7446,5.7997,5.7997,5.7997,5.7997,5.7997,5.7997,5.7997,5.7997,5.7997,5.8033,5.8143,5.8682,5.9269,5.949,0.0,6.1643,6.1741,6.2328,6.2793,6.2793,0.0,6.5288,6.5288,6.6696,6.77,6.77,6.7811,6.8178,6.8972,6.9779,7.0587,7.1417,7.2114,7.2496,7.2496,7.2496,7.2496,7.2496,7.2496,7.2496,7.2496,7.2496,7.2496,7.2496,7.2496,7.2496,7.2496,7.2496,7.2496,7.2496,7.2496,0.0,7.2496,7.2496,7.2496,7.2496,7.2496,7.2496,7.2496,7.2496,7.2496,7.2496,0.0,0.0,0.0,0.0,0.0,0.0,0.0,0.0,0.0,0.0,5.5708,5.5708,0.0,0.0,0.0,0.0,0.0,0.0,0.0,0.0,0.0,5.5708,5.5708,5.5708,5.5708,5.5708,5.5708,5.5708,5.5708,5.5708,5.5708,5.5708,5.5708,5.5708,5.5698,5.5692,5.5692,5.5671,5.566,5.566,5.566,5.566,5.566,5.5682,0.0,0.0,5.7028,5.7933,5.8585,5.8737,5.8659,5.8392,5.7924,5.7886,5.7997,5.7997,5.7997,5.7997,5.7997,5.7997,5.7997,5.7997,5.7997,5.818,5.8829,5.9086,0.0,0.0,6.141,6.1777,6.2462,6.2719,6.2793,6.2793,6.4224,6.5288,6.5288,6.6696,6.77,0.0,6.8274,6.9009,0.0,0.0,0.0,0.0,0.0,7.2496,7.2496,7.2496,7.2496,7.2496,7.2496,7.2496,7.2496,7.2496,7.2496,7.2496,7.2496,7.2496,7.2496,7.2496,7.2496,7.2496,7.2496,0.0,7.2496,7.2496,7.2496,7.2496,7.2496,7.2496,7.2496,7.2496,7.2496,7.2496,0.0,0.0,0.0,0.0,0.0,0.0,0.0,5.5708,5.5708,5.5708,5.5708,5.5708,5.5708,5.5708,5.5708,0.0,0.0,0.0,0.0,0.0,0.0,0.0,0.0,0.0,5.5708,5.5708,5.5708,5.5708,0.0,5.5708,5.5708,5.5708,5.5708,5.5708,5.5708,5.5708,5.5708,5.5708,5.5708,5.5708,5.5708,5.5708,5.5708,0.0,0.0,0.0,0.0,5.8616,5.8813,5.8962,5.8882,5.8614,5.8156,5.7997,5.7997,5.7997,5.7997,5.7997,5.7997,5.7997,5.7997,5.7997,5.7997,5.8217,5.9013,0.0,0.0,0.0,6.1924,6.2352,6.2719,6.2793,0.0,6.2793,6.4224,6.5288,6.5288,6.6696,0.0,6.77,6.8421,6.9229,0.0,7.0844,0.0,0.0,0.0,7.2496,7.2496,7.2496,7.2496,7.2496,7.2496,7.2496,7.2496,7.2496,7.2496,7.2496,7.2496,7.2496,7.2496,7.2496,7.2496,7.2496,7.2496,0.0,7.2496,7.2496,7.2496,7.2496,7.2496,7.2496,7.2496,7.2496,7.2496,7.2496,0.0,0.0,0.0,0.0,0.0,0.0,0.0,5.5708,5.5708,5.5708,5.5708,5.5708,5.5708,5.5708,5.5708,0.0,0.0,0.0,0.0,0.0,0.0,0.0,0.0,0.0,0.0,0.0,0.0,5.5708,5.5708,0.0,0.0,0.0,0.0,0.0,5.5708,5.5708,5.5708,5.5708,5.5708,0.0,0.0,5.5708,0.0,0.0,0.0,0.0,0.0,5.9059,5.9056,5.9,5.8882,5.8614,5.8156,5.7997,5.7997,5.7997,5.7997,5.7997,5.7997,5.7997,5.7997,5.7997,5.8143,5.8474,5.9269,6.0077,0.0,6.1704,6.2352,6.2793,6.2793,6.2793,6.2793,0.0,6.4224,6.5288,6.5288,6.6696,6.77,0.0,6.8568,0.0,7.0036,7.0977,0.0,0.0,0.0,0.0,7.2496,7.2496,7.2496,7.2496,7.2496,7.2496,7.2496,7.2496,7.2496,7.2496,7.2496,7.2496,7.2496,7.2496,7.2496,7.2496,7.2496,0.0,0.0,7.2496,7.2496,7.2496,7.2496,7.2496,7.2496,7.2496,7.2496,7.2496,0.0,0.0,0.0,0.0,0.0,0.0,0.0,5.5708,5.5708,5.5708,5.5708,5.5708,5.5708,5.5708,5.5708,0.0,0.0,0.0,0.0,0.0,0.0,0.0,0.0,0.0,0.0,0.0,0.0,5.5708,5.5708,0.0,0.0,0.0,0.0,0.0,0.0,5.5708,5.5708,5.5708,0.0,0.0,0.0,0.0,0.0,0.0,0.0,0.0,0.0,5.9398,5.9782,5.9197,0.0,5.8614,5.8156,5.7997,5.7997,5.7997,0.0,0.0,5.7997,5.7997,5.7997,5.7997,5.8535,5.9306,6.0114,0.0,6.1704,6.2536,6.2756,6.2793,6.2793,6.2793,6.2793,0.0,0.0,6.5288,6.5288,6.6696,6.77,6.77,0.0,0.0,7.0073,7.1505,0.0,0.0,0.0,0.0,7.2496,7.2496,7.2496,7.2496,7.2496,7.2496,7.2496,7.2496,7.2496,7.2496,7.2496,7.2496,7.2496,7.2496,7.2496,7.2496,7.2496,0.0,0.0,7.2496,7.2496,7.2496,7.2496,7.2496,7.2496,7.2496,7.2496,7.2496,0.0,0.0,0.0,0.0,0.0,0.0,5.5708,5.5708,5.5708,5.5708,5.5708,5.5708,5.5708,5.5708,5.5708,5.5708,0.0,0.0,0.0,0.0,0.0,0.0,0.0,0.0,0.0,0.0,0.0,5.5708,5.5708,0.0,0.0,0.0,0.0,0.0,0.0,0.0,5.5708,5.5708,0.0,0.0,0.0,0.0,0.0,0.0,0.0,0.0,0.0,0.0,5.9748,5.9197,5.8805,0.0,5.8133,5.7997,5.7997,0.0,5.7997,5.7997,5.7997,5.7997,5.8107,5.8609,5.8976,5.9526,6.0823,0.0,6.1814,6.2646,6.2793,6.2793,6.2793,6.2793,6.2793,6.2793,6.4224,6.5288,6.5288,6.6696,6.7884,6.8348,6.9412,0.0,0.0,0.0,7.2496,0.0,0.0,0.0,7.2496,7.2496,7.2496,7.2496,7.2496,7.2496,7.2496,7.2496,7.2496,7.2496,7.2496,7.2496,7.2496,7.2496,7.2496,7.2496,7.2496,0.0,0.0,7.2496,7.2496,7.2496,7.2496,7.2496,7.2496,7.2496,7.2496,7.2496,0.0,0.0,0.0,0.0,0.0,5.5708,5.5708,5.5708,5.5708,5.5708,5.5708,5.5708,5.5708,5.5708,5.5708,5.5708,5.5708,0.0,0.0,0.0,0.0,0.0,0.0,0.0,0.0,0.0,5.5708,5.5708,5.5708,5.5708,0.0,0.0,0.0,0.0,0.0,0.0,0.0,0.0,0.0,0.0,0.0,0.0,0.0,0.0,0.0,0.0,0.0,0.0,0.0,0.0,0.0,5.8428,5.8111,5.7997,5.7997,5.7997,5.7997,5.7997,5.7997,5.7997,5.818,5.9013,5.938,5.9893,0.0,0.0,6.2108,6.2683,6.2793,6.2793,6.2793,6.2793,6.2793,6.2793,6.4224,6.5288,6.5288,6.6696,6.7994,0.0,0.0,7.0403,0.0,7.2041,7.2496,0.0,0.0,0.0,7.2496,7.2496,7.2496,7.2496,7.2496,7.2496,7.2496,7.2496,7.2496,7.2496,7.2496,7.2496,7.2496,7.2496,7.2496,7.2496,7.2496,0.0,0.0,7.2496,7.2496,7.2496,7.2496,7.2496,7.2496,7.2496,7.2496,7.2496,0.0,0.0,0.0,0.0,0.0,0.0,5.5708,5.5708,5.5708,5.5708,5.5708,5.5708,5.5708,5.5708,5.5708,5.5708,5.5708,0.0,0.0,0.0,0.0,0.0,0.0,0.0,0.0,0.0,5.5708,5.5708,5.5708,5.5708,5.5708,5.5708,5.5708,5.5708,0.0,0.0,0.0,0.0,0.0,0.0,0.0,0.0,0.0,0.0,0.0,0.0,0.0,0.0,0.0,0.0,0.0,0.0,0.0,5.7997,5.7997,5.7997,5.7997,5.7997,5.7997,5.7997,5.818,5.9013,5.9783,6.0603,0.0,6.2218,6.2793,6.2793,6.2793,6.2793,6.2793,6.2793,6.2793,6.2793,6.4224,6.5288,6.5288,6.6696,6.7994,0.0,0.0,7.0403,7.1233,7.2041,7.2496,0.0,0.0,0.0,7.2496,7.2496,7.2496,7.2496,7.2496,7.2496,7.2496,7.2496,7.2496,7.2496,7.2496,7.2496,7.2496,7.2496,7.2496,0.0,0.0,0.0,0.0,7.2496,7.2496,7.2496,7.2496,7.2496,7.2496,7.2496,7.2496,7.2496,0.0,0.0,0.0,0.0,0.0,0.0,0.0,5.5708,5.5708,5.5708,5.5708,5.5708,5.5708,5.5708,5.5708,5.5708,5.5708,0.0,0.0,0.0,0.0,0.0,0.0,0.0,0.0,0.0,5.5708,5.5708,5.5708,5.5708,5.5708,5.5708,5.5708,5.5708,5.5708,0.0,0.0,0.0,0.0,0.0,0.0,0.0,0.0,0.0,0.0,0.0,0.0,0.0,0.0,0.0,0.0,0.0,0.0,0.0,0.0,5.7997,5.7997,5.7997,5.7997,5.84,5.9013,5.982,6.0639,6.1447,6.2254,6.2609,6.2793,6.2793,6.2793,6.2793,6.2793,6.2793,6.2793,6.2793,6.4224,6.5288,0.0,0.0,0.0,6.9559,7.0917,7.1835,0.0,0.0,7.2496,0.0,0.0,0.0,7.2496,7.2496,7.2496,7.2496,7.2496,7.2496,7.2496,7.2496,7.2496,7.2496,7.2496,7.2496,7.2496,7.2496,7.2496,0.0,0.0,0.0,0.0,7.2496,7.2496,7.2496,7.2496,7.2496,7.2496,7.2496,7.2496,7.2496,0.0,0.0,0.0,0.0,0.0,0.0,0.0,5.5708,5.5708,5.5708,5.5708,5.5708,5.5708,5.5708,5.5708,5.5708,5.5708,0.0,0.0,0.0,0.0,0.0,0.0,0.0,0.0,5.5708,5.5708,5.5708,5.5708,5.5708,5.5708,5.5708,5.5708,5.5708,5.5708,0.0,0.0,0.0,0.0,0.0,0.0,0.0,5.7048,0.0,0.0,0.0,0.0,0.0,0.0,0.0,0.0,0.0,0.0,0.0,0.0,0.0,5.7997,5.7997,5.7997,5.8584,5.938,6.0187,6.1006,6.1814,6.2609,6.2793,6.2793,6.2793,6.2793,6.2793,6.2793,6.2793,6.2903,6.3246,6.4407,0.0,0.0,0.0,0.0,6.9889,0.0,0.0,0.0,7.2496,7.2496,0.0,0.0,0.0,7.2496,7.2496,7.2496,7.2496,7.2496,7.2496,7.2496,7.2496,7.2496,7.2496,7.2496,7.2496,7.2496,7.2496,7.2496,0.0,0.0,0.0,0.0,7.2496,7.2496,7.2496,7.2496,7.2496,7.2496,7.2496,7.2496,7.2496,0.0,0.0,0.0,0.0,0.0,0.0,0.0,5.5708,5.5708,5.5708,5.5708,5.5708,5.5708,5.5708,5.5708,5.5708,0.0,0.0,0.0,0.0,0.0,0.0,0.0,0.0,0.0,5.5708,5.5708,5.5708,5.5708,5.5708,5.5708,5.5708,5.5708,5.5708,5.5708,5.5708,0.0,0.0,0.0,0.0,5.6413,5.7084,0.0,0.0,0.0,0.0,0.0,0.0,0.0,0.0,0.0,0.0,0.0,0.0,0.0,0.0,0.0,0.0,0.0,5.8609,5.9453,6.0224,6.1043,6.1887,6.2646,6.2793,0.0,6.2793,6.2793,6.2793,6.2793,6.2793,6.3086,6.3943,6.4787,0.0,0.0,6.7297,0.0,0.0,7.1505,0.0,7.2496,7.2496,7.2496,0.0,0.0,0.0,7.2496,7.2496,7.2496,7.2496,7.2496,7.2496,7.2496,7.2496,7.2496,7.2496,7.2496,7.2496,7.2496,7.2496,7.2496,0.0,0.0,0.0,0.0,7.2496,7.2496,7.2496,7.2496,7.2496,7.2496,7.2496,7.2496,7.2496,0.0,0.0,0.0,0.0,0.0,0.0,0.0,0.0,0.0,0.0,5.5708,5.5708,5.5708,5.5708,5.5708,0.0,0.0,0.0,0.0,0.0,0.0,0.0,0.0,0.0,0.0,5.5708,5.5708,5.5708,5.5708,5.5708,5.5708,5.5708,5.5708,5.5708,5.5708,5.5708,0.0,0.0,0.0,0.0,5.6395,5.7017,0.0,0.0,0.0,0.0,5.9101,5.8855,0.0,0.0,0.0,0.0,0.0,0.0,0.0,0.0,5.7997,5.7997,5.7997,0.0,6.015,6.0346,6.1484,6.2572,0.0,6.2793,6.2793,6.2793,6.2793,6.2793,6.2793,6.2793,6.3086,6.3943,0.0,6.5582,6.6402,0.0,0.0,7.0036,7.1505,7.2496,7.2496,7.2496,7.2496,0.0,0.0,7.2496,7.2496,7.2496,7.2496,7.2496,7.2496,7.2496,7.2496,7.2496,7.2496,7.2496,7.2496,7.2496,7.2496,7.2496,7.2496,0.0,0.0,0.0,7.2496,7.2496,7.2496,7.2496,7.2496,7.2496,7.2496,7.2496,7.2496,7.2496,0.0,0.0,0.0,0.0,0.0,0.0,0.0,0.0,0.0,0.0,0.0,0.0,0.0,0.0,0.0,0.0,0.0,0.0,0.0,0.0,0.0,0.0,0.0,5.5708,5.5708,5.5708,5.5708,5.5708,5.5708,5.5708,5.5708,5.5708,5.5708,5.5708,5.5708,5.5708,0.0,0.0,0.0,0.0,5.6894,0.0,0.0,0.0,0.0,0.0,5.8933,5.8729,0.0,5.84,5.8212,5.7997,0.0,0.0,0.0,0.0,5.7997,5.7997,5.7997,5.9171,6.0419,6.0419,6.1618,6.2793,6.2793,6.2793,6.2793,6.2793,6.2793,6.2793,6.2793,6.3123,6.3686,0.0,6.5338,0.0,0.0,0.0,7.022,7.0624,7.1762,7.2496,0.0,0.0,0.0,0.0,0.0,7.2496,7.2496,7.2496,7.2496,7.2496,7.2496,7.2496,7.2496,7.2496,7.2496,7.2496,7.2496,7.2496,7.2496,7.2496,7.2496,0.0,0.0,0.0,7.2496,7.2496,7.2496,7.2496,7.2496,7.2496,7.2496,7.2496,7.2496,7.2496,0.0,0.0,0.0,0.0,0.0,0.0,0.0,0.0,0.0,0.0,0.0,0.0,0.0,0.0,0.0,0.0,0.0,0.0,0.0,0.0,0.0,0.0,0.0,5.5708,5.5708,5.5708,5.5708,5.5708,5.5708,5.5708,5.5708,5.5708,5.5708,5.5708,5.5708,5.5708,0.0,0.0,0.0,0.0,5.7572,0.0,0.0,0.0,0.0,0.0,0.0,0.0,0.0,5.8246,5.8099,5.7997,5.7997,0.0,0.0,0.0,0.0,0.0,5.7997,5.9171,6.0419,6.0419,6.1618,6.2793,6.2793,6.2793,6.2793,6.2793,6.2793,6.2793,6.2793,6.3503,0.0,0.0,0.0,0.0,6.8678,6.9596,7.0403,7.1197,7.2004,0.0,7.2496,7.2496,0.0,0.0,0.0,7.2496,7.2496,7.2496,7.2496,7.2496,7.2496,7.2496,7.2496,7.2496,7.2496,7.2496,7.2496,7.2496,7.2496,7.2496,7.2496,7.2496,0.0,0.0,7.2496,7.2496,7.2496,7.2496,7.2496,7.2496,7.2496,7.2496,7.2496,7.2496,0.0,0.0,0.0,0.0,0.0,0.0,0.0,0.0,0.0,0.0,0.0,0.0,0.0,0.0,0.0,0.0,0.0,0.0,0.0,0.0,0.0,5.5708,5.5708,5.5708,5.5708,5.5708,5.5708,5.5708,5.5708,5.5708,5.5708,5.5708,5.5708,5.5708,5.5708,5.5708,5.5742,0.0,0.0,5.6837,5.8065,0.0,0.0,0.0,0.0,0.0,0.0,0.0,0.0,5.819,5.8099,5.7997,5.7997,0.0,0.0,0.0,0.0,0.0,5.7997,5.9171,6.0419,6.0419,6.1618,6.2793,6.2793,6.2793,6.2793,6.2793,6.2793,6.2793,6.2793,6.3503,6.4347,0.0,0.0,6.7847,0.0,0.0,7.0403,7.1197,0.0,7.2496,7.2496,7.2496,0.0,0.0,0.0,7.2496,7.2496,7.2496,7.2496,7.2496,7.2496,7.2496,7.2496,7.2496,7.2496,7.2496,7.2496,7.2496,7.2496,7.2496,7.2496,7.2496,0.0,7.2496,7.2496,7.2496,7.2496,7.2496,7.2496,7.2496,7.2496,7.2496,7.2496,7.2496,0.0,0.0,0.0,0.0,0.0,0.0,0.0,0.0,0.0,0.0,0.0,0.0,0.0,0.0,0.0,0.0,0.0,0.0,0.0,0.0,0.0,5.5708,5.5708,5.5708,5.5708,5.5708,5.5708,5.5708,5.5708,5.5708,5.5708,5.5676,5.5638,5.5571,5.5643,5.5907,5.6328,5.6683,5.7264,5.7992,0.0,0.0,0.0,0.0,0.0,0.0,0.0,0.0,0.0,0.0,5.8042,5.7997,5.7997,0.0,0.0,0.0,0.0,0.0,5.7997,5.9171,6.0419,6.0419,6.1618,6.2793,6.2793,6.2793,6.2793,6.2793,6.2793,6.2939,6.3429,0.0,6.5154,6.6402,0.0,6.8141,6.9376,6.9853,7.055,0.0,0.0,7.2496,7.2496,7.2496,0.0,0.0,0.0,0.0,7.2496,7.2496,7.2496,7.2496,7.2496,7.2496,7.2496,7.2496,7.2496,7.2496,7.2496,7.2496,7.2496,7.2496,7.2496,7.2496,0.0,7.2496,7.2496,7.2496,7.2496,7.2496,7.2496,7.2496,7.2496,7.2496,7.2496,7.2496,0.0,0.0,0.0,0.0,0.0,0.0,0.0,0.0,0.0,0.0,0.0,0.0,0.0,0.0,0.0,0.0,0.0,0.0,0.0,0.0,5.5708,5.5708,5.5708,5.5708,5.5708,5.5708,5.5708,5.5708,5.5708,5.5698,5.5687,5.5621,5.5531,5.5523,5.5762,5.6205,5.679,5.72,5.7965,5.897,0.0,0.0,0.0,0.0,0.0,0.0,0.0,0.0,0.0,0.0,0.0,0.0,0.0,0.0,0.0,5.7997,5.7997,5.7997,5.7997,5.9171,6.0419,6.0419,6.1618,6.2793,6.2793,6.2793,6.2793,6.2793,6.2793,6.305,6.3956,6.4897,0.0,6.748,6.7847,6.8471,6.9889,7.0257,7.0917,0.0,0.0,7.2496,7.2496,0.0,0.0,0.0,0.0,0.0,7.2496,7.2496,7.2496,7.2496,7.2496,7.2496,7.2496,7.2496,7.2496,7.2496,7.2496,7.2496,7.2496,7.2496,7.2496,7.2496,7.2496,7.2496,7.2496,7.2496,7.2496,7.2496,7.2496,7.2496,7.2496,7.2496,7.2496,7.2496,0.0,0.0,0.0,0.0,0.0,0.0,0.0,0.0,0.0,0.0,0.0,0.0,0.0,0.0,0.0,0.0,0.0,0.0,0.0,0.0,5.5708,5.5708,5.5708,5.5708,5.5708,5.5708,5.5708,5.5708,5.5708,5.5676,5.5621,5.5558,5.5485,5.5562,5.6361,5.6708,5.6799,5.8302,5.8911,5.8958,5.9345,0.0,0.0,0.0,0.0,0.0,0.0,0.0,0.0,0.0,0.0,0.0,0.0,0.0,5.7997,5.7997,5.7997,5.7997,5.7997,5.9171,6.0419,6.0419,6.1618,6.2793,6.2793,6.2793,6.2793,6.2793,0.0,0.0,0.0,6.5375,6.6696,6.7554,6.8311,6.9119,6.9963,0.0,7.1527,0.0,0.0,0.0,0.0,0.0,0.0,0.0,0.0,0.0,7.2496,7.2496,7.2496,7.2496,7.2496,7.2496,7.2496,7.2496,7.2496,7.2496,7.2496,7.2496,7.2496,7.2496,7.2496,7.2496,7.2496,7.2496,7.2496,7.2496,7.2496,7.2496,7.2496,7.2496,7.2496,7.2496,7.2496,7.2496,0.0,0.0,0.0,0.0,0.0,0.0,0.0,0.0,0.0,0.0,0.0,0.0,0.0,0.0,0.0,0.0,0.0,0.0,0.0,5.5708,5.5708,5.5708,5.5708,5.5708,5.5708,5.5708,5.5687,5.5649,5.5537,5.5461,5.5395,5.5333,5.5587,5.6083,5.6459,5.7158,5.8127,5.874,5.917,5.9533,5.9537,5.9392,0.0,0.0,0.0,0.0,0.0,0.0,0.0,0.0,5.7997,5.7997,5.7997,5.7997,5.7997,5.7997,5.7997,5.8107,5.8621,5.9563,6.0529,6.1006,6.1985,6.2793,6.2793,6.2793,6.2793,6.2793,6.3246,0.0,0.0,0.0,6.737,6.7664,6.8385,6.9192,7.0,7.0793,7.16,7.2422,0.0,0.0,0.0,0.0,0.0,0.0,0.0,0.0,7.2496,7.2496,7.2496,7.2496,7.2496,7.2496,7.2496,7.2496,7.2496,7.2496,7.2496,7.2496,7.2496,7.2496,7.2496,7.2496,7.2496,7.2496,7.2496,7.2496,7.2496,7.2496,7.2496,7.2496,7.2496,7.2496,7.2496,7.2496,0.0,0.0,0.0,0.0,0.0,0.0,0.0,0.0,0.0,0.0,0.0,0.0,0.0,0.0,0.0,0.0,0.0,0.0,5.5708,5.5708,5.5708,5.5708,5.5708,5.5698,5.5682,5.5676,5.566,5.5615,5.5425,5.5314,5.5249,5.5489,5.5853,5.6414,5.6989,5.7844,5.8881,5.914,5.952,5.9877,5.9624,5.9401,0.0,0.0,0.0,0.0,0.0,0.0,0.0,0.0,5.7997,5.7997,5.7997,5.7997,5.7997,5.7997,5.818,5.851,5.9049,5.9967,6.0896,6.1459,6.2218,6.2793,6.2793,6.2793,6.2866,6.316,6.409,6.5191,6.6292,0.0,0.0,0.0,6.8752,6.9559,7.0367,7.116,7.1857,7.2422,0.0,0.0,0.0,0.0,0.0,0.0,0.0,0.0,0.0,7.2496,7.2496,7.2496,7.2496,7.2496,7.2496,7.2496,7.2496,7.2496,7.2496,7.2496,7.2496,7.2496,7.2496,7.2496,7.2496,7.2496,7.2496,7.2496,7.2496,7.2496,7.2496,7.2496,7.2496,7.2496,7.2496,7.2496,0.0,0.0,0.0,0.0,0.0,0.0,0.0,0.0,0.0,0.0,0.0,0.0,0.0,0.0,0.0,0.0,0.0,0.0,5.5708,5.5708,5.5708,5.5708,5.5708,5.5676,5.5615,5.5615,5.5615,5.5615,5.5415,5.5288,5.5228,5.6023,5.6407,5.6483,5.8158,5.8874,5.8874,5.9671,5.9966,5.9877,5.9685,5.9492,5.9244,0.0,0.0,0.0,0.0,0.0,0.0,0.0,5.7997,5.7997,5.7997,5.7997,5.7997,5.8033,5.8584,5.9196,5.9221,6.037,6.1606,6.1606,6.2218,6.2793,6.2793,6.2793,6.305,6.3906,6.5375,6.6512,6.6512,6.715,0.0,6.8788,6.9596,7.0367,7.1197,7.1967,7.2496,7.2496,7.2496,0.0,0.0,0.0,0.0,0.0,0.0,0.0,0.0,7.2496,7.2496,7.2496,7.2496,7.2496,7.2496,7.2496,7.2496,7.2496,7.2496,7.2496,7.2496,7.2496,7.2496,7.2496,7.2496,7.2496,7.2496,7.2496,7.2496,7.2496,7.2496,7.2496,7.2496,7.2496,7.2496,7.2496,0.0,0.0,0.0,0.0,0.0,0.0,0.0,0.0,0.0,0.0,0.0,0.0,0.0,0.0,0.0,0.0,0.0,0.0,5.5708,5.5708,5.5687,5.5643,5.5643,5.5593,5.5443,5.5395,5.537,5.537,5.5202,5.5389,5.5984,5.617,5.6892,5.803,5.8524,5.9039,5.9584,5.9812,5.9877,5.9816,5.9589,5.9401,5.9187,0.0,0.0,0.0,0.0,0.0,0.0,0.0,0.0,0.0,5.8682,5.8829,5.8976,5.9538,5.9869,6.015,6.075,6.1227,6.1741,6.2291,6.2609,6.2793,6.2793,6.2793,6.3196,6.464,6.5778,6.6659,6.726,6.7554,0.0,6.8788,6.9596,7.0367,7.1197,7.1967,7.2496,7.2496,7.2496,0.0,0.0,0.0,0.0,0.0,0.0,0.0,0.0,7.2496,7.2496,7.2496,7.2496,7.2496,7.2496,7.2496,7.2496,7.2496,7.2496,7.2496,7.2496,7.2496,7.2496,7.2496,7.2496,7.2496,7.2496,7.2496,7.2496,7.2496,7.2496,7.2496,7.2496,7.2496,7.2496,7.2496,0.0,0.0,0.0,0.0,0.0,0.0,0.0,0.0,0.0,0.0,5.5671,5.566,0.0,0.0,0.0,0.0,0.0,0.0,0.0,5.5687,5.5643,5.5543,5.5514,5.5443,5.5314,5.5553,5.569,5.569,5.5621,5.5824,5.6291,5.693,5.7764,5.8718,5.9022,5.9414,5.9874,5.9874,5.9816,5.9714,5.9492,5.9328,5.9139,0.0,0.0,0.0,0.0,0.0,0.0,0.0,0.0,0.0,5.9526,5.9673,5.9783,6.0272,6.0639,6.097,6.1484,6.1814,6.2181,6.2683,6.2793,6.2903,6.3246,6.3563,6.415,0.0,6.6402,6.71,6.7627,6.77,0.0,6.9192,6.9779,7.0477,7.16,7.2188,7.2496,7.2496,7.2496,0.0,0.0,0.0,0.0,0.0,0.0,0.0,0.0,7.2496,7.2496,7.2496,7.2496,7.2496,7.2496,7.2496,7.2496,7.2496,7.2496,7.2496,7.2496,7.2496,7.2496,7.2496,7.2496,7.2496,7.2496,7.2496,7.2496,7.2496,7.2496,7.2496,7.2496,7.2496,7.2496,7.2496,0.0,0.0,5.5708,5.5708,0.0,0.0,0.0,0.0,0.0,0.0,5.5615,5.5554,0.0,0.0,0.0,0.0,0.0,0.0,0.0,0.0,5.5587,5.5479,5.5395,5.5333,5.5284,5.5953,5.6329,5.6405,5.6542,5.6573,5.6549,5.8061,5.8774,5.8816,5.9566,5.9857,5.9765,5.9765,5.9714,5.9581,5.9355,5.93,5.9241,5.8799,0.0,0.0,0.0,0.0,0.0,0.0,0.0,0.0,6.0493,6.0529,6.0529,6.0603,6.1153,6.1704,6.1704,6.2254,6.2793,6.2793,6.2793,6.305,6.398,6.4787,6.5508,6.6329,0.0,6.77,6.77,6.77,6.8214,6.9816,7.011,7.066,0.0,7.2496,7.2496,7.2496,7.2496,0.0,0.0,0.0,0.0,0.0,0.0,0.0,0.0,7.2496,7.2496,7.2496,7.2496,7.2496,7.2496,7.2496,7.2496,7.2496,7.2496,7.2496,7.2496,7.2496,7.2496,7.2496,7.2496,7.2496,7.2496,7.2496,7.2496,7.2496,7.2496,7.2496,7.2496,7.2496,7.2496,7.2496,0.0,0.0,5.5708,5.5708,0.0,0.0,0.0,0.0,0.0,0.0,0.0,0.0,0.0,0.0,0.0,0.0,0.0,0.0,0.0,0.0,5.5564,5.5445,5.5228,5.5389,5.6045,5.6237,5.6595,5.7241,5.7218,5.7522,5.8173,5.8451,5.8932,5.958,5.9626,5.9659,5.9642,5.9642,5.9589,5.9483,5.93,5.9532,5.9946,5.9536,5.9756,0.0,0.0,0.0,0.0,0.0,0.0,0.0,6.1153,6.1337,6.1484,6.2095,6.2426,6.2536,6.2536,6.2683,6.2793,6.2793,6.2793,6.3196,6.4701,6.5178,6.5508,6.6329,6.715,6.77,6.77,6.77,6.8214,6.9816,7.011,7.066,7.2275,7.2496,7.2496,7.2496,0.0,0.0,0.0,0.0,0.0,0.0,0.0,0.0,7.2496,7.2496,7.2496,7.2496,7.2496,7.2496,7.2496,7.2496,7.2496,0.0,7.2496,7.2496,7.2496,7.2496,7.2496,7.2496,7.2496,7.2496,7.2496,7.2496,7.2496,7.2496,7.2496,7.2496,7.2496,7.2496,7.2496,7.2496,0.0,0.0,0.0,0.0,0.0,0.0,0.0,0.0,0.0,0.0,0.0,0.0,0.0,0.0,0.0,0.0,0.0,0.0,0.0,0.0,5.5605,5.586,5.5715,5.601,5.6808,5.7226,5.7643,5.806,5.8383,5.8586,5.8664,5.9011,5.9353,5.9714,5.9633,5.9563,5.9474,5.9474,5.9401,5.929,5.9539,5.9851,6.017,6.0185,6.0436,6.0808,6.0919,0.0,0.0,0.0,0.0,0.0,0.0,0.0,6.2254,6.2683,6.2793,6.2793,6.2793,6.2793,6.2793,6.2793,6.2793,6.3233,6.4921,6.5288,6.5632,6.6843,6.7407,6.77,6.77,6.77,6.8214,6.9816,7.011,7.066,7.2275,7.2496,7.2496,7.2496,0.0,0.0,0.0,0.0,0.0,0.0,0.0,7.2496,7.2496,7.2496,7.2496,7.2496,7.2496,7.2496,7.2496,7.2496,7.2496,7.2496,7.2496,7.2496,7.2496,7.2496,7.2496,7.2496,7.2496,7.2496,7.2496,7.2496,7.2496,7.2496,7.2496,7.2496,7.2496,7.2496,7.2496,7.2569,0.0,0.0,0.0,0.0,0.0,0.0,0.0,0.0,0.0,0.0,0.0,0.0,0.0,0.0,0.0,0.0,0.0,0.0,0.0,0.0,0.0,5.6594,5.6561,5.6899,5.7642,5.8363,5.8772,5.8908,5.9492,5.9467,5.8797,5.9462,5.9727,5.9581,5.9536,5.9438,5.93,5.9431,5.9374,5.9283,6.0011,6.0369,6.0561,0.0,0.0,0.0,6.1654,6.1814,6.1924,6.2572,0.0,0.0,0.0,0.0,6.2793,6.2793,6.2793,6.2793,6.2793,6.2793,6.2793,6.2793,6.2903,6.3417,6.4958,6.5398,6.5925,6.7407,6.77,6.77,6.77,6.77,6.8214,6.9816,7.011,7.066,7.2275,7.2496,7.2496,7.2496,0.0,0.0,0.0,0.0,0.0,0.0,0.0,7.2496,7.2496,7.2496,7.2496,7.2496,7.2496,7.2496,7.2496,7.2496,7.2496,7.2496,7.2496,7.2496,7.2496,7.2496,7.2496,7.2496,7.2496,7.2496,7.2496,7.2496,7.2496,7.2496,7.2496,7.2496,7.2496,7.2496,7.251,7.2649,0.0,0.0,0.0,0.0,0.0,0.0,0.0,0.0,0.0,0.0,5.5604,5.5575,0.0,5.5564,5.5543,5.5529,5.5543,5.5593,5.5541,0.0,0.0,5.7579,5.7534,5.7844,5.86,5.8752,5.9093,5.9742,5.9795,0.0,0.0,0.0,0.0,5.9483,5.9197,5.9148,5.9271,5.9895,6.0145,6.018,6.0868,6.156,0.0,0.0,0.0,0.0,0.0,0.0,6.2646,6.2756,6.2793,0.0,0.0,0.0,6.2793,6.2793,6.2793,6.2793,6.2793,6.2793,6.2793,6.2793,6.3356,6.4163,6.5068,6.5852,6.6586,0.0,6.77,6.77,6.77,6.77,6.8214,6.9816,7.011,7.066,7.2275,7.2496,7.2496,7.2496,0.0,0.0,0.0,0.0,0.0,0.0,7.2496,7.2496,7.2496,7.2496,7.2496,7.2496,7.2496,7.2496,7.2496,7.2496,7.2496,7.2496,7.2496,7.2496,7.2496,7.2496,7.2496,7.2496,7.2496,7.2496,7.2496,7.2496,7.2496,7.2496,7.2496,7.2496,7.2496,7.2496,7.2567,7.2791,0.0,0.0,0.0,0.0,0.0,0.0,0.0,0.0,0.0,0.0,0.0,5.5554,5.5529,5.5581,5.5554,5.5529,5.5963,5.6381,5.6703,5.7052,5.7596,5.8368,5.8404,5.8773,5.9451,5.9482,5.9608,5.9849,0.0,0.0,0.0,5.9337,5.9272,0.0,0.0,0.0,5.9621,6.0004,6.039,6.0768,6.1586,6.2063,0.0,0.0,0.0,0.0,0.0,0.0,0.0,0.0,0.0,6.2793,6.2793,0.0,0.0,0.0,6.2793,6.2793,6.2793,6.2793,6.2793,6.2793,6.3466,6.431,6.5118,6.5925,6.6733,6.7517,6.77,6.77,6.77,6.77,6.8214,6.9816,7.011,7.066,7.2275,7.2496,7.2496,7.2496,7.2496,0.0,0.0,0.0,0.0,0.0,7.2496,7.2496,7.2496,7.2496,7.2496,7.2496,7.2496,7.2496,7.2496,7.2496,7.2496,7.2496,7.2496,7.2496,7.2496,7.2496,7.2496,7.2496,7.2496,7.2496,7.2496,7.2496,7.2496,7.2496,7.2582,7.261,7.2638,7.277,7.2867,7.312,0.0,0.0,0.0,0.0,0.0,0.0,0.0,0.0,0.0,0.0,0.0,5.5621,5.5575,0.0,0.0,0.0,5.6629,5.7392,5.8009,5.8054,5.8446,5.9252,5.9355,5.9578,6.0014,6.0021,5.9926,5.9782,0.0,0.0,5.9512,5.93,5.9328,0.0,5.9466,5.9634,0.0,0.0,0.0,0.0,0.0,0.0,0.0,0.0,0.0,0.0,0.0,0.0,0.0,0.0,0.0,0.0,0.0,0.0,0.0,0.0,0.0,6.2793,6.2793,6.2793,6.2793,6.2793,6.3613,6.4567,6.5141,6.6072,6.699,0.0,6.77,6.77,6.77,6.77,6.8214,6.9816,7.011,7.066,7.2275,7.2496,7.2496,7.2496,7.2496,0.0,0.0,0.0,0.0,0.0,7.2496,7.2496,7.2496,7.2496,7.2496,7.2496,7.2496,7.2496,7.2496,7.2496,7.2496,7.2496,7.2524,7.2539,7.2553,7.2596,7.261,7.261,7.2567,7.2539,7.2553,7.2624,7.2667,7.2681,7.2784,7.2867,7.2922,7.3138,7.3408,7.3896,0.0,0.0,0.0,0.0,0.0,0.0,0.0,0.0,0.0,0.0,0.0,5.5703,5.5698,5.6434,5.6884,5.675,5.7511,5.8336,5.8994,5.9093,5.9489,6.0293,6.0394,0.0,6.0091,6.0014,5.9926,0.0,0.0,0.0,5.9512,5.9374,5.9684,6.0328,6.0157,6.0081,6.0172,0.0,0.0,0.0,0.0,0.0,0.0,0.0,0.0,0.0,0.0,0.0,0.0,0.0,0.0,0.0,0.0,0.0,0.0,0.0,0.0,0.0,6.2793,6.2793,6.2793,6.2793,6.404,6.5251,6.5288,6.6512,6.7664,6.77,6.77,6.77,6.77,6.77,6.8214,6.9816,7.011,7.066,7.2275,7.2496,7.2496,7.2496,7.2496,7.2496,0.0,0.0,0.0,0.0,7.2496,7.2496,7.2496,7.2496,7.2496,7.2496,7.2496,7.2496,7.2496,7.2496,7.2496,7.2496,7.2624,7.2695,7.2695,7.2899,7.2968,7.2955,7.2765,7.2695,7.2723,7.2963,7.3084,7.3098,7.3207,7.335,7.3452,7.3465,7.4213,7.53,0.0,0.0,0.0,0.0,0.0,0.0,0.0,0.0,0.0,0.0,0.0,0.0,0.0,5.7665,5.7785,5.7698,5.8336,5.9087,5.988,5.9929,6.0022,6.0337,6.0415,6.0349,6.025,6.0129,0.0,0.0,0.0,5.9829,6.0255,6.0228,6.0576,6.126,6.0589,6.077,6.1613,6.2289,0.0,0.0,0.0,0.0,0.0,0.0,0.0,0.0,0.0,0.0,0.0,0.0,0.0,0.0,0.0,0.0,0.0,0.0,0.0,6.2793,6.2793,6.2793,6.2793,6.2793,6.404,6.5288,6.5288,6.6549,6.77,6.77,6.77,6.77,6.77,6.77,6.8214,6.9816,7.011,7.066,7.2275,7.2496,7.2496,7.2496,7.2496,7.2496,0.0,0.0,0.0,0.0,0.0,7.2496,7.2496,7.2496,7.2496,7.2496,7.2496,7.2496,7.2496,7.2496,7.2539,7.2624,7.2756,7.2867,7.2963,7.3124,7.3191,7.3204,7.3285,7.3233,7.3087,7.3272,7.3401,7.3516,7.3739,7.3848,7.3932,7.4207,7.4935,7.5907,0.0,0.0,0.0,0.0,0.0,5.6247,0.0,0.0,0.0,0.0,0.0,0.0,0.0,0.0,5.8791,5.9001,5.939,5.9865,6.0446,6.0436,6.0401,6.0401,6.0436,6.0415,6.033,6.0189,0.0,0.0,0.0,0.0,0.0,6.1166,6.161,6.2325,6.1694,6.1854,0.0,0.0,0.0,6.3658,0.0,0.0,6.3511,0.0,0.0,0.0,0.0,0.0,0.0,0.0,0.0,0.0,0.0,0.0,0.0,0.0,0.0,0.0,6.2793,6.2793,6.2793,6.2793,6.404,6.5288,6.5288,6.6549,6.77,6.77,6.77,6.77,6.77,6.77,6.8141,6.9486,6.9926,7.055,7.1908,7.2349,7.2496,7.2496,7.2496,7.2496,7.2496,0.0,0.0,0.0,0.0,0.0,7.2496,7.2496,7.2496,7.2496,7.2539,7.2567,7.2567,7.2667,7.2765,7.2826,7.3047,7.3233,7.3363,7.3553,7.3666,7.369,7.3895,7.3799,7.3528,7.3751,7.3942,7.4082,7.433,7.4439,7.459,7.5155,7.5949,7.6864,0.0,5.5785,5.6055,5.6901,5.7055,5.7324,5.8165,0.0,0.0,0.0,0.0,0.0,0.0,0.0,0.0,6.0627,6.0629,6.0585,6.0585,6.0585,6.0578,6.0578,6.0558,6.0491,6.046,0.0,0.0,0.0,0.0,0.0,0.0,0.0,6.2615,6.3436,6.3436,6.3276,6.298,0.0,6.3995,6.3791,0.0,6.3647,6.3382,0.0,0.0,0.0,6.2842,6.2793,0.0,0.0,0.0,0.0,0.0,0.0,0.0,0.0,0.0,0.0,0.0,0.0,0.0,6.2793,6.404,6.5288,6.5288,6.6549,6.77,6.77,6.77,6.77,6.77,6.77,6.7958,6.8752,6.9522,7.0367,7.1197,7.1967,7.2459,7.2496,7.2496,7.2496,7.2496,0.0,0.0,0.0,7.2496,7.2496,7.2496,7.2496,7.2496,7.2496,7.2638,7.2723,7.2723,7.2976,7.3138,7.3151,7.3541,7.38,7.3932,7.4214,7.4356,7.4439,7.4546,7.4341,7.3979,7.4444,7.4699,7.4831,7.5038,7.5208,7.5405,7.6224,7.7182,7.8249,5.7588,5.7588,5.7665,5.7896,5.7934,5.8011,5.8275,0.0,0.0,0.0,0.0,0.0,0.0,0.0,6.0544,6.0763,6.0703,6.066,6.066,6.061,6.0578,6.0578,6.0565,6.0852,6.1452,0.0,0.0,0.0,0.0,0.0,0.0,0.0,0.0,0.0,6.4538,6.4413,6.4123,6.4202,0.0,0.0,6.3812,6.3747,0.0,0.0,0.0,0.0,0.0,6.2793,0.0,0.0,6.2793,6.2793,0.0,0.0,0.0,0.0,0.0,0.0,6.2793,0.0,0.0,0.0,0.0,0.0,6.5288,6.6549,6.77,6.77,6.77,6.77,6.77,6.77,6.7774,6.7994,6.8715,6.9729,7.1087,7.149,7.1857,7.2422,7.2496,7.2496,7.2496,7.2496,0.0,0.0,7.2496,7.2496,7.2496,7.2596,7.2638,7.2638,7.2853,7.3044,7.3114,7.3298,7.3541,7.3836,7.4026,7.4278,7.4562,7.4737,7.4831,7.4903,7.5038,7.5057,7.498,7.4989,7.5076,7.5243,7.5407,7.5459,7.5617,7.6594,7.7511,7.845,5.8313,5.8313,5.839,5.8742,5.8819,5.8934,0.0,0.0,0.0,0.0,0.0,0.0,0.0,0.0,0.0,6.0787,6.0752,6.0734,6.0734,6.1043,6.1249,6.1249,6.1524,6.1934,0.0,0.0,0.0,0.0,0.0,0.0,0.0,0.0,0.0,0.0,6.4963,6.4815,0.0,0.0,0.0,0.0,6.3747,0.0,0.0,6.3218,6.3111,0.0,0.0,0.0,6.2793,6.2793,6.2793,0.0,0.0,0.0,0.0,0.0,0.0,0.0,0.0,0.0,0.0,0.0,0.0,0.0,6.5288,6.6549,6.77,6.77,6.77,6.77,6.77,6.77,6.77,6.77,6.8104,6.8972,7.0573,7.1087,7.16,7.2422,7.2496,7.2496,7.2496,7.2496,7.2496,7.2496,7.2496,7.2496,7.2496,7.2624,7.2737,7.277,7.3141,7.3414,7.3553,7.3871,7.415,7.44,7.4605,7.4831,7.5057,7.5189,7.529,7.5351,7.5433,7.551,7.5586,7.5485,7.5502,7.5603,7.5731,7.5993,7.6431,7.7332,7.8254,7.9107,0.0,5.8588,5.8819,5.9511,5.9627,5.9896,0.0,0.0,0.0,0.0,0.0,0.0,0.0,0.0,0.0,0.0,6.1018,6.1089,6.1089,6.1787,0.0,0.0,0.0,0.0,0.0,0.0,0.0,0.0,0.0,0.0,0.0,0.0,0.0,0.0,6.5023,6.4806,6.4424,0.0,0.0,6.3769,6.3647,6.3465,0.0,0.0,6.3026,0.0,6.2842,6.2793,6.2793,6.2793,6.2793,0.0,0.0,0.0,0.0,0.0,6.2793,0.0,0.0,0.0,0.0,0.0,0.0,0.0,6.5398,6.6623,6.77,6.77,6.77,6.77,6.77,6.77,6.77,6.77,6.77,6.8214,6.9743,7.0646,7.1454,7.2275,7.2459,7.2496,7.2496,7.2496,7.2496,7.2496,7.2496,7.2496,7.2496,7.2667,7.2798,7.2949,7.3503,7.386,7.4003,7.4573,7.4861,7.4881,7.5189,7.5371,7.5476,7.5591,7.5674,7.5724,7.5724,7.5802,7.5902,7.5902,7.5902,7.591,7.5985,7.6515,7.7407,7.8215,7.9054,7.9931,6.0319,6.0319,6.0358,6.0512,6.055,0.0,0.0,0.0,0.0,0.0,0.0,0.0,0.0,0.0,0.0,0.0,6.2435,6.2814,6.2814,6.2968,0.0,0.0,0.0,0.0,0.0,0.0,0.0,0.0,0.0,0.0,0.0,0.0,0.0,0.0,6.5266,6.5006,6.4643,0.0,0.0,6.3769,6.3647,0.0,6.35,6.323,6.3147,6.3111,6.288,6.2793,6.2793,0.0,6.2793,6.2793,0.0,0.0,0.0,0.0,0.0,0.0,0.0,0.0,0.0,0.0,0.0,0.0,6.6109,6.699,6.77,6.77,6.77,6.77,6.77,6.77,6.77,6.77,6.77,6.8031,6.9009,6.9816,7.0624,7.1454,7.2114,7.2496,7.2496,7.2496,7.2496,7.2496,7.2496,7.2496,7.2496,7.2826,7.3098,7.322,7.3918,7.4385,7.4626,7.5027,7.5272,7.5424,7.5523,7.5625,7.5817,7.5833,7.5887,7.5932,7.5932,7.5978,7.5993,7.5993,7.5993,7.5993,7.6007,7.6515,7.7407,7.8215,7.9054,7.9931,6.0787,6.0787,6.0787,6.0787,0.0,0.0,0.0,0.0,0.0,0.0,0.0,0.0,0.0,0.0,0.0,0.0,0.0,0.0,0.0,0.0,0.0,0.0,0.0,0.0,0.0,0.0,0.0,0.0,0.0,0.0,0.0,0.0,0.0,0.0,0.0,0.0,0.0,0.0,6.4237,6.3845,6.3669,0.0,6.3384,6.3171,6.3345,6.3689,6.3492,6.371,6.404,6.404,6.404,0.0,0.0,6.404,6.404,0.0,6.404,6.404,0.0,0.0,0.0,6.4604,0.0,0.0,0.0,6.71,6.77,6.77,6.77,6.77,6.77,6.77,6.77,6.77,6.77,6.7847,6.8238,6.8972,6.9963,7.116,7.1674,7.2041,7.2459,7.2496,7.2524,7.2596,7.2596,7.2638,7.2723,7.3081,7.3335,7.3503,7.4218,7.4692,7.495,7.5371,7.5641,7.5761,7.5771,7.5833,7.5955,7.5955,7.5978,7.6015,7.6015,7.6015,7.6015,7.6015,7.6015,7.6053,7.6476,7.7176,7.7984,7.8823,7.9708,8.0516,6.0864,6.0787,6.0787,6.0787,0.0,0.0,0.0,0.0,0.0,0.0,0.0,0.0,0.0,0.0,0.0,0.0,0.0,0.0,0.0,0.0,0.0,0.0,0.0,6.5904,0.0,0.0,0.0,0.0,0.0,0.0,0.0,0.0,0.0,0.0,0.0,0.0,0.0,0.0,0.0,6.4209,0.0,6.3905,6.3536,6.3541,6.3947,6.4475,6.4374,6.4751,6.5288,6.5288,0.0,6.5288,6.5288,6.5288,0.0,0.0,0.0,0.0,0.0,0.0,0.0,0.0,0.0,6.6549,0.0,0.0,0.0,6.77,6.77,0.0,0.0,0.0,0.0,0.0,0.0,0.0,0.0,6.8238,0.0,7.0866,7.1197,7.1637,7.2422,7.251,7.2596,7.2737,7.2742,7.2863,7.3027,7.3333,7.3591,7.3812,7.453,7.498,7.5188,7.5682,7.591,7.5918,7.5985,7.6015,7.6015,7.6015,7.6015,7.6015,7.6015,7.6015,7.6015,7.6015,7.6092,7.6322,7.7022,7.7792,7.86,7.9477,8.0362,8.1093,6.1089,6.0787,6.0787,6.0787,0.0,0.0,0.0,0.0,0.0,0.0,0.0,0.0,0.0,0.0,0.0,0.0,0.0,0.0,6.559,0.0,0.0,0.0,0.0,0.0,6.5904,0.0,0.0,0.0,0.0,0.0,0.0,0.0,0.0,0.0,6.5583,0.0,0.0,0.0,6.5632,0.0,6.5875,6.5549,0.0,6.5319,6.5496,6.5509,6.5244,6.5215,6.5288,0.0,6.5288,6.5288,0.0,6.5288,0.0,0.0,0.0,0.0,0.0,0.0,0.0,0.0,6.6439,0.0,0.0,0.0,6.77,6.77,0.0,0.0,0.0,0.0,0.0,0.0,0.0,0.0,6.77,6.7774,6.8435,7.0036,7.0866,7.1637,7.2422,7.261,7.2751,7.2867,7.299,7.3138,7.3246,7.3628,7.3944,7.4237,7.4871,7.5327,7.5549,7.5833,7.6,7.6,7.6007,7.6015,7.6015,7.6015,7.6015,7.6015,7.6015,7.6015,7.6015,7.6015,7.6476,7.7176,7.7253,7.7792,7.86,7.9477,8.0362,8.1093,6.2391,6.2243,6.2243,6.2243,0.0,0.0,0.0,0.0,0.0,0.0,0.0,0.0,0.0,0.0,0.0,0.0,0.0,6.5904,0.0,0.0,0.0,0.0,0.0,0.0,0.0,0.0,0.0,0.0,6.5904,0.0,0.0,0.0,0.0,0.0,6.5646,0.0,6.5912,0.0,6.6295,0.0,0.0,0.0,0.0,6.5973,6.5915,6.6191,6.6552,6.6696,6.6696,0.0,6.6696,0.0,0.0,0.0,0.0,0.0,0.0,0.0,0.0,0.0,0.0,0.0,0.0,0.0,0.0,0.0,6.77,0.0,0.0,0.0,0.0,0.0,0.0,0.0,6.77,0.0,0.0,0.0,6.8141,0.0,0.0,0.0,7.2386,7.2624,7.2812,7.3101,7.3324,7.3579,7.386,7.4165,7.44,7.46,7.5076,7.5433,7.5591,7.5856,7.6015,7.6015,7.6015,7.6015,7.6015,7.6015,7.6015,7.6015,7.6015,7.6015,7.6015,7.6015,7.6515,7.7369,7.783,7.8523,7.9361,8.0246,8.0785,8.1093,6.4006,0.0,0.0,0.0,0.0,0.0,0.0,0.0,0.0,0.0,0.0,0.0,6.582,6.5904,0.0,0.0,0.0,6.5904,0.0,0.0,6.5904,0.0,0.0,0.0,0.0,0.0,0.0,0.0,0.0,0.0,0.0,0.0,0.0,0.0,0.0,6.6571,6.6957,0.0,0.0,6.7657,6.8291,6.8318,6.7852,6.6777,6.6539,6.6916,6.748,6.77,6.77,6.77,6.77,0.0,6.77,0.0,0.0,0.0,0.0,0.0,6.77,0.0,0.0,0.0,0.0,0.0,0.0,0.0,0.0,0.0,0.0,0.0,0.0,0.0,0.0,0.0,0.0,6.77,0.0,6.77,0.0,0.0,0.0,0.0,0.0,7.2548,7.2963,7.3324,7.3677,7.4035,7.4427,7.4657,7.4841,7.495,7.5297,7.5544,7.5666,7.5879,7.6015,7.6015,7.6015,7.6015,7.6015,7.6015,7.6015,7.6015,7.6015,7.6015,7.6015,7.6245,7.6868,7.7715,7.8523,7.94,8.0239,8.0862,8.1093,8.1093,6.582,6.4474,0.0,0.0,0.0,0.0,0.0,0.0,0.0,0.0,0.0,0.0,0.0,0.0,0.0,0.0,0.0,6.5904,6.5904,0.0,6.5904,0.0,0.0,0.0,0.0,0.0,0.0,0.0,0.0,0.0,0.0,0.0,0.0,0.0,0.0,6.8171,6.8201,6.8675,6.8794,6.8704,6.9182,6.9012,6.8431,0.0,6.7878,6.7664,6.77,0.0,0.0,6.77,6.77,0.0,0.0,0.0,0.0,0.0,0.0,0.0,0.0,0.0,0.0,6.77,0.0,0.0,0.0,0.0,6.77,0.0,0.0,0.0,0.0,0.0,0.0,0.0,0.0,0.0,0.0,0.0,0.0,0.0,0.0,0.0,0.0,7.241,7.318,7.3465,7.4047,7.4493,7.4778,7.5095,7.5309,7.5368,7.5595,7.5763,7.5879,7.597,7.6015,7.6015,7.6015,7.6015,7.6015,7.6015,7.6015,7.6015,7.6015,7.6015,7.6053,7.6899,7.7715,7.8561,7.9438,8.0285,8.1054,8.1093,8.1093,8.1093,6.5904,0.0,0.0,0.0,0.0,0.0,0.0,6.5904,0.0,0.0,0.0,0.0,0.0,0.0,6.6673,0.0,0.0,6.7545,6.7545,6.7545,0.0,0.0,0.0,6.7545,0.0,0.0,0.0,0.0,0.0,0.0,0.0,0.0,0.0,0.0,0.0,6.859,0.0,0.0,0.0,0.0,0.0,7.0143,6.9663,0.0,0.0,6.7834,6.7741,6.77,0.0,6.77,6.77,6.77,6.77,6.77,6.77,6.77,6.77,0.0,0.0,0.0,6.77,6.77,0.0,0.0,0.0,0.0,0.0,0.0,0.0,0.0,0.0,0.0,0.0,0.0,0.0,0.0,0.0,0.0,0.0,0.0,0.0,0.0,0.0,0.0,0.0,7.3727,7.4229,7.4719,7.5104,7.5345,7.551,7.5603,7.5755,7.5864,7.5887,7.5978,7.6015,7.6015,7.6015,7.6015,7.6015,7.6015,7.6015,7.6015,7.6015,7.6015,7.6053,7.6945,7.7753,7.86,7.9477,8.0323,8.1093,8.1093,8.1093,8.1093,6.6782,0.0,0.0,0.0,0.0,0.0,0.0,0.0,0.0,0.0,6.6782,0.0,6.6782,0.0,6.7552,0.0,6.8084,6.8391,6.8391,6.8391,0.0,6.8391,6.8391,0.0,0.0,0.0,0.0,0.0,0.0,6.8391,6.8391,6.8737,0.0,0.0,0.0,6.9522,6.997,6.9886,7.0241,0.0,0.0,7.1285,0.0,0.0,6.9136,6.8854,0.0,6.8613,6.8613,6.8558,6.8545,6.8545,6.8545,6.8545,6.8545,6.8545,6.8545,6.8508,6.8214,6.8128,0.0,6.7774,6.77,0.0,6.77,0.0,0.0,0.0,0.0,0.0,0.0,0.0,0.0,0.0,0.0,0.0,0.0,6.77,0.0,0.0,0.0,0.0,0.0,0.0,7.3311,7.386,7.4389,7.4871,0.0,0.0,7.5731,7.5779,7.591,7.5933,7.5933,7.5985,7.6015,7.6015,7.6015,7.6015,7.6015,7.6015,7.6015,7.6015,7.6015,7.6169,7.6515,7.7369,7.8215,7.9054,7.9939,8.0592,8.1093,8.1093,8.1093,8.1093,6.8391,6.8391,0.0,0.0,6.6673,0.0,0.0,0.0,6.8391,0.0,6.8391,6.8391,6.8391,6.843,6.8468,6.8468,6.8507,0.0,6.8507,6.8507,0.0,0.0,6.8507,6.8507,6.8507,0.0,0.0,0.0,0.0,0.0,6.8545,6.936,6.9744,0.0,7.0591,0.0,7.0968,7.0937,7.1319,7.2011,7.2436,7.2481,7.2253,7.1823,7.1327,7.0817,7.0428,7.0293,7.0266,7.0165,7.011,7.011,7.011,7.011,7.011,7.011,7.011,6.9926,6.9192,6.8972,6.8788,6.7994,0.0,0.0,0.0,0.0,6.7811,0.0,0.0,0.0,0.0,0.0,0.0,0.0,0.0,0.0,0.0,0.0,0.0,0.0,0.0,0.0,0.0,7.1988,7.3311,7.386,7.4466,7.497,0.0,0.0,7.5925,7.6015,7.6015,7.6015,7.6015,7.6015,7.6015,7.6015,7.6015,7.6015,7.6015,7.6015,7.6015,7.6015,7.6015,7.6476,7.7369,7.8176,7.9015,7.9892,8.0746,8.1093,8.1093,8.1093,8.1093,8.1093,6.8391,6.8391,6.8276,0.0,6.793,6.809,0.0,0.0,0.0,0.0,6.8391,6.8391,6.8391,6.8968,6.936,6.936,6.9898,0.0,0.0,0.0,0.0,7.0244,7.0244,7.0244,7.0244,7.0244,0.0,7.0244,0.0,0.0,7.0244,7.0475,7.0591,7.0629,0.0,7.1832,7.1845,7.2407,7.2739,7.2916,7.3514,7.3682,0.0,0.0,7.3649,7.2979,7.1124,7.0387,7.0266,7.0165,7.011,7.011,7.011,7.011,7.011,7.011,7.011,7.0036,6.9853,6.9779,6.9743,6.9522,6.9486,6.9486,0.0,0.0,0.0,0.0,0.0,0.0,0.0,0.0,0.0,0.0,0.0,0.0,0.0,0.0,0.0,6.8531,0.0,0.0,7.0441,7.2055,7.335,7.4017,7.4433,0.0,0.0,0.0,0.0,7.5976,7.6015,7.6015,7.6015,7.6015,7.6015,7.6015,7.6015,7.6015,7.6015,7.6015,7.6015,7.6015,7.6015,7.6476,7.7369,7.8176,7.9015,7.9892,8.0746,8.1093,8.1093,8.1093,8.1093,8.1093,6.9475,6.9475,0.0,6.9475,0.0,0.0,6.9007,0.0,0.0,7.0014,7.0052,0.0,7.0584,7.1084,7.1353,7.1353,7.1776,0.0,0.0,0.0,0.0,7.2052,7.2052,7.2052,7.2052,7.2052,0.0,7.2052,0.0,0.0,7.2052,7.2052,7.2052,7.2052,0.0,7.2702,7.2661,7.3469,7.3837,7.386,7.4569,0.0,0.0,7.4857,7.4647,7.409,7.2534,7.1806,7.1562,7.1425,7.1384,7.137,7.125,7.1236,7.1222,7.1152,7.118,7.1162,7.0795,7.0795,7.0816,7.0448,7.0374,7.0374,7.0374,7.0266,7.0207,0.0,0.0,0.0,0.0,0.0,0.0,0.0,0.0,0.0,0.0,0.0,0.0,0.0,7.0068,0.0,7.1117,7.2328,7.3322,7.3944,7.4308,0.0,0.0,0.0,0.0,7.5969,7.6015,7.6015,7.6015,7.6015,7.6015,7.6015,7.6015,7.6015,7.6015,7.6015,7.6015,7.6015,7.6399,7.7061,7.7907,7.8707,7.9592,8.0439,8.09,8.1093,8.1093,8.1093,8.1093,8.1093,7.0898,0.0,0.0,0.0,0.0,0.0,0.0,7.0706,0.0,7.2098,0.0,7.2668,7.343,7.3507,7.3507,7.3507,0.0,7.3507,7.3507,7.3507,7.3507,7.3507,7.3507,7.3507,7.3507,7.3507,0.0,0.0,0.0,0.0,7.3507,7.3507,7.3507,7.3507,7.3623,0.0,0.0,7.435,7.4681,7.4804,7.5456,7.569,7.5591,7.53,7.4939,7.4503,7.4142,7.3691,7.3239,7.3091,7.305,7.3023,7.2821,7.2765,7.2737,7.2596,7.2653,7.2595,7.1922,7.1918,7.1943,7.1252,7.1079,7.1103,7.109,7.0882,7.0733,7.0655,7.0473,7.034,0.0,0.0,0.0,0.0,0.0,0.0,0.0,0.0,0.0,0.0,0.0,0.0,7.2114,7.2661,7.3281,7.3896,0.0,0.0,0.0,0.0,0.0,7.5969,7.6015,7.6015,7.6015,0.0,7.6015,7.6015,7.6015,7.6015,7.6015,7.6015,7.6053,7.6207,7.6984,7.783,7.8715,7.9477,8.0323,8.1093,8.1093,8.1093,8.1093,8.1093,8.1093,8.1093,0.0,0.0,0.0,0.0,0.0,7.2168,7.2738,7.2322,7.2021,7.2175,7.2822,7.3315,7.3469,7.3507,7.3507,7.3507,7.3507,0.0,0.0,0.0,0.0,7.3507,7.3507,7.3507,7.3507,7.3507,7.3507,0.0,0.0,0.0,0.0,0.0,0.0,7.3546,7.4199,0.0,7.5287,7.5315,0.0,7.5525,7.5662,7.5684,7.566,7.5574,7.5254,7.4879,7.4716,7.418,7.3488,7.3309,7.327,7.3207,7.3084,7.3031,7.3003,7.2955,7.2972,7.3034,7.2968,7.3088,7.3192,7.3168,7.3168,7.3131,7.3006,7.2979,7.2889,7.2653,7.2069,7.1548,7.1451,0.0,0.0,0.0,0.0,0.0,0.0,0.0,0.0,0.0,0.0,0.0,0.0,0.0,0.0,0.0,0.0,0.0,0.0,0.0,0.0,0.0,7.6015,0.0,0.0,0.0,7.6015,7.6015,7.6015,7.6015,7.6015,7.6015,7.6399,7.7092,7.7215,7.8169,7.9592,7.9738,8.0323,8.1093,8.1093,8.1093,8.1093,8.1093,8.1093,8.1093,0.0,0.0,0.0,0.0,0.0,0.0,0.0,7.3514,0.0,7.3514,7.386,7.4276,7.4745,7.4822,7.4822,7.4822,7.4822,7.4822,7.4822,7.4822,7.4822,7.4822,7.4822,0.0,7.4822,7.4822,7.4822,7.4822,0.0,0.0,0.0,0.0,0.0,7.4815,7.5156,7.548,0.0,0.0,0.0,7.5794,7.5794,7.5794,7.5786,7.5699,7.5468,7.5208,7.5095,7.476,7.4345,7.4001,7.3883,7.3847,7.3653,7.3566,7.3465,7.3309,7.3348,7.344,7.3579,7.3823,7.4093,7.4229,7.4263,7.4241,7.4184,7.4003,7.3776,7.3653,7.313,7.2717,7.2729,7.2174,0.0,0.0,0.0,0.0,0.0,0.0,0.0,0.0,0.0,0.0,0.0,0.0,0.0,0.0,0.0,0.0,0.0,0.0,0.0,0.0,0.0,0.0,0.0,0.0,0.0,7.6015,7.6015,7.6015,7.6015,7.6015,7.6476,7.733,7.7753,7.8631,7.9854,8.0277,8.0708,8.1093,8.1093,8.1093,8.1093,8.1093,8.1093,8.1093,0.0,7.2476,0.0,0.0,7.3776,0.0,7.4007,7.4584,7.4892,7.47,7.4861,7.5245,7.5938,7.6015,7.6015,7.6015,7.6015,7.6015,7.6015,7.6015,7.6015,7.6015,7.6015,7.6015,7.6015,7.6015,7.6015,0.0,0.0,0.0,0.0,0.0,0.0,0.0,0.0,0.0,0.0,0.0,7.5779,7.5887,7.5887,7.5887,7.5879,7.5786,7.5628,7.5476,7.5398,7.5327,7.5179,7.4814,7.4602,7.4525,7.4323,7.4177,7.405,7.3751,7.3812,7.3906,7.4059,7.4395,7.476,7.4891,7.4931,7.4921,7.4901,7.4626,7.4345,7.4267,7.393,7.3702,7.3823,7.3454,0.0,0.0,0.0,0.0,0.0,0.0,0.0,0.0,0.0,0.0,0.0,0.0,0.0,0.0,0.0,0.0,0.0,0.0,0.0,0.0,0.0,7.6015,7.6015,0.0,7.6015,7.6015,7.6015,7.6015,7.6015,7.6207,7.6746,7.7599,7.8407,7.9285,8.0131,8.0823,8.1093,8.1093,8.1093,8.1093,8.1093,8.1093,8.1093,8.1093,0.0,0.0,0.0,0.0,0.0,0.0,7.5668,7.5822,7.5592,7.4815,7.5399,7.5899,7.5976,7.6015,7.6015,7.6015,7.6015,7.6015,7.6015,7.6015,7.6015,7.6015,7.6015,7.6015,7.6015,7.6015,7.6015,0.0,0.0,0.0,0.0,0.0,0.0,0.0,0.0,0.0,0.0,7.5771,7.5779,7.5887,7.5887,7.5887,7.5887,7.5879,7.5786,7.5668,7.566,7.5652,7.5644,7.5573,7.5342,7.5009,7.4801,7.473,7.4668,7.4406,7.4406,7.4546,7.4753,7.4912,7.5104,7.5297,7.5342,7.5315,7.5263,7.5208,7.5104,7.4791,7.4503,7.433,7.4352,7.4363,7.4481,0.0,0.0,0.0,0.0,0.0,0.0,0.0,0.0,0.0,0.0,7.5152,0.0,0.0,7.5333,0.0,0.0,0.0,0.0,7.6015,0.0,7.6015,7.6015,7.6015,7.6015,7.6015,7.6015,7.6015,7.6015,7.6823,7.7638,7.8446,7.9285,8.0169,8.0977,8.1054,8.1093,8.1093,8.1093,8.1093,8.1093,8.1093,8.1093,8.1093,0.0,0.0,0.0,0.0,0.0,0.0,0.0,7.6015,7.5861,7.5515,7.5784,7.6015,7.6015,7.6015,7.6015,7.6015,7.6015,7.6015,7.6015,7.6015,7.6015,7.6015,7.6015,7.6015,7.6015,7.6015,7.6015,0.0,0.0,0.0,0.0,0.0,0.0,0.0,0.0,7.5963,7.5963,7.5894,7.5902,7.5963,7.5963,7.5963,7.5963,7.5963,7.5948,7.5879,7.5879,7.5879,7.5879,7.5879,7.5692,7.5421,7.5327,7.5207,7.5132,7.4989,7.497,7.5038,7.5179,7.5333,7.551,7.5674,7.5707,7.569,7.5658,7.5566,7.5454,7.5309,7.5085,7.4941,7.4941,7.5028,7.5132,0.0,0.0,0.0,0.0,0.0,0.0,0.0,0.0,0.0,0.0,0.0,0.0,0.0,0.0,0.0,0.0,0.0,0.0,7.6015,0.0,7.6015,7.6015,7.6015,7.6015,7.6015,7.6015,7.6015,7.6015,7.6899,7.8015,7.9323,8.0208,8.0785,8.1093,8.1093,8.1093,8.1093,8.1093,8.1093,8.1093,8.1093,8.1093,8.1093,7.4976,0.0,7.5284,0.0,7.6015,7.6015,7.6015,7.6015,7.6015,7.6015,7.6015,7.6015,7.6015,7.6015,7.6015,7.6015,7.6015,7.6015,7.6015,7.6015,7.6015,7.6015,7.6015,0.0,7.6015,7.6015,7.6015,7.6015,7.6015,0.0,0.0,0.0,0.0,0.0,7.6015,7.6015,7.6015,7.6015,7.6015,7.6015,7.6015,7.6015,7.6015,7.6015,7.6015,7.6015,7.6015,7.6015,7.6015,7.6015,7.5902,7.5794,7.5699,7.5633,7.5527,7.5433,7.5407,7.5433,7.5519,7.5636,7.5786,7.591,7.5925,7.5925,7.5925,7.5841,7.5707,7.5682,7.5557,7.5407,7.5407,7.5468,7.5527,7.5625,0.0,0.0,0.0,0.0,0.0,0.0,0.0,7.5739,7.5764,7.5747,0.0,0.0,0.0,0.0,0.0,0.0,0.0,0.0,0.0,0.0,0.0,7.6015,7.6015,7.6015,7.6015,7.613,7.6438,7.7515,7.8823,8.0208,8.0823,8.1093,8.1093,8.1093,8.1093,8.1093,8.1093,8.1093,8.1093,8.1093,8.1093,8.1093,7.5976,7.5976,7.5976,7.6015,7.6015,7.6015,7.6015,7.6015,7.6015,7.6015,7.6015,7.6015,7.6015,7.6015,7.6015,7.6015,7.6015,7.6015,7.6015,7.6015,7.6015,0.0,0.0,7.6015,7.6015,7.6015,7.6015,7.6015,0.0,0.0,7.6015,0.0,7.6015,7.6015,7.6015,7.6015,7.6015,7.6015,7.6015,7.6015,7.6015,7.6015,7.6015,7.6015,7.6015,7.6015,7.6015,7.6015,7.6015,7.6015,7.6015,7.6,7.591,7.5887,7.5872,7.5716,7.5692,7.5708,7.5864,7.5887,7.591,7.5993,7.6015,7.6015,7.6015,7.6015,7.5985,7.5902,7.5786,7.5692,7.5692,7.5692,7.5692,7.5692,0.0,0.0,0.0,0.0,0.0,0.0,7.6015,7.6015,7.6015,7.6015,0.0,0.0,0.0,0.0,0.0,0.0,0.0,7.6015,7.6015,0.0,7.6015,7.6015,7.6015,7.6015,7.6015,7.6438,7.733,7.9015,8.0246,8.1093,8.1093,8.1093,8.1093,8.1093,8.1093,8.1093,8.1093,8.1093,8.1093,8.1093,8.1093,8.1093,7.6015,7.6015,7.6015,7.6015,7.6015,7.6015,7.6015,7.6015,7.6207,7.683,7.6899,7.7099,7.7638,7.6669,7.6015,0.0,7.6015,7.6015,0.0,7.6015,7.6015,7.6015,7.6015,7.6015,7.6015,7.6015,7.6015,7.6015,0.0,0.0,0.0,7.6015,7.6015,7.6015,7.6015,7.6015,7.6015,7.6015,7.6015,7.6015,7.6015,7.6015,7.6015,7.6015,7.6015,7.6015,7.6015,7.6015,7.6015,7.6015,7.6015,7.6007,7.5985,7.5978,7.597,7.591,7.5902,7.591,7.597,7.5978,7.5978,7.6007,7.6015,7.6015,7.6015,7.6015,7.6007,7.5978,7.5917,7.5902,7.5902,7.5902,7.5902,7.5902,7.5924,0.0,0.0,0.0,0.0,0.0,7.6015,7.6015,0.0,7.6015,0.0,0.0,0.0,0.0,0.0,0.0,0.0,0.0,7.6015,0.0,7.6015,7.6015,7.6015,7.6015,7.6015,7.6746,7.8176,7.9285,8.0285,8.1093,8.1093,8.1093,8.1093,8.1093,8.1093,8.1093,8.1093,8.1093,8.1093,8.1093,8.1093,8.1093,7.6015,7.6015,7.6015,7.6015,7.6284,7.6476,7.6476,7.6746,7.713,7.7676,7.7753,7.7946,7.8446,7.7561,0.0,7.6938,7.6938,7.6938,7.6938,7.6938,7.6784,7.6515,7.6476,7.6322,7.6015,0.0,0.0,7.6015,7.6015,7.6015,7.6015,7.6015,7.6015,7.6015,7.6015,7.6015,7.6015,7.6015,7.6015,7.6015,7.6015,7.6015,7.6015,7.6015,7.6015,7.6015,7.6015,7.6015,7.6015,7.6015,7.6015,7.6015,7.6015,7.6015,7.6015,7.6015,7.6015,7.6015,7.6015,7.6015,7.6015,7.6015,7.6015,7.6015,7.6015,7.6015,7.6015,7.6015,7.6015,7.6015,7.6015,7.6015,7.6015,7.6015,7.6015,7.6015,7.6015,0.0,0.0,0.0,0.0,0.0,0.0,7.6015,7.6015,0.0,0.0,0.0,0.0,0.0,0.0,7.6015,7.6015,0.0,7.6015,7.6015,7.6015,7.6015,7.663,7.7669,7.9015,7.99,8.0592,8.1093,8.1093,8.1093,8.1093,8.1093,8.1093,8.1093,8.1093,8.1093,8.1093,8.1093,8.1093,8.1093,7.6092,7.6092,0.0,0.0,7.6823,0.0,7.7369,7.8023,7.8523,7.86,7.86,7.86,7.8677,7.8677,7.8677,7.8677,0.0,0.0,0.0,7.8484,7.8176,7.7407,7.7369,7.7015,7.6207,7.613,7.6053,7.6015,7.6015,7.6015,7.6015,7.6015,7.6015,7.6015,7.6015,7.6015,7.6015,7.6015,7.6015,7.6015,7.6015,7.6015,7.6015,7.6015,7.6015,7.6015,7.6015,7.6015,7.6015,7.6015,7.6015,7.6015,7.6015,7.6015,7.6015,7.6015,7.6015,7.6015,7.6015,7.6015,7.6015,7.6015,7.6015,7.6015,7.6015,7.6015,7.6015,7.6015,7.6015,7.6015,7.6015,7.6015,7.6015,7.6015,7.6015,7.6015,7.6015,0.0,0.0,0.0,0.0,0.0,0.0,7.6015,7.6015,0.0,0.0,0.0,0.0,0.0,7.6015,7.6015,7.6015,7.6015,7.6015,7.6015,7.6015,7.6092,7.7715,7.8977,7.9815,8.0708,8.1093,8.1093,8.1093,8.1093,8.1093,8.1093,8.1093,8.1093,8.1093,8.1093,8.1093,8.1093,8.1093,8.1093,0.0,0.0,7.7176,7.7792,7.8099,7.8215,7.8215,7.8369,7.8754,7.94,7.9477,7.9746,8.04,8.0477,8.0477,8.0477,7.9254,7.8484,7.8484,7.8484,7.8407,7.8215,7.8215,7.8138,7.7907,7.733,7.6669,7.6015,7.6015,7.6015,7.6015,7.6015,7.6015,7.6015,7.6015,7.6015,7.6015,7.6015,7.6015,7.6015,7.6015,7.6015,7.6015,7.6015,7.6015,7.6015,7.6015,7.6015,7.6015,7.6015,7.6015,7.6015,7.6015,7.6015,7.6015,7.6015,7.6015,7.6015,7.6015,7.6015,7.6015,7.6015,7.6015,7.6015,7.6015,7.6015,7.6015,7.6015,7.6015,7.6015,7.6015,7.6015,7.6015,7.6015,7.6015,7.6015,7.6015,7.6015,0.0,0.0,7.6015,7.6015,7.6015,7.6015,7.6015,0.0,0.0,0.0,0.0,7.6015,7.6015,7.6015,7.6015,7.6015,7.6015,7.6015,7.6322,7.6984,7.8023,7.8977,7.9815,8.0708,8.1093,8.1093,8.1093,8.1093,8.1093,8.1093,8.1093,8.1093,8.1093,8.1093,8.1093,8.1093,8.1093,8.1093,7.7753,7.7869,7.7984,7.8407,7.8823,7.9092,7.9092,7.9438,7.9862,8.0323,8.04,8.0554,8.1054,8.1093,8.1093,8.1093,8.0208,7.9669,7.9669,7.9669,7.9515,7.9092,7.9092,7.8907,7.8523,7.8061,7.7638,7.7138,7.7138,7.6938,7.6592,7.6592,7.6361,7.6015,7.6015,7.6015,7.6015,7.6015,7.6015,7.6015,7.6015,7.6015,7.6015,7.6015,7.6015,7.6015,7.6015,7.6015,7.6015,7.6015,7.6015,7.6015,7.6015,7.6015,7.6015,7.6015,7.6015,7.6015,7.6015,7.6015,7.6015,7.6015,7.6015,7.6015,7.6015,7.6015,7.6015,7.6015,7.6015,7.6015,7.6015,7.6015,7.6015,7.6015,7.6015,7.6015,7.6015,7.6015,0.0,7.6015,7.6015,7.6015,7.6015,7.6015,7.6015,7.6015,0.0,0.0,7.6015,7.6015,7.6015,7.6015,7.6015,7.6015,7.6015,7.6399,7.7015,7.7869,7.8707,7.9554,8.04,8.09,8.1093,8.1093,8.1093,8.1093,8.1093,8.1093,8.1093,8.1093,8.1093,8.1093,8.1093,8.1093,8.1093,8.1093,7.8677,7.8715,7.8754,7.8869,7.9515,8.0008,8.0008,8.0631,8.1093,8.1093,8.1093,8.1093,8.1093,8.1093,8.1093,8.1093,8.1093,8.1093,8.1093,8.1093,8.0785,8.0046,8.0008,7.9669,7.8907,7.8754,7.8638,7.8484,7.8484,7.8138,7.7484,7.7484,7.7099,7.6361,7.6361,7.6361,7.6361,7.6361,7.6361,7.6361,7.6361,7.6361,7.6361,7.6361,7.6361,7.6361,7.6361,7.6284,7.6207,7.6207,7.6092,7.6015,7.6015,7.6015,7.6015,7.6015,7.6015,7.6015,7.6015,7.6015,7.6015,7.6015,7.6015,7.6015,7.6015,7.6015,7.6015,7.6015,7.6015,7.6015,7.6015,7.6015,7.6015,7.6015,7.6015,7.6015,7.6015,0.0,7.6015,7.6015,7.6015,7.6015,7.6015,7.6015,7.6015,7.6015,7.6015,7.6015,7.6015,7.6015,7.6015,7.6015,7.6015,7.6053,7.6207,7.6945,7.7753,7.8715,7.9438,8.0246,8.1093,8.1093,8.1093,8.1093,8.1093,8.1093,8.1093,8.1093,8.1093,8.1093,8.1093,8.1093,8.1093,8.1093,8.1093,8.1093,7.9438,7.9592,7.9823,8.0554,8.0823,8.09,8.09,8.1016,8.1093,8.1093,8.1093,8.1093,8.1093,8.1093,8.1093,8.1093,8.1093,8.1093,8.1093,8.1093,8.1054,8.09,8.09,8.0823,8.0708,7.9977,7.9246,7.8484,7.8484,7.8446,7.8292,7.8292,7.8253,7.8099,7.8099,7.8099,7.8099,7.8099,7.8099,7.8099,7.8099,7.8099,7.8099,7.8099,7.8099,7.8099,7.8099,7.7676,7.7099,7.7099,7.6592,7.6015,7.6015,7.6015,7.6015,7.6015,7.6015,7.6015,7.6015,7.6015,7.6015,7.6015,7.6015,7.6015,7.6015,7.6015,7.6015,7.6015,7.6015,7.6015,7.6015,7.6015,7.6015,7.6015,7.6015,7.6015,7.6015,0.0,7.6015,7.6015,7.6015,7.6015,7.6015,7.6015,7.6015,7.6015,7.6015,7.6015,7.6015,7.6015,7.6015,7.6015,7.6015,7.6361,7.7099,7.7215,7.8054,7.9592,7.9738,8.0246,8.1093,8.1093,8.1093,8.1093,8.1093,8.1093,8.1093,8.1093,8.1093,8.1093,8.1093,8.1093,8.1093,8.1093,8.1093,8.1093,8.0439,8.0516,8.0631,8.1016,8.1093,8.1093,8.1093,8.1093,8.1093,8.1093,8.1093,8.1093,8.1093,8.1093,8.1093,8.1093,8.1093,8.1093,8.1093,8.1093,8.1093,8.1093,8.1093,8.1093,8.1093,8.0708,8.0285,7.99,7.99,7.9669,7.9208,7.9208,7.8938,7.8484,7.8484,7.8484,7.8484,7.8484,7.8484,7.8484,7.8484,7.8484,7.8484,7.8484,7.8484,7.8484,7.8484,7.8253,7.7946,7.7946,7.7676,7.7361,7.7361,7.7053,7.6707,7.6707,7.6361,7.6015,7.6015,7.6015,7.6015,7.6015,7.6015,7.6015,7.6015,7.6015,7.6015,7.6015,7.6015,7.6015,7.6015,7.6015,7.6015,7.6015,7.6015,0.0,0.0,7.6015,7.6015,7.6015,7.6015,7.6015,7.6015,7.6015,7.6015,7.6015,7.6015,7.6015,7.6015,7.6015,7.6015,7.6015,7.6015,7.6399,7.7292,7.7715,7.8554,7.9815,8.0285,8.0708,8.1093,8.1093,8.1093,8.1093,8.1093,8.1093,8.1093,8.1093,8.1093,8.1093,8.1093,8.1093,8.1093,8.1093,8.1093,8.1093,8.1093,8.1093,8.1093,8.1093,8.1093,8.1093,8.1093,8.1093,8.1093,8.1093,8.1093,8.1093,8.1093,8.1093,8.1093,8.1093,8.1093,8.1093,8.1093,8.1093,8.1093,8.1093,8.1093,8.1093,8.1093,8.1093,8.1093,8.1093,8.1093,8.0746,8.0085,8.0085,7.9746,7.91,7.91,7.91,7.91,7.91,7.91,7.91,7.91,7.91,7.91,7.91,7.91,7.91,7.91,7.8984,7.8792,7.8792,7.8677,7.8484,7.8484,7.8099,7.7599,7.7599,7.6984,7.6245,7.6053,7.6015,7.6015,7.6015,7.6015,7.6015,7.6015,7.6015,7.6015,7.6015,7.6015,7.6015,7.6015,7.6015,7.6015,7.6015,0.0,0.0,0.0,7.6015,7.6015,7.6015,7.6015,7.6015,7.6015,7.6015,7.6015,7.6015,7.6015,7.6015,7.6015,7.6015,7.6092,7.6284,7.6284,7.6707,7.7561,7.8407,7.9246,8.0123,8.0785,8.1093,8.1093,8.1093,8.1093,8.1093,8.1093,8.1093,8.1093,8.1093,8.1093,8.1093,8.1093,8.1093,8.1093,8.1093,8.1093,8.1093,8.1093,8.1093,8.1093,8.1093,8.1093,8.1093,8.1093,8.1093,8.1093,8.1093,8.1093,8.1093,8.1093,8.1093,8.1093,8.1093,8.1093,8.1093,8.1093,8.1093,8.1093,8.1093,8.1093,8.1093,8.1093,8.1093,8.1093,8.1093,8.1093,8.1054,8.1016,8.1016,8.0977,8.09,8.09,8.09,8.09,8.09,8.09,8.09,8.09,8.09,8.09,8.09,8.09,8.09,8.09,8.04,7.97,7.97,7.9169,7.8484,7.8484,7.8446,7.8407,7.8407,7.783,7.7022,7.6207,7.6015,7.6015,7.6015,7.6015,7.6015,7.6015,7.6015,7.6015,7.6015,7.6015,7.6015,7.6015,7.6015,7.6015,7.6015,0.0,0.0,7.6015,7.6015,7.6015,7.6015,7.6015,7.6015,7.6015,7.6015,7.6015,7.6015,7.6015,7.6015,7.6015,7.6015,7.6361,7.7176,7.7215,7.7599,7.8407,7.9285,8.0131,8.1016,8.1054,8.1093,8.1093,8.1093,8.1093,8.1093,8.1093,8.1093,8.1093,8.1093,8.1093,8.1093,8.1093,8.1093,8.1093,8.1093,8.1093,8.1093,8.1093,8.1093,8.1093,8.1093,8.1093,8.1093,8.1093,8.1516,8.1823,8.1823,8.2324,8.2639,8.2639,8.2639,8.2639,8.2639,8.2639,8.2401,8.1862,8.1823,8.1631,8.1131,8.1093,8.1093,8.1093,8.1093,8.1093,8.1093,8.1093,8.1093,8.1093,8.1093,8.1093,8.1093,8.1093,8.1093,8.1093,8.1093,8.1093,8.1093,8.1093,8.1093,8.1093,8.1093,8.1093,8.1093,8.1093,8.09,8.0592,8.0592,8.04,8.0092,8.0092,7.9746,7.9208,7.8677,7.8292,7.7984,7.7638,7.6784,7.6015,7.6015,7.6015,7.6015,7.6015,7.6015,7.6015,7.6015,7.6015,7.6015,7.6015,7.6015,7.6015,7.6015,0.0,7.6015,7.6015,7.6015,7.6015,7.6015,7.6015,7.6015,7.6015,7.6015,7.6015,7.6015,7.6015,7.6015,7.6015,7.6515,7.6938,7.7292,7.8323,7.9015,7.9285,7.9631,8.0246,8.1093,8.1093,8.1093,8.1093,8.1093,8.1093,8.1093,8.1093,8.1093,8.1093,8.1093,8.1093,8.1093,8.1093,8.1093,8.1093,8.1093,8.1093,8.1093,8.1093,8.1285,8.1477,8.1477,8.1708,8.19,8.19,8.2362,8.2716,8.2716,8.3216,8.3601,8.3601,8.3601,8.3601,8.3601,8.3601,8.337,8.2747,8.2716,8.2208,8.1131,8.1093,8.1093,8.1093,8.1093,8.1093,8.1093,8.1093,8.1093,8.1093,8.1093,8.1093,8.1093,8.1093,8.1093,8.1093,8.1093,8.1093,8.1093,8.1093,8.1093,8.1093,8.1093,8.1093,8.1093,8.1093,8.1093,8.1093,8.1093,8.1093,8.1093,8.1093,8.0708,8.0054,7.9169,7.8907,7.8869,7.8561,7.7676,7.6707,7.6476,7.6207,7.6015,7.6015,7.6015,7.6015,7.6015,7.6015,7.6015,7.6015,7.6015,7.6015,7.6015,7.6015,7.6015,7.6015,7.6015,7.6015,7.6015,7.6015,7.6015,7.6015,7.6015,7.6015,7.6015,7.6015,7.613,7.6399,7.6984,7.7561,7.8054,7.9208,7.9931,8.0208,8.0208,8.0516,8.1093,8.1093,8.1093,8.1093,8.1093,8.1093,8.1093,8.1093,8.1093,8.1093,8.1093,8.1093,8.1093,8.1093,8.1093,8.1093,8.1093,8.1093,8.1093,8.1131,8.1747,8.2324,8.2324,8.3024,8.3601,8.3601,8.3601,8.3601,8.3601,8.3601,8.3601,8.3601,8.3601,8.3601,8.3601,8.3601,8.3601,8.3601,8.3601,8.287,8.1208,8.1093,8.1093,8.1093,8.1093,8.1093,8.1093,8.1093,8.1093,8.1093,8.1093,8.1093,8.1093,8.1093,8.1093,8.1093,8.1093,8.1093,8.1093,8.1093,8.1093,8.1093,8.1093,8.1093,8.1093,8.1093,8.1093,8.1093,8.1093,8.1093,8.1093,8.1093,8.1093,8.0939,8.0046,7.9815,7.9631,7.8754,7.8523,7.833,7.7522,7.663,7.6015,7.6015,7.6015,7.6015,7.6015,7.6015,7.6015,7.6015,7.6015,7.6015,7.6015,7.6015,7.6015,7.6015,7.6015,7.6015,7.6015,7.6015,7.6015,7.6015,7.6015,7.6015,7.6015,7.6015,7.6399,7.7253,7.733,7.8092,7.9738,7.9815,8.0239,8.1093,8.1093,8.1093,8.1093,8.1093,8.1093,8.1093,8.1093,8.1093,8.1093,8.1093,8.1093,8.1093,8.1093,8.1093,8.1093,8.1093,8.1093,8.1093,8.1093,8.1093,8.1093,8.2716,8.3062,8.3216,8.3216,8.3447,8.3601,8.3601,8.4132,8.4516,8.4516,8.5016,8.5363,8.5363,8.5363,8.5363,8.5363,8.5363,8.5093,8.4555,8.3939,8.337,8.287,8.2285,8.1939,8.1939,8.14,8.1093,8.1093,8.1093,8.1093,8.1093,8.1093,8.1093,8.1093,8.1093,8.1093,8.1093,8.1093,8.1093,8.1093,8.1093,8.1093,8.1093,8.1093,8.1093,8.1093,8.1093,8.1093,8.1093,8.1093,8.1093,8.1093,8.1093,8.1093,8.1054,8.0785,8.0708,8.0669,8.04,7.9862,7.9208,7.8369,7.7522,7.6899,7.6899,7.6438,7.6015,7.6015,7.6015,7.6015,7.6015,7.6015,7.6015,7.6015,7.6015,7.6015,7.6015,7.6015,7.6015,7.6015,7.6015,7.6015,7.6015,7.6015,7.6015,7.6015,7.6553,7.7022,7.7292,7.84,7.9285,7.9777,8.04,8.0823,8.1093,8.1093,8.1093,8.1093,8.1093,8.1093,8.1093,8.1093,8.1093,8.1093,8.1093,8.1093,8.1093,8.1093,8.1093,8.1093,8.1093,8.1093,8.1093,8.1093,8.1093,8.1093,8.3486,8.387,8.4093,8.4093,8.4362,8.4593,8.4593,8.5055,8.5354,8.5354,8.5786,8.6094,8.6094,8.6094,8.6094,8.6094,8.6094,8.5893,8.5401,8.4863,8.4593,8.4593,8.3785,8.317,8.2832,8.2324,8.2093,8.2093,8.1747,8.1554,8.1554,8.1246,8.1093,8.1093,8.1093,8.1093,8.1093,8.1093,8.1093,8.1093,8.1093,8.1093,8.1093,8.1093,8.1093,8.1093,8.1093,8.1093,8.1093,8.1093,8.1093,8.1093,8.1093,8.1093,8.1093,8.1093,8.1093,8.1093,8.1093,8.0708,8.0208,7.9669,7.8638,7.7753,7.7753,7.7369,7.6899,7.6592,7.6515,7.6399,7.6053,7.6015,7.6015,7.6015,7.6015,7.6015,7.6015,7.6015,7.6015,7.6015,7.6015,7.6015,7.6015,7.6015,7.613,7.6476,7.7292,7.7946,7.8284,7.9246,7.9977,8.0285,8.0823,8.1093,8.1093,8.1093,8.1093,8.1093,8.1093,8.1093,8.1093,8.1093,8.1093,8.1093,8.1093,8.1093,8.1093,8.1093,8.1093,8.1093,8.1093,8.1093,8.1093,8.1093,8.1093,8.1093,8.3793,8.4478,8.5008,8.5008,8.5624,8.6094,8.6094,8.6094,8.6094,8.6094,8.6094,8.6094,8.6094,8.6094,8.6094,8.6094,8.6094,8.6094,8.6094,8.6094,8.6094,8.6094,8.5401,8.4632,8.3832,8.3678,8.3601,8.3601,8.2824,8.2401,8.2401,8.167,8.1323,8.1323,8.1246,8.1208,8.1208,8.1131,8.1093,8.1093,8.1093,8.1093,8.1093,8.1093,8.1093,8.1093,8.1093,8.1093,8.1093,8.1093,8.1093,8.1093,8.1093,8.1093,8.1093,8.1093,8.1093,8.1093,8.1093,8.1093,8.1093,8.1093,7.99,7.8715,7.8638,7.8561,7.8292,7.7561,7.7407,7.7176,7.6361,7.6207,7.6207,7.6207,7.6169,7.613,7.613,7.6053,7.6015,7.6092,7.613,7.613,7.6207,7.6207,7.6553,7.7369,7.8176,7.8977,7.9738,7.9854,8.0285,8.1054,8.1093,8.1093,8.1093,8.1093,8.1093,8.1093,8.1093,8.1093,8.1093,8.1093,8.1093,8.1093,8.1093,8.1093,8.1093,8.1093,8.1093,8.1093,8.1093,8.1093,8.1093,8.1093,8.1093,8.1093,8.544,8.5709,8.5863,8.5863,8.5978,8.6094,8.6094,8.6094,8.6094,8.6094,8.6094,8.6094,8.6094,8.6094,8.6094,8.6094,8.6094,8.6094,8.6094,8.6094,8.6094,8.6094,8.594,8.5747,8.5555,8.4255,8.3601,8.3601,8.3409,8.3332,8.3332,8.3139,8.3062,8.3024,8.2324,8.2054,8.2016,8.1362,8.1093,8.1093,8.1093,8.1093,8.1093,8.1093,8.1093,8.1093,8.1093,8.1093,8.1093,8.1093,8.1093,8.1093,8.1093,8.1093,8.1093,8.1093,8.1093,8.1093,8.1093,8.1093,8.1093,8.1093,8.0823,8.0362,7.9669,7.8977,7.8446,7.8292,7.8253,7.8176,7.7984,7.7946,7.7946,7.7946,7.7445,7.7015,7.7015,7.6438,7.6245,7.6945,7.7015,7.7292,7.7907,7.7946,7.8061,7.8215,7.9015,7.9592,7.9777,8.0439,8.09,8.1093,8.1093,8.1093,8.1093,8.1093,8.1093,8.1093,8.1093,8.1093,8.1093,8.1093,8.1093,8.1093,8.1093,8.1093,8.1093,8.1093,8.1093,8.1093,8.1093,8.1093,8.1093,8.1093,8.1093,8.1093,8.6017,8.6094,8.6094,8.6094,8.6094,8.6094,8.6094,8.6094,8.6094,8.6094,8.6094,8.6094,8.6094,8.6094,8.6094,8.6094,8.6094,8.6094,8.6094,8.6094,8.6094,8.6094,8.6094,8.6094,8.6094,8.5247,8.4786,8.4786,8.4401,8.4209,8.4209,8.3793,8.3601,8.3563,8.3139,8.2901,8.2909,8.2477,8.2054,8.167,8.167,8.1439,8.1093,8.1093,8.1093,8.1093,8.1093,8.1093,8.1093,8.1093,8.1093,8.1093,8.1093,8.1093,8.1093,8.1093,8.1093,8.1093,8.1093,8.1093,8.1093,8.1093,8.1093,8.0977,8.0516,8.0054,7.9631,7.9208,7.9131,7.8977,7.86,7.8484,7.8484,7.8484,7.8138,7.7869,7.7869,7.7484,7.7361,7.783,7.7869,7.8023,7.8446,7.8861,7.9131,7.9131,7.9939,8.0439,8.0439,8.0862,8.1093,8.1093,8.1093,8.1093,8.1093,8.1093,8.1093,8.1093,8.1093,8.1093,8.1093,8.1093,8.1093,8.1093,8.1093,8.1093,8.1093,8.1093,8.1093,8.1093,8.1093,8.1093,8.1093,8.1093,8.1093,8.1093,8.6094,8.6094,8.6094,8.6094,8.6094,8.6094,8.6094,8.6094,8.6094,8.6094,8.6094,8.6094,8.6094,8.6094,8.6094,8.6094,8.6094,8.6094,8.6094,8.6094,8.6094,8.6094,8.6094,8.6094,8.6094,8.6094,8.6094,8.6094,8.5431,8.5132,8.5085,8.4362,8.4024,8.4024,8.387,8.3832,8.3832,8.3678,8.3178,8.2516,8.2516,8.2131,8.1516,8.1516,8.1439,8.1323,8.1323,8.1208,8.1093,8.1093,8.1093,8.1093,8.1093,8.1093,8.1093,8.1093,8.1093,8.1093,8.1093,8.1093,8.1093,8.1093,8.1093,8.1093,8.1093,8.1093,8.09,8.0162,8.0015,7.9785,7.91,7.8946,7.8946,7.8946,7.883,7.8715,7.8715,7.86,7.8561,7.8715,7.8869,7.8946,7.8946,7.9592,8.0015,8.0015,8.0708,8.1093,8.1093,8.1093,8.1093,8.1093,8.1093,8.1093,8.1093,8.1093,8.1093,8.1093,8.1093,8.1093,8.1093,8.1093,8.1093,8.1093,8.1093,8.1093,8.1093,8.1093,8.1093,8.1093,8.1093,8.1093,8.1093,8.1093,8.1093,8.1093,8.6094,8.6094,8.6094,8.6094,8.6094,8.6094,8.6094,8.6094,8.6094,8.6094,8.6094,8.6094,8.6094,8.6094,8.6094,8.6094,8.6094,8.6094,8.6094,8.6094,8.6094,8.6094,8.6094,8.6094,8.6094,8.6094,8.6094,8.6094,8.5978,8.594,8.594,8.5824,8.5747,8.5747,8.5016,8.4709,8.467,8.3909,8.3524,8.3409,8.3409,8.337,8.3255,8.3255,8.2793,8.2131,8.2131,8.1708,8.1093,8.1093,8.1093,8.1093,8.1093,8.1093,8.1093,8.1093,8.1093,8.1093,8.1093,8.1093,8.1093,8.1093,8.1093,8.1093,8.1093,8.1093,8.1054,8.0939,8.0939,8.09,8.0785,8.0746,8.0746,8.0746,8.0131,7.9631,7.9631,7.8977,7.8792,7.9515,8.0285,8.0746,8.0746,8.0862,8.0939,8.0939,8.1016,8.1093,8.1093,8.1093,8.1093,8.1093,8.1093,8.1093,8.1093,8.1093,8.1093,8.1093,8.1093,8.1093,8.1093,8.1093,8.1093,8.1093,8.1093,8.1093,8.1093,8.1093,8.1093,8.1093,8.1093,8.1093,8.1093,8.1093,8.1093,8.1093,8.6094,8.6094,8.6094,8.6094,8.6094,8.6094,8.6094,8.6094,8.6094,8.6094,8.6094,8.6094,8.6094,8.6094,8.6094,8.6094,8.6094,8.6094,8.6094,8.6094,8.6094,8.6094,8.6094,8.6094,8.6094,8.6094,8.6094,8.6094,8.6094,8.6094,8.6094,8.6094,8.6094,8.6094,8.5747,8.5555,8.5547,8.517,8.4747,8.4324,8.4324,8.4016,8.3601,8.3601,8.337,8.3024,8.3024,8.2477,8.1785,8.1785,8.1477,8.1093,8.1093,8.1093,8.1093,8.1093,8.1093,8.1093,8.1093,8.1093,8.1093,8.1093,8.1093,8.1093,8.1093,8.1093,8.1093,8.1093,8.1093,8.1093,8.1093,8.1093,8.1093,8.1093,8.0785,8.0516,8.0516,8.0208,8.0092,8.0477,8.0862,8.1093,8.1093,8.1093,8.1093,8.1093,8.1093,8.1093,8.1093,8.1093,8.1093,8.1093,8.1093,8.1093,8.1093,8.1093,8.1093,8.1093,8.1093,8.1093,8.1093,8.1093,8.1093,8.1093,8.1093,8.1093,8.1093,8.1093,8.1093,8.1093,8.1093,8.1093,8.1093,8.1093,8.1093,8.1093]}]]